[[{"header":{"parameterUnit":"m.s-1","parameterCategory":1,"la1":31.0,"la2":29.5877,"lo1":-88.7671,"lo2":-86.6584,"dy":0.0162,"dx":0.0185,"nx":115,"ny":88,"refTime":"2026-05-15T00:00:00:Z","depth":0,"parameterNumber":2,"parameterNumberName":"U-component_of_WINDS"},"data":[0.0,0.0,0.0,0.0,0.0,0.0,0.0,0.0,0.0,0.0,0.0,0.0,0.0,0.0,0.0,0.0,0.0,0.0,0.0,0.0,0.0,0.0,0.0,0.0,0.0,0.0,0.0,0.0,0.0,0.0,0.0,0.0,0.0,0.0,0.0,0.0,0.0,0.0,0.0,0.0,0.0,0.0,0.0,0.0,0.0,0.0,0.0,0.0,0.0,0.0,0.0,0.0,0.0,0.0,0.0,0.0,0.0,0.0,0.0,0.0,0.0,0.0,0.0,0.0,0.0,0.0,0.0,0.0,0.0,0.0,0.0,0.0,0.0,0.0,0.0,0.0,0.0,0.0,0.0,0.0,0.0,0.0,0.0,0.0,0.0,0.0,0.0,0.0,0.0,0.0,0.0,0.0,0.0,0.0,0.0,0.0,0.0,0.0,0.0,0.0,0.0,0.0,0.0,0.0,0.0,0.0,0.0,0.0,0.0,0.0,0.0,0.0,0.0,0.0,0.0,0.0,0.0,0.0,0.0,0.0,0.0,0.0,0.0,0.0,0.0,0.0,0.0,0.0,0.0,0.0,0.0,0.0,0.0,0.0,0.0,0.0,0.0,0.0,0.0,0.0,0.0,0.0,0.0,0.0,0.0,0.0,0.0,0.0,0.0,0.0,0.0,0.0,0.0,0.0,0.0,0.0,0.0,0.0,0.0,0.0,0.0,0.0,0.0,0.0,0.0,0.0,0.0,0.0,0.0,0.0,0.0,0.0,0.0,0.0,0.0,0.0,0.0,0.0,0.0,0.0,0.0,0.0,0.0,0.0,0.0,0.0,0.0,0.0,0.0,0.0,0.0,0.0,0.0,0.0,0.0,0.0,0.0,0.0,0.0,0.0,0.0,0.0,0.0,0.0,0.0,0.0,0.0,0.0,0.0,0.0,0.0,0.0,0.0,0.0,0.0,0.0,0.0,0.0,0.0,0.0,0.0,0.0,0.0,0.0,0.0,0.0,0.0,0.0,0.0,0.0,0.0,0.0,0.0,0.0,0.0,0.0,0.0,0.0,0.0,0.0,0.0,0.0,0.0,0.0,0.0,0.0,0.0,0.0,0.0,0.0,0.0,0.0,0.0,0.0,0.0,0.0,0.0,0.0,0.0,0.0,0.0,0.0,0.0,0.0,0.0,0.0,0.0,0.0,0.0,0.0,0.0,0.0,0.0,0.0,0.0,0.0,0.0,0.0,0.0,0.0,0.0,0.0,0.0,0.0,0.0,0.0,0.0,0.0,0.0,0.0,0.0,0.0,0.0,0.0,0.0,0.0,0.0,0.0,0.0,0.0,0.0,0.0,0.0,0.0,0.0,0.0,0.0,0.0,0.0,0.0,0.0,0.0,0.0,0.0,0.0,0.0,0.0,0.0,0.0,0.0,0.0,0.0,0.0,0.0,0.0,0.0,0.0,0.0,0.0,0.0,0.0,0.0,0.0,0.0,0.0,0.0,0.0,0.0,0.0,0.0,0.0,0.0,0.0,0.0,0.0,0.0,0.0,0.0,0.0,0.0,0.0,0.0,0.0,0.0,0.0,0.0,0.0,0.0,0.0,0.0,0.0,0.0,0.0,0.0,0.0,0.0,0.0,0.0,0.0,0.0,0.0,0.0,0.0,0.0,0.0,0.0,0.0,0.0,0.0,0.0,0.0,0.0,0.0,0.0,0.0,0.0,0.0,0.0,0.0,0.0,0.0,0.0,0.0,0.0,0.0,0.0,0.0,0.0,0.0,0.0,0.0,0.0,0.0,0.0,0.0,0.0,0.0,0.0,0.0,0.0,0.0,0.0,0.0,0.0,0.0,0.0,0.0,0.0,0.0,0.0,0.0,0.0,0.0,0.0,0.0,0.0,0.0,0.0,0.0,0.0,0.0,0.0,0.0,0.0,0.0,0.0,0.0,0.0,0.0,0.0,0.0,0.0,0.0,0.0,0.0,0.0,0.0,0.0,0.0,0.0,0.0,0.0,0.0,0.0,0.0,0.0,0.0,0.0,0.0,0.0,0.0,0.0,0.0,0.0,0.0,0.0,0.0,0.0,0.0,0.0,0.0,0.0,0.0,0.0,0.0,0.0,0.0,0.0,0.0,0.0,0.0,0.0,0.0,0.0,0.0,0.0,0.0,0.0,0.0,0.0,0.0,0.0,0.0,0.0,0.0,0.0,0.0,0.0,0.0,0.0,0.0,0.0,0.0,0.0,0.0,0.0,0.0,0.0,0.0,0.0,0.0,0.0,0.0,0.0,0.0,0.0,0.0,0.0,0.0,0.0,0.0,0.0,0.0,0.0,0.0,0.0,0.0,0.0,0.0,0.0,0.0,0.0,0.0,0.0,0.0,0.0,0.0,0.0,0.0,0.0,0.0,0.0,0.0,0.0,0.0,0.0,0.0,0.0,0.0,0.0,0.0,0.0,0.0,0.0,0.0,0.0,0.0,0.0,0.0,0.0,0.0,0.0,0.0,0.0,0.0,0.0,0.0,0.0,0.0,0.0,0.0,0.0,0.0,0.0,0.0,0.0,0.0,0.0,0.0,0.0,0.0,0.0,0.0,0.0,0.0,0.0,0.0,0.0,0.0,0.0,0.0,0.0,0.0,0.0,0.0,0.0,0.0,0.0,0.0,0.0,0.0,0.0,0.0,0.0,0.0,0.0,0.0,0.0,0.0,0.0,0.0,0.0,0.0,0.0,0.0,0.0,0.0,0.0,0.0,0.0,0.0,0.0,0.0,0.0,0.0,0.0,0.0,0.0,0.0,0.0,0.0,0.0,0.0,0.0,0.0,0.0,0.0,0.0,0.0,0.0,0.0,0.0,0.0,0.0,0.0,0.0,0.0,0.0,0.0,0.0,0.0,0.0,0.0,0.0,0.0,0.0,0.0,0.0,0.0,0.0,0.0,0.0,0.0,0.0,0.0,0.0,0.0,0.0,0.0,0.0,0.0,0.0,0.0,0.0,0.0,0.0,0.0,0.0,0.0,0.0,0.0,0.0,0.0,0.0,0.0,0.0,0.0,0.0,0.0,0.0,0.0,0.0,0.0,0.0,0.0,0.0,0.0,0.0,0.0,0.0,0.0,0.0,0.0,0.0,0.0,0.0,0.0,0.0,0.0,0.0,0.0,0.0,0.0,0.0,0.0,0.0,0.0,0.0,0.0,0.0,0.0,0.0,0.0,0.0,0.0,0.0,0.0,0.0,0.0,0.0,0.0,0.0,0.0,0.0,0.0,0.0,0.0,0.0,0.0,0.0,0.0,0.0,0.0,0.0,0.0,0.0,0.0,0.0,0.0,0.0,0.0,0.0,0.0,0.0,0.0,0.0,0.0,0.0,0.0,0.0,0.0,0.0,0.0,0.0,0.0,0.0,0.0,0.0,0.0,0.0,0.0,0.0,0.0,0.0,0.0,0.0,0.0,0.0,0.0,0.0,0.0,0.0,0.0,0.0,0.0,0.0,0.0,0.0,0.0,0.0,0.0,0.0,0.0,0.0,0.0,0.0,0.0,0.0,0.0,0.0,0.0,0.0,0.0,0.0,0.0,0.0,0.0,0.0,0.0,0.0,0.0,0.0,0.0,0.0,0.0,0.0,0.0,0.0,0.0,0.0,0.0,0.0,0.0,0.0,0.0,0.0,0.0,0.0,0.0,0.0,0.0,0.0,0.0,0.0,0.0,0.0,0.0,0.0,0.0,0.0,0.0,0.0,0.0,0.0,0.0,0.0,0.0,0.0,0.0,0.0,0.0,0.0,0.0,0.0,0.0,0.0,0.0,0.0,0.0,0.0,0.0,0.0,0.0,0.0,0.0,0.0,0.0,0.0,0.0,0.0,0.0,0.0,0.0,0.0,0.0,0.0,0.0,0.0,0.0,0.0,0.0,0.0,0.0,0.0,0.0,0.0,0.0,0.0,0.0,0.0,0.0,0.0,0.0,0.0,0.0,0.0,0.0,0.0,0.0,0.0,0.0,0.0,0.0,0.0,0.0,0.0,0.0,0.0,0.0,0.0,0.0,0.0,0.0,0.0,0.0,0.0,0.0,0.0,0.0,0.0,0.0,0.0,0.0,0.0,0.0,0.0,0.0,0.0,0.0,0.0,0.0,0.0,0.0,0.0,0.0,0.0,0.0,0.0,0.0,0.0,0.0,0.0,0.0,0.0,0.0,0.0,0.0,0.0,0.0,0.0,0.0,0.0,0.0,0.0,0.0,0.0,0.0,0.0,0.0,0.0,0.0,0.0,0.0,0.0,0.0,0.0,-0.7124,0.0,0.0,0.0,0.0,0.0,0.0,0.0,0.0,0.0,0.0,0.0,0.0,0.0,0.0,0.0,0.0,0.0,0.0,0.0,0.0,0.0,0.0,0.0,0.0,0.0,0.0,0.0,0.0,0.0,0.0,0.0,0.0,0.0,0.0,0.0,0.0,0.0,0.0,0.0,0.0,0.0,0.0,0.0,0.0,0.0,0.0,0.0,0.0,0.0,0.0,0.0,0.0,0.0,0.0,0.0,0.0,0.0,0.0,0.0,0.0,0.0,0.0,0.0,0.0,0.0,0.0,0.0,0.0,0.0,0.0,0.0,0.0,0.0,0.0,0.0,0.0,0.0,0.0,0.0,0.0,0.0,0.0,0.0,0.0,0.0,0.0,0.0,0.0,0.0,0.0,0.0,0.0,0.0,0.0,0.0,0.0,0.0,0.0,0.0,0.0,0.0,0.0,0.0,0.0,0.0,0.0,0.0,0.0,0.0,0.0,-0.7691,-0.7691,-0.7552,-0.7472,-0.7465,0.0,0.0,0.0,0.0,0.0,0.0,0.0,0.0,0.0,0.0,0.0,0.0,0.0,0.0,0.0,0.0,0.0,0.0,0.0,0.0,0.0,0.0,0.0,0.0,0.0,0.0,0.0,0.0,0.0,0.0,0.0,0.0,0.0,0.0,0.0,0.0,0.0,0.0,0.0,0.0,0.0,0.0,0.0,0.0,0.0,0.0,0.0,0.0,0.0,0.0,0.0,0.0,0.0,0.0,0.0,0.0,0.0,0.0,0.0,0.0,0.0,0.0,0.0,0.0,0.0,0.0,0.0,0.0,0.0,0.0,0.0,0.0,0.0,0.0,0.0,0.0,0.0,0.0,0.0,0.0,0.0,0.0,0.0,0.0,0.0,0.0,0.0,0.0,0.0,0.0,0.0,0.0,0.0,0.0,0.0,0.0,0.0,0.0,0.0,0.0,0.0,0.0,0.0,0.0,0.0,0.0,0.0,0.0,0.0,0.0,0.0,0.0,-0.7931,-0.7931,-0.7931,0.0,0.0,0.0,0.0,0.0,0.0,0.0,0.0,0.0,0.0,0.0,0.0,0.0,0.0,0.0,0.0,0.0,0.0,0.0,0.0,0.0,0.0,0.0,0.0,0.0,0.0,0.0,0.0,0.0,0.0,0.0,0.0,0.0,0.0,0.0,0.0,0.0,0.0,0.0,0.0,0.0,0.0,0.0,0.0,0.0,0.0,0.0,0.0,0.0,0.0,0.0,0.0,0.0,0.0,0.0,0.0,0.0,0.0,0.0,0.0,0.0,0.0,0.0,0.0,0.0,0.0,0.0,0.0,0.0,0.0,0.0,0.0,0.0,0.0,0.0,0.0,0.0,0.0,0.0,0.0,0.0,0.0,0.0,0.0,0.0,0.0,0.0,0.0,0.0,0.0,0.0,0.0,0.0,0.0,0.0,0.0,0.0,0.0,0.0,0.0,0.0,0.0,0.0,0.0,0.0,0.0,0.0,0.0,0.0,0.0,-0.7997,-0.8598,-0.862,0.0,-0.8627,0.0,0.0,0.0,0.0,0.0,0.0,0.0,0.0,0.0,0.0,0.0,0.0,0.0,0.0,0.0,0.0,0.0,0.0,0.0,0.0,0.0,0.0,0.0,0.0,0.0,0.0,0.0,0.0,0.0,0.0,0.0,0.0,0.0,0.0,0.0,0.0,0.0,0.0,0.0,0.0,0.0,0.0,0.0,0.0,0.0,0.0,0.0,0.0,0.0,0.0,0.0,0.0,0.0,0.0,0.0,0.0,0.0,0.0,0.0,0.0,0.0,0.0,0.0,0.0,0.0,0.0,0.0,0.0,0.0,0.0,0.0,0.0,0.0,0.0,0.0,0.0,0.0,0.0,0.0,0.0,0.0,0.0,0.0,0.0,0.0,0.0,0.0,0.0,0.0,0.0,0.0,0.0,0.0,0.0,0.0,0.0,0.0,0.0,0.0,0.0,0.0,0.0,0.0,0.0,0.0,0.0,0.0,0.0,0.0,0.0,0.0,-0.8701,-0.8708,-0.8708,0.0,0.0,0.0,0.0,0.0,0.0,0.0,0.0,0.0,0.0,0.0,0.0,0.0,0.0,0.0,0.0,0.0,0.0,0.0,0.0,0.0,0.0,0.0,0.0,0.0,0.0,0.0,0.0,0.0,0.0,0.0,0.0,0.0,0.0,0.0,0.0,0.0,0.0,0.0,0.0,0.0,0.0,0.0,0.0,0.0,0.0,0.0,0.0,0.0,0.0,0.0,0.0,0.0,0.0,0.0,0.0,0.0,0.0,0.0,0.0,0.0,0.0,0.0,0.0,0.0,0.0,0.0,0.0,0.0,0.0,0.0,0.0,0.0,0.0,0.0,0.0,0.0,0.0,0.0,0.0,0.0,0.0,0.0,0.0,0.0,0.0,0.0,0.0,0.0,0.0,0.0,0.0,0.0,0.0,0.0,0.0,0.0,0.0,0.0,0.0,0.0,0.0,0.0,0.0,0.0,0.0,0.0,0.0,0.0,0.0,-0.8538,0.0,-0.8933,-0.8948,-0.8824,-0.8583,0.0,0.0,0.0,0.0,0.0,0.0,0.0,0.0,0.0,0.0,0.0,0.0,0.0,0.0,0.0,0.0,0.0,0.0,0.0,0.0,0.0,0.0,0.0,0.0,0.0,0.0,0.0,0.0,0.0,0.0,0.0,0.0,0.0,0.0,0.0,0.0,0.0,0.0,0.0,0.0,0.0,0.0,0.0,0.0,0.0,0.0,0.0,0.0,0.0,0.0,0.0,0.0,0.0,0.0,0.0,0.0,0.0,0.0,0.0,0.0,0.0,0.0,0.0,0.0,0.0,0.0,0.0,0.0,0.0,0.0,0.0,0.0,0.0,0.0,0.0,0.0,0.0,0.0,0.0,0.0,0.0,0.0,0.0,0.0,0.0,0.0,0.0,0.0,0.0,0.0,0.0,0.0,0.0,0.0,0.0,0.0,0.0,0.0,0.0,0.0,0.0,0.0,0.0,0.0,0.0,0.0,0.0,0.0,0.0,-0.897,-0.8977,-0.9522,-0.9544,-0.9146,0.0,0.0,0.0,0.0,0.0,0.0,0.0,0.0,0.0,0.0,0.0,0.0,0.0,0.0,0.0,0.0,0.0,0.0,0.0,0.0,0.0,0.0,0.0,0.0,0.0,0.0,0.0,0.0,0.0,0.0,0.0,0.0,0.0,0.0,0.0,0.0,0.0,0.0,0.0,0.0,0.0,0.0,0.0,0.0,0.0,0.0,0.0,0.0,0.0,0.0,0.0,0.0,0.0,0.0,0.0,0.0,0.0,0.0,0.0,0.0,0.0,0.0,0.0,0.0,0.0,0.0,0.0,0.0,0.0,0.0,0.0,0.0,0.0,0.0,0.0,0.0,0.0,0.0,0.0,0.0,0.0,0.0,0.0,0.0,0.0,0.0,0.0,0.0,0.0,0.0,0.0,0.0,0.0,0.0,0.0,0.0,0.0,0.0,0.0,0.0,0.0,0.0,0.0,0.0,0.0,0.0,0.0,0.0,0.0,-0.8783,-0.8744,-0.919,-1.0148,-0.9255,-0.8743,0.0,0.0,0.0,0.0,0.0,0.0,0.0,0.0,0.0,0.0,0.0,0.0,0.0,0.0,0.0,0.0,0.0,0.0,0.0,0.0,0.0,0.0,0.0,0.0,0.0,0.0,0.0,0.0,0.0,0.0,0.0,0.0,0.0,0.0,0.0,0.0,0.0,0.0,0.0,0.0,0.0,0.0,0.0,0.0,0.0,0.0,0.0,0.0,0.0,0.0,0.0,0.0,0.0,0.0,0.0,0.0,0.0,0.0,0.0,0.0,0.0,0.0,0.0,0.0,0.0,0.0,0.0,0.0,0.0,0.0,0.0,0.0,0.0,0.0,0.0,0.0,0.0,0.0,0.0,0.0,0.0,0.0,0.0,0.0,0.0,0.0,0.0,0.0,0.0,0.0,0.0,0.0,0.0,0.0,0.0,0.0,0.0,0.0,0.0,0.0,0.0,0.0,0.0,0.0,0.0,0.0,0.0,0.0,0.0,-0.8925,0.0,-1.0156,0.0,-0.9451,-0.8678,0.0,0.0,0.0,0.0,0.0,0.0,0.0,0.0,0.0,0.0,0.0,0.0,0.0,0.0,0.0,0.0,0.0,0.0,0.0,0.0,0.0,0.0,0.0,0.0,0.0,0.0,0.0,0.0,0.0,0.0,0.0,0.0,0.0,0.0,0.0,0.0,0.0,0.0,0.0,0.0,0.0,0.0,0.0,0.0,0.0,0.0,0.0,0.0,0.0,0.0,0.0,0.0,0.0,0.0,0.0,0.0,0.0,0.0,0.0,0.0,0.0,0.0,0.0,0.0,0.0,0.0,0.0,0.0,0.0,0.0,0.0,0.0,0.0,0.0,0.0,0.0,0.0,0.0,0.0,0.0,0.0,0.0,0.0,0.0,0.0,0.0,0.0,0.0,0.0,0.0,0.0,0.0,0.0,0.0,0.0,0.0,0.0,0.0,0.0,0.0,0.0,0.0,0.0,0.0,0.0,0.0,0.0,0.0,-0.8211,-1.0051,-1.1547,-1.1686,-1.0648,-1.0188,-0.8984,0.0,0.0,0.0,0.0,0.0,0.0,0.0,0.0,0.0,0.0,0.0,0.0,0.0,0.0,0.0,0.0,0.0,0.0,0.0,0.0,0.0,0.0,0.0,0.0,0.0,0.0,0.0,0.0,0.0,0.0,0.0,0.0,0.0,0.0,0.0,0.0,0.0,0.0,0.0,0.0,0.0,0.0,0.0,0.0,0.0,0.0,0.0,0.0,0.0,0.0,0.0,0.0,0.0,0.0,0.0,0.0,0.0,0.0,0.0,0.0,0.0,0.0,0.0,0.0,0.0,0.0,0.0,0.0,0.0,0.0,0.0,0.0,0.0,0.0,0.0,0.0,0.0,0.0,0.0,0.0,0.0,0.0,0.0,0.0,0.0,0.0,0.0,0.0,0.0,0.0,0.0,0.0,0.0,0.0,0.0,0.0,0.0,0.0,0.0,0.0,0.0,0.0,0.0,0.0,0.0,0.0,0.0,0.0,0.0,-0.9754,-1.0051,-1.0522,-1.1055,-0.9399,-0.8536,0.0,0.0,0.0,0.0,0.0,0.0,0.0,0.0,0.0,0.0,0.0,0.0,0.0,0.0,0.0,0.0,0.0,0.0,0.0,0.0,0.0,0.0,0.0,0.0,0.0,0.0,0.0,0.0,0.0,0.0,0.0,0.0,0.0,0.0,0.0,0.0,0.0,0.0,0.0,0.0,0.0,0.0,0.0,0.0,0.0,0.0,0.0,0.0,0.0,0.0,0.0,0.0,0.0,0.0,0.0,0.0,0.0,0.0,0.0,0.0,0.0,0.0,0.0,0.0,0.0,0.0,0.0,0.0,0.0,0.0,0.0,0.0,0.0,0.0,0.0,0.0,0.0,0.0,0.0,0.0,0.0,0.0,0.0,0.0,0.0,0.0,0.0,0.0,0.0,0.0,0.0,0.0,0.0,0.0,0.0,0.0,0.0,0.0,0.0,0.0,0.0,0.0,0.0,0.0,0.0,0.0,0.0,0.0,0.0,-1.1549,-1.1403,-1.1483,-1.1891,-0.9864,-0.8806,-0.886,0.0,0.0,0.0,0.0,0.0,0.0,0.0,0.0,0.0,0.0,0.0,0.0,0.0,0.0,0.0,0.0,0.0,0.0,0.0,0.0,0.0,0.0,0.0,0.0,0.0,0.0,0.0,0.0,0.0,0.0,0.0,0.0,0.0,0.0,0.0,0.0,0.0,0.0,0.0,0.0,0.0,0.0,0.0,0.0,0.0,0.0,0.0,0.0,0.0,0.0,0.0,0.0,0.0,0.0,0.0,0.0,0.0,0.0,0.0,0.0,0.0,0.0,0.0,0.0,0.0,0.0,0.0,0.0,0.0,0.0,0.0,0.0,0.0,0.0,0.0,0.0,0.0,0.0,0.0,0.0,0.0,0.0,0.0,0.0,0.0,0.0,0.0,0.0,0.0,0.0,0.0,0.0,0.0,0.0,0.0,0.0,0.0,0.0,0.0,0.0,0.0,0.0,0.0,0.0,0.0,0.0,0.0,0.0,-1.4855,-1.4923,-1.4246,-1.286,-1.1397,-0.977,0.0,0.0,0.0,0.0,0.0,0.0,0.0,0.0,0.0,0.0,0.0,0.0,0.0,0.0,0.0,0.0,0.0,0.0,0.0,0.0,0.0,0.0,0.0,0.0,0.0,0.0,0.0,0.0,0.0,0.0,0.0,0.0,0.0,0.0,0.0,0.0,0.0,0.0,0.0,0.0,0.0,0.0,0.0,0.0,0.0,0.0,0.0,0.0,0.0,0.0,0.0,0.0,0.0,0.0,0.0,0.0,0.0,0.0,0.0,0.0,0.0,0.0,0.0,0.0,0.0,0.0,0.0,0.0,0.0,0.0,0.0,0.0,0.0,0.0,0.0,0.0,0.0,0.0,0.0,0.0,0.0,0.0,0.0,0.0,0.0,0.0,0.0,0.0,0.0,0.0,0.0,0.0,0.0,0.0,0.0,0.0,0.0,0.0,0.0,0.0,0.0,0.0,0.0,0.0,0.0,0.0,0.0,0.0,0.0,-1.5548,-1.5764,-1.5316,-1.4113,-1.2108,-1.0556,0.0,0.0,0.0,0.0,0.0,0.0,0.0,0.0,0.0,0.0,0.0,0.0,0.0,0.0,0.0,0.0,0.0,0.0,0.0,0.0,0.0,0.0,0.0,0.0,0.0,0.0,0.0,0.0,0.0,0.0,0.0,0.0,0.0,0.0,0.0,0.0,0.0,0.0,0.0,0.0,0.0,0.0,0.0,0.0,0.0,0.0,0.0,0.0,0.0,0.0,0.0,0.0,0.0,0.0,0.0,0.0,0.0,0.0,0.0,0.0,0.0,0.0,0.0,0.0,0.0,0.0,0.0,0.0,0.0,0.0,0.0,0.0,0.0,0.0,0.0,0.0,0.0,0.0,0.0,0.0,0.0,0.0,0.0,0.0,0.0,0.0,0.0,0.0,0.0,0.0,0.0,0.0,0.0,0.0,0.0,0.0,0.0,0.0,0.0,0.0,0.0,0.0,0.0,0.0,0.0,0.0,0.0,0.0,-1.5428,-1.6983,-1.6991,-1.6624,-1.5907,-1.3198,-1.1151,0.0,0.0,0.0,0.0,0.0,0.0,0.0,0.0,0.0,0.0,0.0,0.0,0.0,0.0,0.0,0.0,0.0,0.0,0.0,0.0,0.0,0.0,0.0,0.0,0.0,0.0,0.0,0.0,0.0,0.0,0.0,0.0,0.0,0.0,0.0,0.0,0.0,0.0,0.0,0.0,0.0,0.0,0.0,0.0,0.0,0.0,0.0,0.0,0.0,0.0,0.0,0.0,0.0,0.0,0.0,0.0,0.0,0.0,0.0,0.0,0.0,0.0,0.0,0.0,0.0,0.0,0.0,0.0,0.0,0.0,0.0,0.0,0.0,0.0,0.0,0.0,0.0,0.0,0.0,0.0,0.0,0.0,0.0,0.0,0.0,0.0,0.0,0.0,0.0,0.0,0.0,0.0,0.0,0.0,0.0,0.0,0.0,0.0,0.0,0.0,0.0,0.0,0.0,0.0,0.0,0.0,0.0,0.0,-1.6572,-1.8607,-1.8303,-1.8009,-1.7713,-1.4441,-1.1735,0.0,0.0,0.0,0.0,0.0,0.0,0.0,0.0,0.0,0.0,0.0,0.0,0.0,0.0,0.0,0.0,0.0,0.0,0.0,0.0,0.0,0.0,0.0,0.0,0.0,0.0,0.0,0.0,0.0,0.0,0.0,0.0,0.0,0.0,0.0,0.0,0.0,0.0,0.0,0.0,0.0,0.0,0.0,0.0,0.0,0.0,0.0,0.0,0.0,0.0,0.0,0.0,0.0,0.0,0.0,0.0,0.0,0.0,0.0,0.0,0.0,0.0,0.0,0.0,0.0,0.0,0.0,0.0,0.0,0.0,0.0,0.0,0.0,0.0,0.0,0.0,0.0,0.0,0.0,0.0,0.0,0.0,0.0,0.0,0.0,0.0,0.0,0.0,0.0,0.0,0.0,0.0,0.0,0.0,0.0,0.0,0.0,0.0,0.0,0.0,0.0,0.0,0.0,0.0,0.0,0.0,0.0,0.0,-1.7291,-1.9092,-1.9089,-1.8891,-1.8553,-1.5226,-1.2767,0.0,0.0,0.0,0.0,0.0,0.0,0.0,0.0,0.0,0.0,0.0,0.0,0.0,0.0,0.0,0.0,0.0,0.0,0.0,0.0,0.0,0.0,0.0,0.0,0.0,0.0,0.0,0.0,0.0,0.0,0.0,0.0,0.0,0.0,0.0,0.0,0.0,0.0,0.0,0.0,0.0,0.0,0.0,0.0,0.0,0.0,0.0,0.0,-0.3826,0.0,0.0,0.0,0.0,0.0,0.0,0.0,0.0,0.0,0.0,0.0,0.0,0.0,0.0,0.0,0.0,0.0,0.0,0.0,0.0,0.0,0.0,0.0,0.0,0.0,0.0,0.0,0.0,0.0,0.0,0.0,0.0,0.0,0.0,0.0,0.0,0.0,0.0,0.0,0.0,0.0,0.0,0.0,0.0,0.0,0.0,0.0,0.0,0.0,0.0,0.0,0.0,0.0,0.0,0.0,0.0,0.0,0.0,0.0,-1.8032,-1.9504,-1.9408,-1.9305,-1.9193,-1.6175,-1.3759,0.0,0.0,0.0,0.0,0.0,0.0,0.0,0.0,0.0,0.0,0.0,0.0,0.0,0.0,0.0,0.0,0.0,0.0,0.0,0.0,0.0,0.0,0.0,0.0,0.0,0.0,0.0,0.0,0.0,0.0,0.0,0.0,0.0,0.0,0.0,0.0,0.0,0.0,0.0,0.0,0.0,0.0,0.0,0.0,0.0,0.0,0.0,0.0,0.0,0.0,0.0,0.0,0.0,0.0,0.0,0.0,0.0,0.0,0.0,0.0,0.0,0.0,0.0,0.0,0.0,0.0,0.0,0.0,0.0,0.0,0.0,0.0,0.0,0.0,0.0,0.0,0.0,0.0,0.0,0.0,0.0,0.0,0.0,0.0,0.0,0.0,0.0,0.0,0.0,0.0,0.0,0.0,0.0,0.0,0.0,0.0,0.0,0.0,0.0,0.0,0.0,0.0,0.0,0.0,0.0,0.0,0.0,-1.709,-1.8662,-1.9933,-1.974,-1.9711,-1.9934,-1.7151,-1.4879,-1.3296,0.0,0.0,0.0,0.0,0.0,0.0,0.0,0.0,0.0,0.0,0.0,0.0,0.0,0.0,0.0,0.0,0.0,0.0,0.0,0.0,0.0,0.0,0.0,0.0,0.0,0.0,0.0,0.0,0.0,0.0,0.0,0.0,0.0,0.0,0.0,0.0,0.0,0.0,-0.5788,-0.6102,0.0,0.0,0.0,0.0,0.0,0.0,0.0,0.0,-0.4337,0.0,0.0,0.0,0.0,0.0,0.0,0.0,0.0,0.0,0.0,0.0,0.0,0.0,0.0,0.0,0.0,0.0,0.0,0.0,0.0,0.0,0.0,0.0,0.0,0.0,0.0,0.0,0.0,0.0,0.0,0.0,0.0,0.0,0.0,0.0,0.0,0.0,0.0,0.0,0.0,0.0,0.0,0.0,0.0,0.0,0.0,0.0,0.0,0.0,0.0,0.0,0.0,0.0,0.0,0.0,0.0,-1.7422,-1.7832,-1.8799,-2.042,-2.074,-2.075,-2.043,-1.8339,-1.6398,-1.4745,0.0,0.0,0.0,0.0,0.0,0.0,0.0,0.0,0.0,0.0,0.0,0.0,0.0,0.0,0.0,0.0,0.0,0.0,0.0,0.0,0.0,0.0,0.0,0.0,0.0,0.0,0.0,0.0,0.0,0.0,0.0,0.0,0.0,0.0,0.0,0.0,0.0,0.0,0.0,-0.7471,-0.7344,0.0,0.0,0.0,0.0,0.0,0.0,0.0,0.0,-0.4988,0.0,0.0,0.0,0.0,0.0,0.0,0.0,0.0,0.0,0.0,0.0,0.0,0.0,0.0,0.0,0.0,0.0,0.0,0.0,0.0,0.0,0.0,0.0,0.0,0.0,0.0,0.0,0.0,0.0,0.0,0.0,0.0,0.0,0.0,0.0,0.0,0.0,0.0,0.0,0.0,0.0,0.0,0.0,0.0,0.0,0.0,0.0,0.0,0.0,0.0,0.0,0.0,0.0,0.0,0.0,-1.7266,-1.8652,-1.9961,-2.1231,-2.123,-2.1093,-2.0849,-1.8507,-1.651,0.0,0.0,0.0,0.0,0.0,0.0,0.0,0.0,0.0,0.0,0.0,0.0,0.0,0.0,0.0,0.0,0.0,0.0,0.0,0.0,0.0,0.0,0.0,0.0,0.0,0.0,0.0,0.0,0.0,0.0,0.0,0.0,0.0,0.0,0.0,0.0,0.0,0.0,0.0,0.0,-0.8506,-0.8475,-0.8487,0.0,0.0,0.0,0.0,0.0,0.0,-0.5566,-0.5311,0.0,0.0,0.0,0.0,0.0,0.0,0.0,0.0,0.0,0.0,0.0,0.0,0.0,0.0,0.0,0.0,0.0,0.0,0.0,0.0,0.0,0.0,0.0,0.0,0.0,0.0,0.0,0.0,0.0,0.0,0.0,0.0,0.0,0.0,0.0,0.0,0.0,0.0,0.0,0.0,0.0,0.0,0.0,0.0,0.0,0.0,0.0,0.0,0.0,0.0,0.0,0.0,0.0,0.0,0.0,-1.6939,-1.9291,-2.1017,-2.1899,-2.1712,-2.1416,-2.1171,-1.8704,-1.6678,0.0,0.0,0.0,0.0,0.0,0.0,0.0,0.0,0.0,0.0,0.0,0.0,0.0,0.0,0.0,0.0,0.0,0.0,0.0,0.0,0.0,0.0,0.0,0.0,0.0,0.0,0.0,0.0,0.0,0.0,0.0,0.0,0.0,0.0,0.0,0.0,0.0,0.0,0.0,0.0,0.0,-0.9714,-0.9649,-0.9144,0.0,0.0,0.0,0.0,-0.6783,-0.6712,0.0,0.0,0.0,0.0,0.0,0.0,0.0,0.0,0.0,0.0,0.0,0.0,0.0,0.0,0.0,0.0,0.0,0.0,0.0,0.0,0.0,0.0,0.0,0.0,0.0,0.0,0.0,0.0,0.0,0.0,0.0,0.0,0.0,0.0,0.0,0.0,0.0,0.0,0.0,0.0,0.0,0.0,0.0,0.0,0.0,0.0,0.0,0.0,0.0,0.0,0.0,0.0,0.0,0.0,0.0,0.0,-1.7548,-1.9406,-2.0926,-2.2104,-2.2542,-2.2219,-2.122,-1.9773,-1.7806,0.0,0.0,0.0,0.0,0.0,0.0,0.0,0.0,0.0,0.0,0.0,0.0,0.0,0.0,0.0,0.0,0.0,0.0,0.0,0.0,0.0,0.0,0.0,0.0,0.0,0.0,0.0,0.0,0.0,0.0,0.0,0.0,0.0,0.0,0.0,0.0,0.0,0.0,0.0,0.0,0.0,-1.1028,-0.9543,-0.9569,-0.9463,0.0,0.0,-0.9205,-0.9414,-0.9622,0.0,0.0,0.0,0.0,0.0,0.0,0.0,0.0,0.0,0.0,0.0,0.0,0.0,0.0,0.0,0.0,0.0,0.0,0.0,0.0,0.0,0.0,0.0,0.0,0.0,0.0,0.0,0.0,0.0,0.0,0.0,0.0,0.0,0.0,0.0,0.0,0.0,0.0,0.0,0.0,0.0,0.0,0.0,0.0,0.0,0.0,0.0,0.0,0.0,0.0,0.0,0.0,0.0,0.0,0.0,-1.587,-1.8068,-2.0147,-2.1787,-2.2889,-2.2761,-2.231,-2.1621,-1.988,-1.7623,0.0,0.0,0.0,0.0,0.0,0.0,0.0,0.0,0.0,0.0,0.0,0.0,0.0,0.0,0.0,0.0,0.0,0.0,0.0,0.0,0.0,0.0,0.0,0.0,0.0,0.0,0.0,0.0,0.0,0.0,0.0,0.0,0.0,0.0,0.0,0.0,0.0,0.0,0.0,0.0,0.0,0.0,-1.0989,-1.1081,0.0,0.0,0.0,-1.0647,-1.0332,0.0,0.0,0.0,0.0,0.0,0.0,0.0,0.0,0.0,0.0,0.0,0.0,0.0,0.0,0.0,0.0,0.0,0.0,0.0,0.0,0.0,0.0,0.0,0.0,0.0,0.0,0.0,0.0,0.0,0.0,0.0,0.0,0.0,0.0,0.0,0.0,0.0,0.0,0.0,0.0,0.0,0.0,0.0,0.0,0.0,0.0,0.0,0.0,0.0,0.0,0.0,0.0,0.0,0.0,0.0,0.0,0.0,-1.8502,-2.0915,-2.2589,-2.3541,-2.309,-2.2549,-2.1916,-2.0078,0.0,0.0,0.0,0.0,0.0,0.0,0.0,0.0,0.0,0.0,0.0,0.0,0.0,0.0,0.0,0.0,0.0,0.0,0.0,0.0,0.0,0.0,0.0,0.0,0.0,0.0,0.0,-0.5001,0.0,0.0,0.0,0.0,0.0,0.0,0.0,0.0,0.0,0.0,0.0,0.0,0.0,0.0,-1.1799,-1.222,-1.2497,-1.2606,0.0,0.0,-1.2126,-1.1514,-1.1443,-1.0834,0.0,0.0,0.0,0.0,0.0,0.0,0.0,0.0,0.0,0.0,0.0,0.0,0.0,0.0,0.0,0.0,0.0,0.0,0.0,0.0,0.0,0.0,0.0,0.0,0.0,0.0,0.0,0.0,0.0,0.0,0.0,0.0,0.0,0.0,0.0,0.0,0.0,0.0,0.0,0.0,0.0,0.0,0.0,0.0,0.0,0.0,0.0,0.0,0.0,0.0,0.0,0.0,0.0,0.0,0.0,-1.8882,-2.1492,-2.3132,-2.3757,-2.3724,-2.3143,-2.1946,-2.0947,-1.8827,0.0,0.0,0.0,0.0,0.0,0.0,0.0,0.0,0.0,0.0,0.0,0.0,0.0,0.0,0.0,0.0,0.0,0.0,0.0,0.0,0.0,0.0,0.0,0.0,0.0,0.0,0.0,0.0,0.0,0.0,0.0,0.0,0.0,0.0,0.0,0.0,0.0,0.0,0.0,0.0,0.0,-1.2573,-1.248,-1.3224,-1.3779,0.0,0.0,-1.3744,-1.3666,-1.3904,-1.3243,-1.049,0.0,0.0,0.0,0.0,0.0,0.0,0.0,0.0,0.0,0.0,0.0,0.0,0.0,0.0,0.0,0.0,0.0,0.0,0.0,0.0,0.0,0.0,0.0,0.0,0.0,0.0,0.0,0.0,0.0,0.0,0.0,0.0,0.0,0.0,0.0,0.0,0.0,0.0,0.0,0.0,0.0,0.0,0.0,0.0,0.0,0.0,0.0,0.0,0.0,0.0,0.0,0.0,0.0,-1.7409,-1.9329,-2.1812,-2.3321,-2.3767,-2.3667,-2.3216,-2.2285,-2.1202,-1.9095,0.0,0.0,0.0,0.0,0.0,0.0,0.0,0.0,0.0,0.0,0.0,0.0,0.0,0.0,0.0,0.0,0.0,0.0,0.0,0.0,0.0,0.0,0.0,0.0,0.0,0.0,0.0,0.0,-0.7066,-0.748,-0.768,0.0,0.0,0.0,0.0,0.0,0.0,0.0,0.0,0.0,0.0,-1.3544,-1.4038,-1.4586,0.0,0.0,-1.4771,-1.4561,-1.4432,-1.3903,-1.3034,-1.1675,-1.0361,0.0,0.0,0.0,0.0,0.0,0.0,0.0,0.0,0.0,0.0,0.0,0.0,0.0,0.0,0.0,0.0,0.0,0.0,0.0,0.0,0.0,0.0,0.0,0.0,0.0,0.0,0.0,0.0,0.0,0.0,0.0,0.0,0.0,0.0,0.0,0.0,0.0,0.0,0.0,0.0,0.0,0.0,0.0,0.0,0.0,0.0,0.0,0.0,0.0,0.0,0.0,0.0,-1.7717,-1.9634,-2.2155,-2.3535,-2.3787,-2.3667,-2.3252,-2.25,-2.1377,-1.944,0.0,0.0,0.0,0.0,0.0,0.0,0.0,0.0,0.0,0.0,0.0,0.0,0.0,0.0,0.0,0.0,0.0,0.0,0.0,0.0,0.0,0.0,0.0,0.0,0.0,0.0,0.0,0.0,-0.8037,-0.8309,-0.807,0.0,0.0,0.0,0.0,0.0,0.0,0.0,0.0,0.0,0.0,-1.4245,-1.5222,-1.5547,-1.5691,-1.5691,-1.5303,-1.4988,-1.4774,-1.4037,-1.3236,-1.2507,0.0,0.0,0.0,0.0,0.0,0.0,0.0,0.0,0.0,0.0,0.0,0.0,0.0,0.0,0.0,0.0,0.0,0.0,0.0,0.0,0.0,0.0,0.0,0.0,0.0,0.0,0.0,-1.4273,0.0,0.0,-1.3579,0.0,0.0,0.0,0.0,0.0,0.0,0.0,0.0,0.0,0.0,0.0,0.0,0.0,0.0,0.0,0.0,0.0,0.0,0.0,0.0,0.0,0.0,-1.7926,-1.9803,-2.2501,-2.3884,-2.3831,-2.3797,-2.3381,-2.2529,-2.167,-1.9962,-1.7379,0.0,0.0,0.0,0.0,0.0,0.0,0.0,0.0,0.0,0.0,0.0,0.0,0.0,0.0,0.0,0.0,0.0,0.0,0.0,0.0,0.0,0.0,0.0,0.0,0.0,0.0,-0.815,-0.8202,-0.8099,0.0,0.0,0.0,0.0,0.0,0.0,0.0,0.0,0.0,0.0,-1.3686,-1.4616,-1.5725,-1.5878,-1.5914,-1.5892,-1.5352,-1.4936,-1.4903,-1.4717,-1.4166,0.0,0.0,0.0,0.0,0.0,0.0,0.0,0.0,0.0,0.0,0.0,0.0,0.0,0.0,0.0,0.0,0.0,0.0,0.0,0.0,0.0,0.0,0.0,0.0,0.0,0.0,0.0,-1.6386,-1.6066,0.0,0.0,0.0,0.0,0.0,0.0,0.0,0.0,0.0,0.0,0.0,-1.9517,-2.0127,0.0,0.0,0.0,0.0,0.0,0.0,0.0,0.0,0.0,0.0,0.0,0.0,-1.8682,-2.0255,-2.2925,-2.4214,-2.4057,-2.4067,-2.378,-2.3189,-2.2063,-1.9774,-1.6192,0.0,0.0,0.0,0.0,0.0,0.0,0.0,0.0,0.0,0.0,0.0,0.0,0.0,0.0,0.0,0.0,0.0,0.0,0.0,0.0,0.0,0.0,0.0,0.0,0.0,-0.851,0.0,0.0,0.0,0.0,0.0,0.0,0.0,0.0,0.0,0.0,0.0,-1.2769,-1.3558,-1.482,-1.5805,-1.617,-1.6579,-1.6777,0.0,0.0,0.0,0.0,0.0,0.0,0.0,0.0,0.0,0.0,0.0,0.0,0.0,0.0,-0.8757,-0.7391,-0.6467,-0.5951,-0.6069,0.0,0.0,0.0,0.0,0.0,0.0,0.0,0.0,0.0,0.0,0.0,0.0,0.0,0.0,-1.8556,0.0,-1.7647,0.0,0.0,0.0,0.0,0.0,0.0,0.0,0.0,-2.071,-2.158,-2.1831,-2.2315,-2.1973,0.0,-2.0684,-1.9096,0.0,0.0,0.0,0.0,0.0,0.0,0.0,0.0,-1.9292,-2.0674,-2.3174,-2.4411,-2.4206,-2.4196,-2.3991,-2.3484,-2.2025,-1.9686,-1.6421,-1.4869,-1.3321,0.0,0.0,0.0,0.0,0.0,0.0,0.0,0.0,0.0,0.0,0.0,0.0,0.0,0.0,0.0,0.0,0.0,0.0,0.0,0.0,0.0,0.0,0.0,-0.9102,0.0,0.0,0.0,0.0,0.0,0.0,0.0,0.0,0.0,-1.1443,-1.2826,-1.4077,-1.4728,-1.5854,-1.6579,-1.6689,0.0,0.0,0.0,0.0,0.0,0.0,0.0,-1.4598,-1.4902,-1.446,-1.3894,-1.3486,-1.3387,-1.3243,-1.2787,0.0,0.0,-0.8965,-0.7686,-0.6947,-0.7008,-0.711,-0.7233,-0.7416,-0.7694,-0.7902,0.0,0.0,0.0,0.0,0.0,0.0,0.0,0.0,-2.0824,-2.0798,0.0,-1.9789,0.0,0.0,0.0,0.0,-1.7915,-1.9569,0.0,0.0,-2.3598,-2.4507,-2.4476,-2.4126,-2.3732,-2.3267,-2.3194,-2.2242,-2.0354,-1.7864,0.0,0.0,0.0,0.0,0.0,0.0,-1.9789,-2.1145,-2.334,-2.4411,-2.4206,-2.4196,-2.396,-2.3448,-2.1646,-1.9795,-1.8105,-1.6787,-1.5206,-1.3183,-1.1874,0.0,0.0,0.0,0.0,0.0,0.0,0.0,0.0,0.0,0.0,0.0,0.0,0.0,0.0,0.0,0.0,0.0,0.0,0.0,0.0,-0.9438,0.0,0.0,0.0,0.0,0.0,0.0,0.0,0.0,0.0,0.0,-1.3148,-1.3945,-1.5025,-1.6228,0.0,0.0,0.0,0.0,-1.6917,-1.6917,-1.6345,-1.5957,-1.595,-1.5913,-1.5754,-1.5491,0.0,0.0,-1.4647,-1.5319,-1.5646,-1.4676,-1.4169,-1.3353,-1.1166,-0.9446,-0.844,-0.851,-0.8223,-0.8113,-0.8284,-0.849,-0.8624,-2.4705,0.0,0.0,0.0,0.0,-2.2967,-2.3888,-2.542,-2.4322,-2.3701,-2.3433,-2.2118,0.0,0.0,0.0,0.0,0.0,0.0,-2.2087,-2.3298,-2.4115,-2.4828,-2.5482,-2.5368,-2.5078,-2.4643,-2.427,-2.3557,-2.2377,-2.128,-1.9065,-1.5894,0.0,0.0,0.0,0.0,-2.0886,-2.1673,-2.3505,-2.4454,-2.4411,-2.4292,-2.3687,-2.2591,-2.1577,-2.0371,-1.8965,-1.7978,-1.6765,-1.5255,-1.3771,0.0,0.0,0.0,0.0,0.0,0.0,0.0,0.0,0.0,0.0,0.0,0.0,0.0,0.0,0.0,0.0,0.0,0.0,0.0,-0.8787,-0.9321,-0.9705,0.0,0.0,0.0,0.0,0.0,0.0,0.0,0.0,0.0,-1.5006,-1.5511,-1.6,0.0,0.0,-1.7143,-1.7057,-1.7106,-1.7194,-1.7194,-1.685,0.0,-1.6624,-1.6206,-1.6038,-1.6389,-1.6701,-1.6822,-1.6509,-1.6605,-1.6621,-1.6283,-1.5384,-1.4468,-1.3808,-1.1592,-0.9691,-0.8946,-0.8658,-0.8694,-0.8978,-0.9143,-0.9212,-2.8059,-2.649,-2.4945,-2.4674,-2.5326,-2.5254,-2.6148,-2.7479,-2.6651,-2.6202,-2.6026,-2.4705,-2.3308,-2.188,-2.0876,0.0,0.0,0.0,-2.3629,-2.5008,-2.5223,-2.573,-2.6438,-2.6293,-2.602,-2.574,-2.5075,-2.4487,-2.3991,-2.335,-2.1621,-1.8889,0.0,0.0,-1.834,-2.0524,-2.1901,-2.2397,-2.3753,-2.4507,-2.4507,-2.4196,-2.3513,-2.2409,-2.1794,-2.0879,-1.959,-1.9043,-1.8164,-1.6885,-1.5613,-1.3971,0.0,0.0,0.0,0.0,0.0,0.0,0.0,0.0,0.0,0.0,0.0,-0.7319,0.0,0.0,0.0,0.0,-0.8743,-0.9387,-0.9965,-1.0332,0.0,0.0,0.0,0.0,0.0,0.0,0.0,-1.4121,-1.4973,-1.567,-1.6213,-1.6667,-1.6894,-1.6769,-1.7084,-1.7304,-1.7238,0.0,-1.7567,-1.7651,-1.7552,-1.7431,-1.7252,-1.6916,-1.6762,-1.6996,-1.7186,-1.7279,-1.7286,-1.72,-1.7113,-1.7019,-1.6393,-1.5669,-1.5229,-1.3491,-1.1728,-1.0199,-0.9465,-0.9218,-0.9429,-0.951,-0.9498,-3.077,-3.0481,-2.7541,-2.6604,-2.6931,-2.7403,-2.7779,-2.8183,-2.8072,-2.8278,-2.8618,-2.7282,-2.6206,-2.5295,-2.3629,0.0,-2.4766,-2.4766,-2.5502,-2.676,-2.6739,-2.6946,-2.733,-2.6884,-2.6656,-2.6594,-2.573,-2.5282,-2.5189,-2.4395,-2.3557,-2.2718,-2.1828,-2.1311,-2.1217,-2.2128,-2.2822,-2.3246,-2.4053,-2.4497,-2.4454,-2.4013,-2.3386,-2.2573,-2.2132,-2.1269,-1.999,-1.9873,-1.9307,-1.8081,-1.7213,-1.568,-1.338,0.0,0.0,0.0,0.0,0.0,0.0,0.0,0.0,0.0,0.0,0.0,0.0,0.0,0.0,0.0,-1.0021,0.0,-1.1916,-1.2025,0.0,0.0,0.0,-1.2288,-1.2711,-1.3836,-1.4794,-1.5431,0.0,0.0,-1.6969,-1.745,-1.7665,-1.7395,-1.7406,-1.7468,-1.7816,-1.7845,-1.7962,-1.8225,-1.8284,-1.8189,-1.7867,-1.7757,-1.7596,-1.7301,-1.7286,-1.7286,-1.7286,-1.7286,-1.7286,-1.7286,-1.7153,-1.673,-1.5744,-1.519,-1.4364,-1.2297,-1.0912,-0.9948,-0.9854,-0.9854,-0.9809,-3.1526,-3.1153,-3.0441,-2.9932,-2.9725,-2.9829,-3.0129,-3.0491,-2.9818,-2.9559,-2.957,-2.8204,-2.7293,-2.6755,-2.6366,-2.6486,-2.707,-2.7117,-2.7479,-2.8079,-2.7769,-2.7665,-2.7738,-2.7351,-2.6957,-2.6615,-2.6407,-2.6061,-2.5709,-2.5171,-2.4755,-2.456,-2.397,-2.2988,-2.1745,-2.2904,-2.3608,-2.3753,-2.4218,-2.4325,-2.397,-2.3841,-2.3258,-2.207,-2.1967,-2.1269,-1.9971,-1.96,-1.9141,-1.8481,-1.7686,-1.668,-1.541,-1.3284,0.0,0.0,0.0,0.0,0.0,0.0,0.0,0.0,0.0,-0.9336,-0.7698,0.0,-1.0249,0.0,-1.1304,-1.2025,-1.2003,-1.2222,0.0,0.0,-1.3448,-1.3667,-1.4915,-1.5167,-1.5445,-1.6074,-1.6609,-1.7094,-1.7523,-1.7721,-1.7882,-1.8035,-1.8072,-1.8101,-1.8182,-1.8182,-1.8211,-1.8291,-1.8328,-1.8277,-1.8196,-1.7977,-1.7713,-1.733,-1.7293,-1.7286,-1.7286,-1.7286,-1.7286,-1.7286,-1.7286,-1.7099,-1.685,-1.6028,-1.5216,-1.4543,-1.3488,-1.228,-1.1317,-1.113,-1.0788,-3.2199,-3.1981,-3.1981,-3.1826,-3.1557,-3.1174,-3.1143,-3.1329,-3.0833,-3.0491,-3.0232,-2.9052,-2.8286,-2.7872,-2.7862,-2.7986,-2.8224,-2.8224,-2.8369,-2.8587,-2.8131,-2.7875,-2.7903,-2.7469,-2.7175,-2.6926,-2.6926,-2.6687,-2.6231,-2.573,-2.543,-2.5179,-2.4724,-2.3991,-2.3061,-2.3795,-2.4167,-2.4178,-2.4373,-2.4358,-2.41,-2.3745,-2.3,-2.1947,-2.1704,-2.0977,-1.9687,-1.959,-1.9199,-1.8373,-1.791,-1.7178,-1.6134,-1.4607,-1.3181,0.0,0.0,0.0,0.0,0.0,0.0,0.0,0.0,0.0,0.0,0.0,-1.1239,-1.1626,-1.2577,-1.3272,-1.3484,-1.3798,-1.4326,-1.5035,-1.4911,-1.5138,-1.6023,-1.6082,-1.625,-1.674,-1.7077,-1.7421,-1.7772,-1.8072,-1.8313,-1.8496,-1.8642,-1.8686,-1.8547,-1.8518,-1.8569,-1.8708,-1.8738,-1.8679,-1.8547,-1.8247,-1.7977,-1.7746,-1.7592,-1.7545,-1.7538,-1.7421,-1.7286,-1.7286,-1.7286,-1.7286,-1.7286,-1.6803,-1.6271,-1.6129,-1.569,-1.4441,-1.2382,-1.1668,-1.114,-3.2669,-3.2669,-3.2669,-3.2669,-3.2618,-3.1888,-3.1557,-3.1547,-3.1485,-3.1164,-3.0636,-2.9829,-2.9228,-2.8794,-2.8794,-2.8783,-2.8794,-2.8783,-2.8794,-2.8763,-2.8255,-2.8017,-2.7986,-2.75,-2.732,-2.732,-2.732,-2.7092,-2.6651,-2.6134,-2.5689,-2.5261,-2.4745,-2.4507,-2.4507,-2.4507,-2.4507,-2.4507,-2.4507,-2.4497,-2.4454,-2.3734,-2.2886,-2.198,-2.1481,-2.0625,-1.9402,-1.9639,-1.9297,-1.8139,-1.8086,-1.7568,-1.6486,-1.585,-1.4993,0.0,-1.3408,0.0,0.0,0.0,0.0,0.0,0.0,0.0,0.0,-1.1775,-1.2428,-1.3156,-1.3887,-1.4618,-1.5382,-1.5782,-1.5994,-1.6038,-1.6272,-1.6492,-1.6536,-1.6829,-1.7084,-1.7308,-1.7677,-1.7841,-1.7984,-1.8452,-1.8789,-1.8855,-1.906,-1.9118,-1.8913,-1.8855,-1.8942,-1.9242,-1.9272,-1.9096,-1.8811,-1.854,-1.835,-1.8284,-1.8057,-1.786,-1.7808,-1.7589,-1.7337,-1.7301,-1.7286,-1.7286,-1.7286,-1.7286,-1.7286,-1.7185,-1.7037,-1.5988,-1.3536,-1.2296,-1.1531,-3.2669,-3.2669,-3.2669,-3.2669,-3.2659,-3.254,-3.2478,-3.2447,-3.2029,-3.1443,-3.0688,-3.0501,-3.016,-2.9746,-2.9735,-2.9725,-2.9735,-2.9725,-2.9725,-2.9704,-2.8876,-2.8483,-2.8431,-2.7634,-2.732,-2.732,-2.732,-2.7268,-2.7154,-2.6335,-2.5889,-2.574,-2.4943,-2.4507,-2.4507,0.0,0.0,0.0,-2.4507,-2.4421,-2.4249,-2.4082,-2.3434,-2.2187,-2.1769,0.0,-1.9412,-1.9402,-1.9131,-1.852,-1.8481,0.0,0.0,0.0,0.0,0.0,0.0,0.0,0.0,0.0,0.0,0.0,-1.3254,-1.2621,-1.2321,-1.3748,-1.4623,-1.4572,-1.5394,-1.5884,-1.5833,-1.6104,-1.6396,-1.669,-1.6778,-1.691,-1.7113,-1.7435,-1.7662,-1.7721,-1.8013,-1.8313,-1.8547,-1.8723,-1.8891,-1.9125,-1.9235,-1.925,-1.9191,-1.9162,-1.9199,-1.9264,-1.9272,-1.9155,-1.884,-1.8745,-1.8613,-1.8379,-1.8262,-1.8108,-1.7889,-1.7779,-1.7563,-1.7352,-1.7286,-1.7286,-1.7286,-1.7286,-1.7286,-1.7286,-1.6857,-1.6089,-1.5019,-1.4214,-1.3307,-3.2669,-3.2669,-3.2669,-3.2669,0.0,-3.2669,-3.2669,-3.2649,-3.2421,-3.1868,-3.1008,-3.0791,-3.0429,-2.9994,-2.9994,-2.9994,-2.9994,-2.9994,-2.9994,-2.9942,-2.9042,-2.8618,-2.8576,-2.7734,-2.732,-2.732,-2.732,-2.732,-2.7258,-2.6376,-2.593,-2.5865,-2.4985,-2.4507,-2.4507,-2.4507,-2.4507,-2.4507,-2.4507,-2.4454,-2.4315,-2.3939,-2.319,-2.21,-2.1619,0.0,0.0,0.0,0.0,0.0,0.0,0.0,0.0,0.0,0.0,-1.7095,-1.7012,-1.6659,-1.5938,-1.6136,-1.6391,-1.6519,-1.6416,-1.5678,-1.4079,-1.4973,-1.5688,-1.5884,-1.6338,-1.6661,-1.6578,-1.6762,-1.6974,-1.7282,-1.7326,-1.7457,-1.7757,-1.7955,-1.8057,-1.8086,-1.8343,-1.8613,-1.8767,-1.8942,-1.9081,-1.9242,-1.9272,-1.9272,-1.9272,-1.9272,-1.9272,-1.9272,-1.9272,-1.928,-1.9067,-1.9023,-1.8986,-1.8811,-1.865,-1.8423,-1.8116,-1.7918,-1.7706,-1.7359,-1.7286,-1.7286,-1.7286,-1.7286,-1.7286,-1.7286,-1.6998,-1.6662,-1.6318,-1.5466,-1.4459,-3.2669,-3.2669,-3.2669,-3.2669,-3.2669,-3.2669,-3.2669,-3.2669,-3.2669,0.0,0.0,-3.0977,-3.0512,-3.0005,-2.9994,-2.9994,-2.9994,-2.9994,-2.9994,-2.9953,-2.9042,-2.8618,-2.8576,-2.7734,-2.732,-2.732,-2.732,-2.732,-2.7278,-2.6403,-2.6003,-2.5813,-2.5057,-2.458,-2.4507,-2.4507,-2.4507,-2.4507,-2.4507,-2.4507,-2.4487,-2.3796,-2.304,-2.2221,-2.162,-2.0762,-1.9644,-1.9766,-1.9434,-1.8393,-1.8637,-1.874,-1.8486,-1.8685,-1.9017,-1.9482,-1.9834,-1.9717,-1.9053,-1.9279,-1.9168,-1.8344,-1.888,-1.8349,-1.63,-1.6316,-1.6639,-1.7205,-1.7075,-1.7069,-1.7377,-1.7413,-1.7498,-1.7867,-1.7904,-1.8006,-1.8255,-1.8364,-1.8394,-1.8423,-1.8672,-1.8877,-1.8899,-1.9103,-1.9272,-1.9272,-1.9272,-1.9272,-1.9272,-1.9272,-1.9272,-1.9272,-1.9272,-1.9272,-1.9272,-1.9257,-1.9272,-1.922,-1.903,-1.8752,-1.8379,-1.8079,-1.7772,-1.7344,-1.7286,-1.7286,-1.7286,-1.7286,-1.7286,-1.7286,-1.7286,-1.7286,-1.7192,-1.6332,-1.5425,-3.2669,-3.2669,-3.2669,-3.2669,-3.2669,-3.2669,-3.2669,-3.2669,-3.2669,-3.2219,-3.1371,-3.1309,-3.0801,-2.9994,-2.9994,-2.9994,-2.9994,-2.9994,-2.9994,-2.9953,-2.9042,-2.8618,-2.8566,-2.7724,-2.732,-2.732,-2.732,-2.732,-2.7247,-2.6781,-2.6324,-2.5865,-2.5378,-2.489,-2.4538,-2.4507,-2.4507,-2.4507,-2.4507,-2.4507,-2.4507,-2.4392,-2.3987,-2.3287,-2.2322,-2.146,-2.0718,-2.0202,-1.9834,-1.9658,-1.9697,-1.9873,-2.0214,-1.9902,-1.9932,-2.0342,-2.0478,-2.0273,-1.9817,-1.981,-1.9386,-1.8433,-1.8685,-1.8921,-1.9163,-1.8681,-1.843,-1.8487,-1.771,-1.7391,-1.7699,-1.7743,-1.7874,-1.8182,-1.8233,-1.8262,-1.8335,-1.8569,-1.8723,-1.873,-1.9008,-1.9199,-1.9184,-1.9235,-1.9272,-1.9272,-1.9272,-1.9272,-1.9272,-1.9272,-1.9272,-1.9272,-1.9272,-1.9272,-1.9272,-1.9272,-1.9272,-1.9272,-1.9235,-1.8972,-1.8394,-1.8247,-1.7984,-1.7381,-1.7286,-1.7286,-1.7286,-1.7286,-1.7286,-1.7286,-1.7286,-1.7286,-1.7286,-1.6998,-1.6567,-3.2669,-3.2669,-3.2669,-3.2669,-3.2669,-3.2669,-3.2669,-3.2669,-3.2669,-3.2219,-3.1422,-3.1381,-3.0864,-3.0025,-2.9994,-2.9994,-2.9994,-2.9994,-2.9994,-2.9942,-2.9301,-2.8856,-2.8566,-2.7945,-2.7489,-2.733,-2.732,-2.732,-2.7268,-2.6843,-2.6511,-2.6262,-2.5575,-2.4952,-2.4528,-2.4507,-2.4507,-2.4507,-2.4507,-2.4454,-2.4325,-2.4196,-2.3811,-2.3207,-2.2692,-2.2128,-2.145,-2.1243,-2.0997,-2.0596,-2.0859,-2.0977,-2.0928,-2.0967,-2.1074,-2.1319,-2.1494,-2.1545,-2.1303,-2.1522,-2.1422,-2.0978,-2.1042,-2.1356,-2.1928,-1.953,-1.8017,-1.7971,-1.7715,-1.7655,-1.7808,-1.7969,-1.8211,-1.8525,-1.8562,-1.8642,-1.8803,-1.895,-1.9052,-1.9067,-1.9177,-1.9272,-1.9272,-1.9272,-1.9272,-1.9272,-1.9272,-1.9272,-1.9272,-1.9272,-1.9272,-1.9272,-1.9272,-1.9272,-1.9272,-1.9272,-1.9272,-1.9272,-1.9272,-1.9001,-1.8452,-1.8299,-1.8021,-1.7432,-1.7286,-1.7286,-1.7286,-1.7286,-1.7286,-1.7286,-1.7286,-1.7286,-1.7286,-1.7286,-1.7091,-3.2669,-3.2669,-3.2669,-3.2669,-3.2669,-3.2669,-3.2669,-3.2669,-3.2669,-3.2271,-3.1567,-3.1422,-3.0915,-3.0191,-3.0046,-2.9994,-2.9994,-2.9994,-2.9994,-2.9953,-2.9518,-2.9063,-2.8597,-2.8142,-2.7696,-2.7361,-2.732,-2.732,-2.7268,-2.6936,-2.6656,-2.6407,-2.5616,-2.4952,-2.4518,-2.4507,-2.4507,-2.4507,-2.4507,-2.4411,-2.4239,-2.4024,-2.369,-2.326,-2.2993,-2.2658,-2.2166,-2.214,-2.1883,-2.1426,-2.1709,-2.1777,-2.1522,-2.1836,-2.207,-2.2178,-2.2471,-2.2613,-2.2623,-2.2916,-2.3003,-2.2784,-2.2861,-2.2964,-2.2826,-2.0201,-1.8238,-1.8214,-1.8115,-1.7955,-1.8072,-1.8255,-1.8547,-1.8847,-1.8899,-1.8986,-1.922,-1.9272,-1.9272,-1.9272,-1.9272,-1.9272,-1.9272,-1.9272,-1.9272,-1.9272,-1.9272,-1.9272,-1.9272,-1.9272,-1.9272,-1.9272,-1.9272,-1.9272,-1.9272,-1.9272,-1.9272,-1.9272,-1.9272,-1.8979,-1.8511,-1.8299,-1.8043,-1.7508,-1.7286,-1.7286,-1.7286,-1.7286,-1.7286,-1.7286,-1.7286,-1.7355,-1.741,-1.7417,-1.7359,-3.2669,-3.2669,-3.2669,-3.2669,-3.2669,-3.2669,-3.2669,-3.2669,-3.2669,-3.2401,-3.1971,-3.1557,-3.1102,-3.0605,-3.018,-2.9994,-2.9994,-2.9994,-2.9994,-2.9953,-2.9518,-2.9063,-2.8628,-2.8142,-2.7686,-2.7372,-2.732,-2.732,-2.7309,-2.7258,-2.6822,-2.5989,-2.5471,-2.4972,-2.4569,-2.4507,-2.4507,-2.4507,-2.4507,-2.4497,-2.4454,-2.4292,-2.4133,-2.4102,-2.3323,-2.2901,-2.2757,-2.2266,-2.1916,-2.1836,-2.1885,-2.2051,-2.2344,-2.2432,-2.2617,-2.2969,-2.3003,-2.3033,-2.3033,-2.3071,-2.2784,-2.1989,-2.2215,-2.2108,-2.1499,-2.1182,-2.106,-2.0704,-1.9295,-1.852,-1.8657,-1.8716,-1.8869,-1.9133,-1.9199,-1.9242,-1.9264,-1.9272,-1.9272,-1.9272,-1.9272,-1.9272,-1.9272,-1.9272,-1.9272,-1.9272,-1.9272,-1.9272,-1.9272,-1.9272,-1.9272,-1.9272,-1.9272,-1.9272,-1.9272,-1.9272,-1.9272,-1.9272,-1.9272,-1.9001,-1.8569,-1.8299,-1.8094,-1.7596,-1.7286,-1.7286,-1.7286,-1.7286,-1.7308,-1.7413,-1.7381,-1.7403,-1.7677,-1.7772,-1.7684,-3.2669,-3.2669,-3.2669,-3.2669,-3.2669,-3.2669,-3.2669,-3.2669,-3.2669,-3.2623,-3.2364,-3.1692,-3.1122,-3.0657,-3.0201,-2.9994,-2.9994,-2.9994,-2.9994,-2.9984,-2.9798,-2.9477,-2.9011,-2.8545,-2.81,-2.7645,-2.7434,-2.732,-2.732,-2.732,-2.6967,-2.6345,-2.5844,-2.5388,-2.4921,-2.4631,-2.4507,-2.4507,-2.4507,-2.4507,-2.4454,-2.4153,-2.3894,-2.3744,-2.3411,-2.3193,-2.3054,-2.2886,-2.2755,-2.2627,-2.2584,-2.2705,-2.2828,-2.2838,-2.2906,-2.3081,-2.3101,-2.3101,-2.3101,-2.3101,-2.3076,-2.2952,-2.2481,-2.2529,-2.3195,-2.1803,-2.1048,-2.1724,-2.0513,-1.9387,-1.8934,-1.8957,-1.914,-1.925,-1.9272,-1.9272,-1.9272,-1.9272,-1.9272,-1.9272,-1.9272,-1.9272,-1.9272,-1.9272,-1.9272,-1.9272,-1.9272,-1.9272,-1.9272,-1.9272,-1.9272,-1.9272,-1.9272,-1.9272,-1.9272,-1.9272,-1.9272,-1.9272,-1.9272,-1.9074,-1.8723,-1.8401,-1.8138,-1.7636,-1.7417,-1.7293,-1.7286,-1.7516,-1.7618,-1.764,-1.7823,-1.7955,-1.8086,-1.8108,-1.8028,-3.2669,-3.2669,-3.2669,-3.2669,-3.2669,-3.2669,-3.2669,-3.2669,-3.2669,-3.2669,-3.2576,-3.1774,-3.1195,-3.0822,-3.0263,-2.9994,-2.9994,-2.9994,-2.9994,-2.9994,-2.9994,-2.9684,-2.9125,-2.8783,-2.8307,-2.7769,-2.7455,-2.732,-2.732,-2.732,-2.7071,-2.6615,-2.6148,-2.5668,-2.5189,-2.4735,-2.4507,-2.4507,-2.4507,-2.4507,-2.4454,-2.41,-2.3807,-2.358,-2.3547,-2.3373,-2.3101,-2.3276,-2.3319,-2.3091,-2.3101,-2.3101,-2.3101,-2.3101,-2.3101,-2.3101,-2.3101,-2.3101,-2.3101,-2.3101,-2.3286,-2.3686,-2.3133,-2.328,-2.3975,-2.2553,-2.1545,-2.1745,-2.1093,-2.0058,-1.9147,-1.9184,-1.9264,-1.9272,-1.9272,-1.9272,-1.9272,-1.9272,-1.9272,-1.9272,-1.9272,-1.9272,-1.9272,-1.9272,-1.9272,-1.9272,-1.9272,-1.9272,-1.9272,-1.9272,-1.9272,-1.9272,-1.9272,-1.9272,-1.9272,-1.9272,-1.9272,-1.9272,-1.9272,-1.9162,-1.8862,-1.8555,-1.8225,-1.783,-1.7498,-1.7388,-1.7516,-1.7706,-1.7904,-1.7991,-1.8189,-1.8416,-1.8438,-1.8438,-1.8438,-3.2669,-3.2669,-3.2669,-3.2669,-3.2669,-3.2669,-3.2669,-3.2669,-3.2669,-3.2669,-3.2556,-3.1795,-3.1371,-3.1311,-3.0419,-2.9994,-2.9994,-2.9994,-2.9994,-2.9994,-2.9994,-2.9518,-2.868,-2.8607,-2.8162,-2.7496,-2.7361,-2.732,-2.732,-2.7309,-2.7071,-2.6625,-2.619,-2.5689,-2.5295,-2.4786,-2.4518,-2.4549,-2.4518,-2.4507,-2.4507,-2.4292,-2.4067,-2.3797,-2.358,-2.3363,-2.3144,-2.3101,-2.3091,-2.3101,-2.3101,-2.3101,-2.3101,-2.3101,-2.3101,-2.3101,-2.3101,-2.3101,-2.312,-2.314,-2.3379,-2.3799,-2.3961,-2.4058,-2.376,-2.343,-2.2624,-2.1183,-2.0896,-2.0274,-1.942,-1.9242,-1.9272,-1.9272,-1.9272,-1.9272,-1.9272,-1.9272,-1.9272,-1.9272,-1.9272,-1.9272,-1.9272,-1.9272,-1.9272,-1.9272,-1.9272,-1.9272,-1.9272,-1.9272,-1.9272,-1.9272,-1.9272,-1.9272,-1.9272,-1.9272,-1.9272,-1.9272,-1.9242,-1.9184,-1.8921,-1.8635,-1.8299,-1.7977,-1.764,-1.7545,-1.7721,-1.7896,-1.8072,-1.8262,-1.8555,-1.8738,-1.8767,-1.8767,-1.8767,-3.2669,-3.2669,-3.2669,-3.2669,-3.2669,-3.2669,-3.2669,-3.2669,-3.2669,-3.2669,-3.2566,-3.2075,-3.165,-3.135,-3.0719,-3.0274,-3.0015,-2.9994,-2.9994,-2.9994,-2.9994,-2.9663,-2.9083,-2.8763,-2.8307,-2.7738,-2.7444,-2.732,-2.732,-2.732,-2.7226,-2.7019,-2.6594,-2.6237,-2.5978,-2.5347,-2.4941,-2.491,-2.4662,-2.4507,-2.4507,-2.4411,-2.4196,-2.3841,-2.3624,-2.3363,-2.3101,-2.3101,-2.3101,-2.3101,-2.3101,-2.3101,-2.3101,-2.3101,-2.3101,-2.3101,-2.3101,-2.3218,-2.3506,-2.3545,-2.3877,-2.4475,-2.4107,-2.3916,-2.3648,-2.2815,-2.1684,-2.0987,-2.0233,-1.968,-1.9428,-1.9272,-1.9272,-1.9272,-1.9272,-1.9272,-1.9272,-1.9272,-1.9272,-1.9272,-1.9272,-1.9272,-1.9272,-1.9272,-1.9272,-1.9272,-1.9272,-1.9272,-1.9272,-1.9272,-1.9272,-1.9272,-1.9272,-1.9272,-1.9272,-1.9272,-1.9272,-1.9272,-1.9257,-1.9242,-1.9074,-1.8686,-1.8343,-1.8233,-1.7874,-1.775,-1.7962,-1.8291,-1.8438,-1.8738,-1.9023,-1.9001,-1.9148,-1.903,-1.9045,-3.2669,-3.2669,-3.2669,-3.2669,-3.2669,-3.2669,-3.2669,-3.2669,-3.2669,-3.2669,-3.2587,-3.2194,-3.1785,-3.135,-3.0895,-3.0429,-3.0025,-2.9994,-2.9994,-2.9994,-2.9994,-2.9673,-2.9104,-2.8763,-2.8297,-2.7748,-2.7465,-2.732,-2.732,-2.732,-2.732,-2.7278,-2.6843,-2.6625,-2.649,-2.5813,-2.5388,-2.5158,-2.4869,-2.4673,-2.4538,-2.4507,-2.4325,-2.398,-2.3721,-2.345,-2.3135,-2.3101,-2.3101,-2.3101,-2.3101,-2.3101,-2.3101,-2.3101,-2.3101,-2.3101,-2.2919,-2.3102,-2.366,-2.3589,-2.3919,-2.498,-2.4479,-2.4111,-2.3984,-2.2433,-2.1438,-2.0834,-1.9931,-1.9272,-1.9272,-1.9272,-1.9272,-1.9272,-1.9272,-1.9272,-1.9272,-1.9272,-1.9272,-1.9272,-1.9272,-1.9272,-1.9272,-1.9272,-1.9272,-1.9272,-1.9272,-1.9272,-1.9272,-1.9272,-1.9272,-1.9272,-1.9272,-1.9272,-1.9272,-1.9272,-1.9272,-1.9272,-1.9272,-1.9272,-1.9191,-1.8789,-1.8525,-1.843,-1.8313,-1.8174,-1.8284,-1.8635,-1.8928,-1.9213,-1.9228,-1.9169,-1.922,-1.925,-1.922,-3.2669,-3.2669,-3.2669,-3.2669,-3.2669,-3.2669,-3.2669,-3.2669,-3.2669,-3.2669,-3.2664,-3.2204,-3.1847,-3.136,-3.0946,-3.047,-3.0056,-2.9994,-2.9994,-2.9994,-2.9994,-2.9508,-2.87,-2.8638,-2.8152,-2.7413,-2.732,-2.732,-2.732,-2.732,-2.732,-2.7226,-2.6895,-2.6718,-2.6646,-2.6179,-2.5689,-2.5409,-2.5241,-2.4972,-2.4569,-2.4559,-2.442,-2.4173,-2.3967,-2.3684,-2.3174,-2.311,-2.3101,-2.3101,-2.3101,-2.3101,-2.3101,-2.313,-2.313,-2.3076,-2.264,-2.2847,-2.3651,-2.3381,-2.3796,-2.4859,-2.505,-2.4717,-2.3817,-2.2935,-2.1887,-2.0731,-1.9879,-1.9272,-1.9272,-1.9272,-1.9272,-1.9272,-1.9272,-1.9272,-1.9272,-1.9272,-1.9272,-1.9272,-1.9272,-1.9272,-1.9272,-1.9272,-1.9272,-1.9272,-1.9272,-1.9272,-1.9272,-1.9272,-1.9272,-1.9272,-1.9272,-1.9272,-1.9272,-1.9272,-1.9272,-1.9272,-1.9272,-1.9272,-1.9242,-1.8972,-1.8782,-1.8672,-1.8577,-1.8452,-1.8642,-1.8957,-1.9067,-1.9272,-1.9272,-1.9272,-1.9272,-1.9272,-1.9272,-3.2669,-3.2669,-3.2669,-3.2669,-3.2669,-3.2669,-3.2669,-3.2669,-3.2669,-3.2669,-3.2638,-3.2514,-3.2106,-3.1485,-3.1205,-3.0729,-3.0036,-2.9994,-2.9994,-2.9994,-2.9994,-2.9508,-2.8773,-2.8618,-2.8142,-2.7444,-2.732,-2.732,-2.732,-2.732,-2.732,-2.7278,-2.7164,-2.7092,-2.704,-2.6635,-2.6258,-2.6144,-2.5834,-2.5461,-2.5024,-2.4983,-2.4741,-2.4278,-2.4415,-2.4303,-2.3831,-2.3345,-2.311,-2.312,-2.3101,-2.3101,-2.3149,-2.3428,-2.3584,-2.3588,-2.3702,-2.3996,-2.4536,-2.4504,-2.4564,-2.5314,-2.5518,-2.4624,-2.3267,-2.2735,-2.1735,-2.0181,-1.948,-1.9272,-1.9272,-1.9272,-1.9272,-1.9272,-1.9272,-1.9272,-1.9272,-1.9272,-1.9272,-1.9272,-1.9272,-1.9272,-1.9272,-1.9272,-1.9272,-1.9272,-1.9272,-1.9272,-1.9272,-1.9272,-1.9272,-1.9272,-1.9272,-1.9272,-1.9272,-1.9272,-1.9272,-1.9272,-1.9272,-1.9272,-1.9242,-1.9177,-1.9001,-1.8906,-1.8811,-1.884,-1.9045,-1.9162,-1.9242,-1.9272,-1.9272,-1.9272,-1.9272,-1.9272,-1.9272,-3.2669,-3.2669,-3.2669,-3.2669,-3.2669,-3.2669,-3.2669,-3.2669,-3.2669,-3.2669,-3.2669,-3.2669,-3.223,-3.1526,-3.1381,-3.0853,-3.0056,-2.9994,-2.9994,-2.9994,-2.9994,-2.957,-2.8866,-2.8483,-2.81,-2.7583,-2.7392,-2.732,-2.732,-2.732,-2.732,-2.732,-2.732,-2.7309,-2.7289,-2.7029,-2.6812,-2.6604,-2.6314,-2.5916,-2.5564,-2.5471,-2.5248,-2.4954,-2.5081,-2.498,-2.4646,-2.4163,-2.3791,-2.3613,-2.3569,-2.3569,-2.3588,-2.3832,-2.3832,-2.3488,-2.3458,-2.372,-2.4355,-2.4113,-2.4658,-2.5431,-2.5684,-2.4962,-2.3443,-2.2835,-2.1684,-2.0285,-1.9532,-1.9272,-1.9272,-1.9272,-1.9272,-1.9272,-1.9272,-1.9272,-1.9272,-1.9272,-1.9272,-1.9272,-1.9272,-1.9272,-1.9272,-1.9272,-1.9272,-1.9272,-1.9272,-1.9272,-1.9272,-1.9272,-1.9272,-1.9272,-1.9272,-1.9272,-1.9272,-1.9272,-1.9272,-1.9272,-1.9272,-1.9272,-1.9257,-1.9199,-1.9074,-1.9081,-1.9023,-1.9038,-1.9199,-1.922,-1.9272,-1.9272,-1.9272,-1.9272,-1.9272,-1.9272,-1.9272,-3.2669,-3.2669,-3.2669,-3.2669,-3.2669,-3.2669,-3.2669,-3.2669,-3.2669,-3.2669,-3.2669,-3.2669,-3.224,-3.1526,-3.1381,-3.0874,-3.0129,-2.9994,-2.9994,-2.9994,-2.9973,-2.9704,-2.9187,-2.8473,-2.8048,-2.7831,-2.751,-2.7361,-2.732,-2.732,-2.732,-2.732,-2.732,-2.732,-2.7299,-2.7299,-2.7071,-2.676,-2.6667,-2.6418,-2.5947,-2.5916,-2.5865,-2.5813,-2.5715,-2.564,-2.5493,-2.532,-2.4969,-2.4506,-2.4307,-2.4287,-2.4375,-2.4424,-2.398,-2.3092,-2.2338,-2.2708,-2.3183,-2.3301,-2.3656,-2.5216,-2.5528,-2.5177,-2.389,-2.2885,-2.1937,-2.0585,-1.9783,-1.9272,-1.9272,-1.9272,-1.9272,-1.9272,-1.9272,-1.9272,-1.9272,-1.9272,-1.9272,-1.9272,-1.9272,-1.9272,-1.9272,-1.9272,-1.9272,-1.9272,-1.9272,-1.9272,-1.9272,-1.9272,-1.9272,-1.9272,-1.9272,-1.9272,-1.9272,-1.9272,-1.9272,-1.9272,-1.9279,-1.9286,-1.9279,-1.922,-1.9184,-1.9199,-1.9258,-1.9242,-1.9264,-1.9272,-1.9272,-1.9272,-1.9272,-1.9272,-1.9279,-1.9279,-1.9308,-3.2669,-3.2669,-3.2669,-3.2669,-3.2669,-3.2669,-3.2669,-3.2669,-3.2669,-3.2669,-3.2669,-3.2669,-3.223,-3.1433,-3.1371,-3.0874,-3.018,-2.9994,-2.9994,-2.9994,-2.9994,-2.9735,-2.928,-2.8721,-2.8266,-2.7986,-2.78,-2.7583,-2.734,-2.732,-2.732,-2.732,-2.732,-2.732,-2.732,-2.732,-2.7258,-2.7143,-2.7123,-2.6884,-2.6511,-2.6428,-2.6216,-2.5927,-2.6181,-2.6208,-2.6094,-2.6125,-2.5661,-2.4796,-2.4516,-2.4424,-2.4492,-2.469,-2.4316,-2.34,-2.3335,-2.3125,-2.2895,-2.3272,-2.3939,-2.4452,-2.5323,-2.4873,-2.3094,-2.2693,-2.1591,-2.0233,-1.9376,-1.9279,-1.9279,-1.9301,-1.9301,-1.9272,-1.9338,-1.9316,-1.9279,-1.9272,-1.9272,-1.9272,-1.9279,-1.9301,-1.9279,-1.9301,-1.9294,-1.9279,-1.9272,-1.9272,-1.9272,-1.9272,-1.9272,-1.9272,-1.9272,-1.9272,-1.9272,-1.9272,-1.9272,-1.9272,-1.9286,-1.9316,-1.9294,-1.9257,-1.925,-1.9257,-1.9242,-1.9264,-1.9272,-1.9272,-1.9272,-1.9272,-1.933,-1.9352,-1.9308,-1.9301,-1.9352,-3.2669,-3.2669,-3.2669,-3.2669,-3.2669,-3.2669,-3.2669,-3.2669,-3.2669,-3.2669,-3.2669,-3.2669,-3.2219,-3.1433,-3.1371,-3.0864,-3.0077,-2.9994,-2.9994,-2.9994,-2.9994,-2.9849,-2.9528,-2.9125,-2.8763,-2.8483,-2.81,-2.78,-2.7552,-2.7413,-2.732,-2.732,-2.732,-2.732,-2.732,-2.732,-2.732,-2.7309,-2.7309,-2.7154,-2.6926,-2.6905,-2.6791,-2.6584,-2.6791,-2.6822,-2.6685,-2.6662,-2.6225,-2.554,-2.5206,-2.5055,-2.4933,-2.4689,-2.4195,-2.3171,-2.293,-2.2383,-2.219,-2.2835,-2.3633,-2.4187,-2.5118,-2.4461,-2.3044,-2.2442,-2.1591,-1.968,-1.9324,-1.9345,-1.9477,-1.9594,-1.9667,-1.9711,-1.9681,-1.9572,-1.9323,-1.9411,-1.9396,-1.936,-1.9389,-1.9418,-1.9375,-1.9448,-1.9448,-1.9323,-1.9272,-1.9272,-1.9272,-1.9279,-1.9316,-1.936,-1.9352,-1.9352,-1.936,-1.936,-1.9491,-1.9477,-1.9572,-1.955,-1.9396,-1.9352,-1.9286,-1.9286,-1.9279,-1.9272,-1.9272,-1.9272,-1.9272,-1.9301,-1.9374,-1.9477,-1.9477,-1.9535,-1.9557,-3.2669,-3.2669,-3.2669,-3.2669,-3.2669,-3.2669,-3.2669,-3.2669,-3.2669,-3.2669,-3.2669,-3.2669,-3.2209,-3.1391,-3.136,-3.0864,-3.0015,-2.9994,-2.9994,-2.9994,-2.9994,-2.9953,-2.988,-2.9559,-2.9301,-2.9094,-2.84,-2.8069,-2.7841,-2.75,-2.7372,-2.733,-2.732,-2.732,-2.732,-2.732,-2.732,-2.732,-2.732,-2.7299,-2.7237,-2.7226,-2.7175,-2.7175,-2.7175,-2.7237,-2.7163,-2.7034,-2.6638,-2.6129,-2.6091,-2.5867,-2.5567,-2.4728,-2.3714,-2.275,-2.1963,-2.1336,-2.0936,-2.1735,-2.2685,-2.3493,-2.4658,-2.4569,-2.2802,-2.2342,-2.1706,-1.9591,-1.9412,-1.9572,-1.9777,-2.0055,-2.0135,-2.0081,-2.0146,-1.9989,-1.9608,-1.9691,-1.9696,-1.944,-1.972,-1.963,-1.9564,-1.9572,-1.9696,-1.9491,-1.9433,-1.944,-1.944,-1.9455,-1.9506,-1.9564,-1.952,-1.9455,-1.9455,-1.9455,-1.9638,-1.9769,-1.9945,-1.993,-1.9638,-1.952,-1.9374,-1.936,-1.9286,-1.9279,-1.9331,-1.9331,-1.9345,-1.9462,-1.9623,-1.9733,-1.982,-1.9908,-1.9959,-3.2669,-3.2669,-3.2669,-3.2669,-3.2669,-3.2669,-3.2669,-3.2669,-3.2669,-3.2669,-3.2669,-3.2669,-3.2209,-3.1381,-3.134,-3.0874,-3.0067,-2.9994,-2.9994,-2.9994,-2.9994,-2.9994,-2.9984,-2.9839,-2.9642,-2.9342,-2.9135,-2.8628,-2.8069,-2.781,-2.7583,-2.734,-2.732,-2.732,-2.732,-2.732,-2.732,-2.732,-2.732,-2.7272,-2.7262,-2.732,-2.732,-2.732,-2.7309,-2.7309,-2.7309,-2.7262,-2.6976,-2.6544,-2.6149,-2.5849,-2.5674,-2.5333,-2.4264,-2.2844,-2.2181,-2.1336,-2.0292,-2.0704,-2.1344,-2.1928,-2.3382,-2.3552,-2.1615,-2.2289,-2.1734,-2.0272,-1.9879,-2.0003,-2.0135,-2.0132,-2.0241,-2.0307,-2.0431,-2.0479,-2.0095,-2.0091,-2.0077,-2.004,-2.0062,-2.0106,-2.0025,-2.0033,-1.9989,-1.9733,-1.9659,-1.9713,-1.9713,-1.9659,-1.9725,-1.9806,-1.9835,-1.9798,-1.9813,-1.9842,-1.9981,-2.0142,-2.0303,-2.0325,-2.0033,-1.982,-1.9725,-1.9513,-1.9279,-1.9316,-1.9477,-1.9557,-1.9681,-1.9784,-1.9894,-2.0033,-2.0164,-2.0212,-2.0314,-3.2669,-3.2669,-3.2669,-3.2669,-3.2669,-3.2669,-3.2669,-3.2669,-3.2669,-3.2669,-3.2669,-3.2669,-3.2219,-3.1412,-3.134,-3.0874,-3.017,-2.9994,-2.9994,-2.9994,-2.9994,-2.9994,-2.9994,-2.9994,-2.9839,-2.9601,-2.9373,-2.8887,-2.838,-2.7958,-2.7665,-2.7351,-2.732,-2.732,-2.732,-2.732,-2.732,-2.732,-2.7309,-2.7167,-2.6822,-2.7119,-2.732,-2.7262,-2.7214,-2.7119,-2.7129,-2.6976,-2.6678,-2.6294,-2.5742,-2.5499,-2.5372,-2.4766,-2.3601,-2.2743,-2.1387,-2.068,-1.9791,-2.0379,-2.1199,-2.1139,-2.2801,-2.2585,-2.1856,-2.2087,-2.1624,-2.0481,-2.0128,-2.0219,-2.0394,-2.0591,-2.0613,-2.072,-2.0837,-2.0859,-2.0657,-2.0504,-2.0329,-2.0278,-2.0355,-2.0333,-2.0333,-2.0406,-2.0296,-2.0047,-1.9989,-1.9981,-1.9981,-1.9989,-2.0025,-2.0091,-2.0103,-2.0132,-2.0208,-2.0274,-2.0398,-2.0545,-2.0684,-2.064,-2.0457,-2.0281,-2.0135,-1.9879,-1.9638,-1.9747,-1.9886,-1.9959,-1.9996,-2.0069,-2.0186,-2.0355,-2.0523,-2.0655,-2.0757,-3.2669,-3.2669,-3.2669,-3.2669,-3.2669,-3.2669,-3.2669,-3.2669,-3.2669,-3.2669,-3.2669,-3.2669,-3.223,-3.1526,-3.1381,-3.0843,-3.0201,-2.9994,-2.9994,-2.9994,-2.9994,-2.9994,-2.9994,-2.9994,-2.9984,-2.9942,-2.9642,-2.9177,-2.8721,-2.8266,-2.7883,-2.7506,-2.732,-2.732,-2.732,-2.7309,-2.7167,-2.7023,-2.7214,-2.6918,-2.6438,-2.6918,-2.7272,-2.7262,-2.7081,-2.6938,-2.689,-2.6699,-2.6294,-2.5839,-2.4992,-2.4854,-2.4559,-2.371,-2.2341,-2.224,-2.0739,-1.994,-1.9732,-2.0362,-2.1034,-2.127,-2.24,-2.2564,-2.1779,-2.1672,-2.1418,-2.0818,-2.0365,-2.0504,-2.0786,-2.0962,-2.1123,-2.1167,-2.1189,-2.1211,-2.1159,-2.0955,-2.0706,-2.0552,-2.0662,-2.0706,-2.0662,-2.0669,-2.0523,-2.0406,-2.0292,-2.0256,-2.0256,-2.0278,-2.0377,-2.0494,-2.0596,-2.057,-2.0647,-2.0633,-2.0764,-2.0823,-2.0984,-2.0911,-2.0815,-2.0735,-2.0552,-2.0267,-2.0066,-2.0117,-2.0201,-2.0245,-2.0289,-2.0292,-2.046,-2.0735,-2.0896,-2.1042,-2.1072,-3.2669,-3.2669,-3.2669,-3.2669,-3.2669,-3.2669,-3.2669,-3.2669,-3.2669,-3.2669,-3.2669,-3.2649,-3.223,-3.1567,-3.1381,-3.0843,-3.017,-2.9994,-2.9994,-2.9994,-2.9994,-2.9994,-2.9994,-2.9994,-2.9994,-2.9984,-2.9839,-2.958,-2.9135,-2.8721,-2.8266,-2.7831,-2.7517,-2.7361,-2.7372,-2.7262,-2.6965,-2.662,-2.6976,-2.687,-2.6332,-2.6678,-2.7214,-2.7167,-2.6938,-2.6842,-2.6794,-2.6592,-2.5994,-2.4894,-2.4581,-2.3949,-2.3297,-2.2644,-2.2004,-2.1393,-2.0834,-2.0143,-1.9925,-1.9953,-2.023,-2.0556,-2.1534,-2.1604,-2.1138,-2.1447,-2.1427,-2.1018,-2.0852,-2.1042,-2.1115,-2.1174,-2.1196,-2.1211,-2.1211,-2.1211,-2.1189,-2.113,-2.1057,-2.094,-2.1028,-2.1072,-2.0976,-2.0903,-2.0823,-2.0728,-2.0669,-2.0584,-2.0584,-2.0628,-2.0742,-2.0903,-2.1086,-2.1094,-2.1101,-2.1064,-2.1079,-2.105,-2.1123,-2.1123,-2.1072,-2.1123,-2.0969,-2.0577,-2.0358,-2.0355,-2.0413,-2.0523,-2.0596,-2.0606,-2.0881,-2.1108,-2.1123,-2.113,-2.1152,-3.2669,-3.2669,-3.2669,-3.2669,-3.2669,-3.2669,-3.2669,-3.2669,-3.2669,-3.2669,-3.2669,-3.2628,-3.223,-3.1567,-3.1381,-3.0864,-3.0191,-2.9994,-2.9994,-2.9994,-2.9994,-2.9994,-2.9994,-2.9994,-2.9994,-2.9994,-2.9973,-2.9766,-2.9332,-2.9094,-2.87,-2.8276,-2.7831,-2.7603,-2.7531,-2.7376,-2.6863,-2.6448,-2.6784,-2.6726,-2.5684,-2.6225,-2.6572,-2.6726,-2.664,-2.6496,-2.6448,-2.6207,-2.5499,-2.448,-2.3931,-2.3113,-2.222,-2.1551,-2.1285,-2.1078,-2.0798,-2.0438,-2.0133,-2.0135,-2.0347,-2.0527,-2.1158,-2.1223,-2.0981,-2.1268,-2.1496,-2.1225,-2.105,-2.1211,-2.1196,-2.1211,-2.1211,-2.1211,-2.1211,-2.1211,-2.1211,-2.1211,-2.1211,-2.1211,-2.1174,-2.1152,-2.1174,-2.1123,-2.1108,-2.1057,-2.0984,-2.0955,-2.0883,-2.0962,-2.0998,-2.1072,-2.1196,-2.1203,-2.1203,-2.1211,-2.1211,-2.1211,-2.1211,-2.1211,-2.1211,-2.1203,-2.113,-2.0925,-2.0757,-2.0625,-2.0764,-2.0925,-2.0955,-2.0962,-2.1072,-2.1167,-2.1189,-2.1203,-2.1211,-3.2669,-3.2669,-3.2669,-3.2669,-3.2669,-3.2669,-3.2669,-3.2669,-3.2669,-3.2669,-3.2669,-3.2628,-3.2282,-3.1629,-3.1226,-3.077,-3.0025,-2.9994,-2.9994,-2.9994,-2.9994,-2.9994,-2.9994,-2.9994,-2.9994,-2.9994,-2.9994,-2.9808,-2.9539,-2.9311,-2.9073,-2.8731,-2.8297,-2.8059,-2.7997,-2.7557,-2.6903,-2.6472,-2.6693,-2.6393,-2.5713,-2.5742,-2.5945,-2.6091,-2.5897,-2.5684,-2.5409,-2.5133,-2.4504,-2.3648,-2.2997,-2.2292,-2.1311,-2.0631,-2.0629,-2.0979,-2.0569,-2.0285,-2.0336,-2.046,-2.0669,-2.0815,-2.1057,-2.1159,-2.1174,-2.118,-2.1238,-2.1211,-2.1211,-2.1211,-2.1211,-2.1211,-2.1211,-2.1211,-2.1211,-2.1211,-2.1211,-2.1211,-2.1211,-2.1211,-2.1211,-2.1211,-2.1211,-2.1203,-2.1159,-2.1159,-2.1086,-2.1094,-2.1086,-2.1115,-2.1137,-2.1159,-2.1203,-2.1203,-2.1211,-2.1211,-2.1211,-2.1211,-2.1211,-2.1211,-2.1211,-2.1203,-2.113,-2.1079,-2.1086,-2.0998,-2.1167,-2.1211,-2.113,-2.1108,-2.1181,-2.1211,-2.1211,-2.1211,-2.1211,-3.2669,-3.2669,-3.2669,-3.2669,-3.2669,-3.2669,-3.2669,-3.2669,-3.2669,-3.2669,-3.2669,-3.2649,-3.2426,-3.1826,-3.1071,-3.0512,-3.0129,-2.9994,-2.9994,-2.9994,-2.9994,-2.9994,-2.9994,-2.9994,-2.9994,-2.9994,-2.9994,-2.9984,-2.9798,-2.9497,-2.9321,-2.9135,-2.8693,-2.8485,-2.8255,-2.7502,-2.6772,-2.5969,-2.629,-2.6585,-2.653,-2.6528,-2.5986,-2.5313,-2.4841,-2.4526,-2.4128,-2.3826,-2.3203,-2.2392,-2.2118,-2.1448,-2.0604,-2.0597,-2.0625,-2.0648,-2.0498,-2.0369,-2.0618,-2.0742,-2.0867,-2.1042,-2.1181,-2.1203,-2.1211,-2.1211,-2.1211,-2.1211,-2.1211,-2.1211,-2.1211,-2.1211,-2.1211,-2.1211,-2.1211,-2.1211,-2.1211,-2.1211,-2.1211,-2.1211,-2.1211,-2.1211,-2.1211,-2.1211,-2.1203,-2.1211,-2.1211,-2.1218,-2.1225,-2.124,-2.1211,-2.1211,-2.1211,-2.1211,-2.1211,-2.1211,-2.1276,-2.1254,-2.1218,-2.1233,-2.1291,-2.1298,-2.1211,-2.1181,-2.1211,-2.1211,-2.1211,-2.1211,-2.1211,-2.1211,-2.1211,-2.1211,-2.1211,-2.1211,-2.1211,-3.2669,-3.2669,-3.2669,-3.2669,-3.2669,-3.2669,-3.2669,-3.2669,-3.2669,-3.2669,-3.2669,-3.2669,-3.2354,-3.165,-3.0946,-3.0439,-3.0077,-2.9994,-2.9994,-2.9994,-2.9994,-2.9994,-2.9994,-2.9994,-2.9994,-2.9994,-2.9994,-2.9994,-2.9911,-2.9776,-2.9694,-2.9497,-2.8768,-2.8217,-2.8187,-2.7121,-2.6161,-2.5507,-2.5512,-2.5895,-2.6114,-2.5896,-2.5172,-2.4197,-2.3983,-2.3729,-2.3427,-2.333,-2.2759,-2.2065,-2.1976,-2.158,-2.0851,-2.0801,-2.0998,-2.0984,-2.0881,-2.0874,-2.0976,-2.0984,-2.1072,-2.1145,-2.1211,-2.1211,-2.1211,-2.1211,-2.1211,-2.1211,-2.1211,-2.1211,-2.1211,-2.1211,-2.1211,-2.1211,-2.1211,-2.1211,-2.1211,-2.1211,-2.1211,-2.1211,-2.1211,-2.1211,-2.1211,-2.1211,-2.1262,-2.1357,-2.1335,-2.1306,-2.1313,-2.1313,-2.1269,-2.1211,-2.1211,-2.1211,-2.1211,-2.1218,-2.1386,-2.1386,-2.1262,-2.1298,-2.1423,-2.1423,-2.1284,-2.1211,-2.1211,-2.1211,-2.1211,-2.1211,-2.1211,-2.1211,-2.1211,-2.1211,-2.1211,-2.1211,-2.1211,-3.2669,-3.2669,-3.2669,-3.2669,-3.2669,-3.2669,-3.2669,-3.2669,-3.2669,-3.2669,-3.2669,-3.2638,-3.223,-3.1485,-3.1019,-3.0594,-3.0015,-2.9994,-2.9994,-2.9994,-2.9994,-2.9994,-2.9994,-2.9994,-2.9994,-2.9994,-2.9617,-2.9564,-2.9501,-2.9365,-2.924,-2.9596,-2.8403,-2.795,-2.7591,-2.705,-2.6214,-2.569,-2.5197,-2.5271,-2.5441,-2.5088,-2.4202,-2.343,-2.3048,-2.2983,-2.2852,-2.2699,-2.2123,-2.1908,-2.1796,-2.1496,-2.1001,-2.1028,-2.1152,-2.1159,-2.1108,-2.1123,-2.1152,-2.1167,-2.1203,-2.1211,-2.1211,-2.1211,-2.1211,-2.1211,-2.1211,-2.1211,-2.1211,-2.1211,-2.1211,-2.1211,-2.1211,-2.1211,-2.1211,-2.1211,-2.1211,-2.1211,-2.1211,-2.1211,-2.1211,-2.1211,-2.1211,-2.1211,-2.1298,-2.1459,-2.1474,-2.1408,-2.1393,-2.1386,-2.1393,-2.1342,-2.1364,-2.1328,-2.124,-2.1284,-2.1445,-2.1503,-2.1379,-2.1335,-2.143,-2.1386,-2.1247,-2.1211,-2.1262,-2.1211,-2.1211,-2.1211,-2.1211,-2.1211,-2.1211,-2.1211,-2.1211,-2.1218,-2.124,-3.2669,-3.2669,-3.2669,-3.2669,-3.2669,-3.2669,-3.2669,-3.2669,-3.2669,-3.2669,-3.2669,-3.2628,-3.224,-3.1567,-3.1267,-3.0812,-3.0025,-3.0005,-2.9994,-2.9994,-2.9994,-2.9994,-2.9994,-2.9994,-2.9942,-2.9774,-2.9501,-2.9122,-2.8635,-2.8252,-2.8359,-2.8489,-2.7699,-2.7479,-2.728,-2.6861,-2.6674,-2.6088,-2.5498,-2.4799,-2.486,-2.4474,-2.3725,-2.2374,-2.1881,-2.1589,-2.0989,-2.1178,-2.1316,-2.1331,-2.139,-2.1427,-2.1165,-2.1159,-2.1211,-2.1211,-2.1211,-2.1211,-2.1211,-2.1211,-2.1211,-2.1211,-2.1211,-2.1211,-2.1211,-2.1211,-2.1211,-2.1211,-2.1211,-2.1211,-2.1211,-2.1211,-2.1211,-2.1284,-2.1313,-2.1342,-2.1313,-2.1225,-2.1218,-2.1211,-2.1211,-2.1211,-2.1211,-2.1211,-2.1328,-2.1489,-2.1503,-2.1445,-2.1467,-2.1474,-2.1533,-2.154,-2.1569,-2.1496,-2.1313,-2.1379,-2.1518,-2.1562,-2.1496,-2.1423,-2.1408,-2.1328,-2.143,-2.1401,-2.1474,-2.1335,-2.1269,-2.1423,-2.1459,-2.1284,-2.1218,-2.124,-2.1298,-2.1342,-2.135,-3.2669,-3.2669,-3.2669,-3.2669,-3.2669,-3.2669,-3.2669,-3.2669,-3.2669,-3.2669,-3.2669,-3.2638,-3.2385,-3.1857,-3.1433,-3.105,-3.0429,-3.0087,-3.0036,-2.9994,-2.9994,-2.9994,-2.9994,-2.9889,-2.9732,-2.9396,-2.9237,-2.8741,-2.7868,-2.7492,-2.7114,-2.706,-2.6789,-2.6681,-2.6518,-2.6254,-2.6363,-2.6595,-2.5667,-2.4722,-2.437,-2.3842,-2.2972,-2.1592,-2.1432,-2.1317,-2.1062,-2.102,-2.1101,-2.1167,-2.1203,-2.1211,-2.1211,-2.1211,-2.1211,-2.1211,-2.1211,-2.1211,-2.1211,-2.1211,-2.1211,-2.1211,-2.1211,-2.1211,-2.1211,-2.1211,-2.1211,-2.1211,-2.1225,-2.1254,-2.1218,-2.1225,-2.1254,-2.1372,-2.1459,-2.1503,-2.1503,-2.1445,-2.1423,-2.1503,-2.1335,-2.1211,-2.1211,-2.1211,-2.1357,-2.1503,-2.1496,-2.1496,-2.1518,-2.1518,-2.1554,-2.1569,-2.1576,-2.154,-2.1357,-2.1445,-2.1598,-2.1628,-2.165,-2.1657,-2.1672,-2.1825,-2.1891,-2.1818,-2.1752,-2.1737,-2.1752,-2.1796,-2.1701,-2.1474,-2.1357,-2.1306,-2.1379,-2.1496,-2.1562,-3.2669,-3.2669,-3.2669,-3.2669,-3.2669,-3.2669,-3.2669,-3.2669,-3.2669,-3.2669,-3.2669,-3.2659,-3.2421,-3.1988,-3.1743,-3.1205,-3.0729,-3.0377,-3.0149,-3.0046,-2.9994,-2.9994,-2.9879,-2.9669,-2.9237,-2.8847,-2.8412,-2.7921,-2.706,-2.7006,-2.6527,-2.6045,-2.599,-2.6036,-2.5569,-2.5302,-2.5569,-2.6263,-2.567,-2.4406,-2.3958,-2.3351,-2.2467,-2.1445,-2.1259,-2.1259,-2.1159,-2.1159,-2.1174,-2.1196,-2.1211,-2.1211,-2.1211,-2.1211,-2.1211,-2.1211,-2.1211,-2.1211,-2.1211,-2.1211,-2.1211,-2.1211,-2.1211,-2.1211,-2.1211,-2.1211,-2.1211,-2.1225,-2.1276,-2.1357,-2.1372,-2.1496,-2.162,-2.1789,-2.1745,-2.1774,-2.1847,-2.1832,-2.1811,-2.1811,-2.165,-2.1569,-2.1584,-2.1598,-2.1467,-2.1569,-2.1554,-2.1554,-2.1554,-2.1547,-2.1511,-2.1518,-2.1503,-2.1445,-2.1386,-2.173,-2.2023,-2.195,-2.1979,-2.2037,-2.2096,-2.2213,-2.2206,-2.2045,-2.203,-2.2154,-2.2132,-2.2045,-2.1854,-2.1635,-2.1598,-2.162,-2.1715,-2.1847,-2.1913,-3.2669,-3.2669,-3.2669,-3.2669,-3.2669,-3.2669,-3.2669,-3.2669,-3.2669,-3.2669,-3.2669,-3.2659,-3.2452,-3.2091,-3.1936,-3.1495,-3.0895,-3.0657,-3.0398,-3.0067,-2.9994,-2.9994,-2.9722,-2.9343,-2.891,-2.8305,-2.7707,-2.6952,-2.6254,-2.6572,-2.5935,-2.5404,-2.556,-2.5716,-2.4932,-2.4821,-2.5293,-2.5872,-2.5247,-2.4303,-2.34,-2.307,-2.2343,-2.1489,-2.1211,-2.1211,-2.1211,-2.1211,-2.1211,-2.1211,-2.1211,-2.1211,-2.1211,-2.1211,-2.1211,-2.1211,-2.1211,-2.1211,-2.1211,-2.1211,-2.1211,-2.1233,-2.1254,-2.1298,-2.1247,-2.1254,-2.1342,-2.1467,-2.1547,-2.1664,-2.1789,-2.192,-2.203,-2.2118,-2.2074,-2.2125,-2.2206,-2.2154,-2.2111,-2.2089,-2.2132,-2.214,-2.2132,-2.2052,-2.1745,-2.1657,-2.162,-2.1628,-2.1664,-2.1686,-2.1686,-2.1686,-2.1693,-2.1693,-2.1774,-2.2198,-2.2418,-2.233,-2.2279,-2.2308,-2.2345,-2.2389,-2.2345,-2.2257,-2.2337,-2.2484,-2.2359,-2.2213,-2.2169,-2.2162,-2.2045,-2.2052,-2.2132,-2.2198,-2.2264,-3.2669,-3.2669,-3.2669,-3.2669,-3.2669,-3.2669,-3.2669,-3.2669,-3.2669,-3.2669,-3.2669,-3.2669,-3.2618,-3.239,-3.2081,-3.1712,-3.1184,-3.0729,-3.0429,-3.0036,-2.9994,-2.9994,-2.9722,-2.9122,-2.8635,-2.8359,-2.7438,-2.6409,-2.6136,-2.6518,-2.5935,-2.5348,-2.5247,-2.5404,-2.5404,-2.5293,-2.5247,-2.5771,-2.5238,-2.4256,-2.3183,-2.2965,-2.2456,-2.1325,-2.1211,-2.1211,-2.1211,-2.1211,-2.1211,-2.1211,-2.1211,-2.1211,-2.1211,-2.1211,-2.1211,-2.1211,-2.1211,-2.1211,-2.1211,-2.1211,-2.1211,-2.1276,-2.1393,-2.1489,-2.1533,-2.1752,-2.1818,-2.184,-2.1913,-2.2008,-2.2067,-2.2096,-2.2206,-2.2396,-2.2447,-2.2571,-2.2623,-2.2454,-2.2359,-2.2352,-2.2367,-2.2293,-2.2264,-2.2374,-2.2162,-2.2052,-2.2052,-2.1972,-2.1972,-2.2001,-2.2015,-2.2015,-2.2023,-2.2023,-2.2147,-2.2389,-2.252,-2.2425,-2.2447,-2.252,-2.255,-2.2601,-2.2689,-2.2703,-2.2754,-2.2791,-2.2689,-2.2637,-2.2762,-2.2762,-2.2535,-2.241,-2.2454,-2.2528,-2.2601,-3.2669,-3.2669,-3.2669,-3.2669,-3.2669,-3.2669,-3.2669,-3.2669,-3.2669,-3.2669,-3.2669,-3.2669,-3.2659,-3.2566,-3.2406,-3.1888,-3.1391,-3.1081,-3.0491,-3.0087,-2.9994,-2.9994,-2.9669,-2.891,-2.8198,-2.7985,-2.7124,-2.61,-2.5661,-2.6844,-2.6744,-2.5944,-2.509,-2.5136,-2.5238,-2.5136,-2.5034,-2.5348,-2.4868,-2.42,-2.3352,-2.2845,-2.2392,-2.1546,-2.1211,-2.1211,-2.1211,-2.1211,-2.1211,-2.1211,-2.1211,-2.1211,-2.1211,-2.1211,-2.1211,-2.1211,-2.1211,-2.1211,-2.1211,-2.1211,-2.1262,-2.1415,-2.1598,-2.1737,-2.184,-2.2015,-2.2096,-2.2154,-2.2279,-2.2323,-2.2337,-2.2352,-2.2528,-2.2732,-2.2776,-2.2901,-2.2886,-2.271,-2.2674,-2.2659,-2.2637,-2.2528,-2.2462,-2.2535,-2.2564,-2.2535,-2.2506,-2.2396,-2.2271,-2.2264,-2.2271,-2.2264,-2.2264,-2.225,-2.2279,-2.2396,-2.2491,-2.2506,-2.2608,-2.2732,-2.282,-2.2879,-2.3018,-2.3106,-2.3018,-2.2974,-2.304,-2.3069,-2.3025,-2.2952,-2.2813,-2.2747,-2.2784,-2.2813,-2.2857,-3.2669,-3.2669,-3.2669,-3.2669,-3.2669,-3.2669,-3.2669,-3.2669,-3.2669,-3.2669,-3.2669,-3.2669,-3.2669,-3.2669,-3.2638,-3.223,-3.1598,-3.1422,-3.0843,-3.0305,-3.0149,-3.0077,-2.9522,-2.8528,-2.8252,-2.7232,-2.6318,-2.578,-2.5191,-2.6217,-2.691,-2.6773,-2.5526,-2.5202,-2.5035,-2.5035,-2.5001,-2.5013,-2.4868,-2.4089,-2.3296,-2.2958,-2.2335,-2.1603,-2.1211,-2.1211,-2.1211,-2.1211,-2.1211,-2.1211,-2.1211,-2.1211,-2.1211,-2.1211,-2.1211,-2.1211,-2.1211,-2.1211,-2.1218,-2.1218,-2.1459,-2.1664,-2.1774,-2.1935,-2.2125,-2.2293,-2.2403,-2.2462,-2.2542,-2.2601,-2.2637,-2.2813,-2.2981,-2.3032,-2.3032,-2.3069,-2.3069,-2.3025,-2.3025,-2.301,-2.3003,-2.2945,-2.2908,-2.2945,-2.2835,-2.2857,-2.2791,-2.2689,-2.2571,-2.2454,-2.2462,-2.2447,-2.2447,-2.2447,-2.2498,-2.2608,-2.2689,-2.2776,-2.2871,-2.2981,-2.3069,-2.3076,-2.3091,-2.3106,-2.3106,-2.3106,-2.3106,-2.3106,-2.3098,-2.3018,-2.2945,-2.2952,-2.2945,-2.2981,-2.3025,-3.2669,-3.2669,-3.2669,-3.2669,-3.2669,-3.2669,-3.2669,-3.2669,-3.2669,-3.2669,-3.2669,-3.2669,-3.2669,-3.2669,-3.2659,-3.2333,-3.2033,-3.1733,-3.1236,-3.0801,-3.0481,-3.0274,-2.9739,-2.894,-2.8761,-2.8145,-2.7124,-2.5907,-2.6354,-2.6701,-2.6514,-2.6532,-2.5769,-2.5319,-2.5215,-2.5215,-2.5069,-2.4941,-2.4907,-2.4113,-2.336,-2.3014,-2.223,-2.1546,-2.1211,-2.1211,-2.1211,-2.1211,-2.1211,-2.1211,-2.1211,-2.1211,-2.1211,-2.1211,-2.1211,-2.1211,-2.1211,-2.1211,-2.1247,-2.143,-2.1693,-2.2008,-2.2191,-2.2352,-2.2528,-2.2645,-2.2762,-2.2784,-2.2798,-2.2849,-2.2871,-2.3003,-2.3106,-2.3106,-2.3106,-2.3106,-2.3106,-2.3106,-2.3106,-2.3106,-2.3106,-2.3106,-2.3106,-2.3084,-2.2996,-2.3069,-2.3054,-2.2945,-2.2857,-2.2732,-2.2681,-2.2674,-2.2696,-2.2718,-2.282,-2.293,-2.2996,-2.3069,-2.3098,-2.3106,-2.3098,-2.3091,-2.3106,-2.3106,-2.3106,-2.3106,-2.3106,-2.3106,-2.3106,-2.3106,-2.3054,-2.3084,-2.3106,-2.3106,-2.3106,-3.2669,-3.2669,-3.2669,-3.2669,-3.2669,-3.2669,-3.2669,-3.2669,-3.2669,-3.2669,-3.2669,-3.2669,-3.2669,-3.2669,-3.2649,-3.2421,-3.1998,-3.1971,-3.1598,-3.1143,-3.0967,-3.0667,-3.0142,-2.947,-2.9123,-2.8617,-2.7755,-2.6509,-2.7031,-2.6807,-2.659,-2.6769,-2.6048,-2.5706,-2.5592,-2.5583,-2.5489,-2.5309,-2.4977,-2.4182,-2.3537,-2.2981,-2.223,-2.1469,-2.124,-2.124,-2.124,-2.124,-2.1233,-2.1218,-2.1211,-2.1211,-2.1211,-2.1211,-2.1211,-2.1233,-2.1372,-2.1408,-2.1481,-2.1737,-2.203,-2.2301,-2.2528,-2.2659,-2.2806,-2.293,-2.3003,-2.304,-2.3069,-2.3091,-2.3098,-2.3106,-2.3106,-2.3106,-2.3106,-2.3106,-2.3106,-2.3106,-2.3106,-2.3106,-2.3106,-2.3106,-2.3106,-2.3106,-2.3106,-2.3106,-2.3106,-2.3069,-2.3018,-2.2974,-2.2945,-2.2937,-2.2981,-2.3025,-2.3106,-2.3106,-2.3098,-2.3098,-2.3106,-2.3106,-2.3106,-2.3106,-2.3106,-2.3106,-2.3106,-2.3106,-2.3106,-2.3106,-2.3106,-2.3106,-2.3106,-2.3106,-2.3106,-2.3106,-2.3106,-3.2669,-3.2669,-3.2669,-3.2669,-3.2669,-3.2669,-3.2669,-3.2669,-3.2669,-3.2669,-3.2669,-3.2669,-3.2669,-3.2669,-3.2659,-3.2483,-3.2225,-3.2132,-3.1961,-3.1443,-3.1433,-3.1174,-3.0638,-2.9998,-2.9833,-2.8633,-2.7602,-2.7087,-2.7512,-2.7355,-2.7048,-2.7115,-2.6374,-2.5977,-2.5977,-2.5977,-2.5925,-2.5866,-2.5462,-2.485,-2.361,-2.2955,-2.2503,-2.1565,-2.135,-2.1342,-2.1335,-2.1313,-2.1291,-2.1298,-2.1313,-2.1357,-2.1298,-2.1291,-2.1291,-2.1386,-2.1584,-2.1701,-2.1811,-2.2037,-2.2286,-2.2506,-2.2652,-2.282,-2.2981,-2.3054,-2.3098,-2.3106,-2.3106,-2.3106,-2.3106,-2.3106,-2.3106,-2.3106,-2.3106,-2.3106,-2.3106,-2.3106,-2.3106,-2.3106,-2.3106,-2.3106,-2.3106,-2.3106,-2.3106,-2.3106,-2.3106,-2.3106,-2.312,-2.312,-2.3149,-2.3142,-2.3113,-2.3113,-2.3106,-2.3106,-2.3106,-2.3106,-2.3106,-2.3106,-2.3106,-2.3106,-2.3106,-2.3106,-2.3106,-2.3106,-2.3106,-2.3106,-2.3106,-2.3106,-2.3106,-2.3106,-2.3106,-2.3106,-2.3106,-3.2669,-3.2669,-3.2669,-3.2669,-3.2669,-3.2669,-3.2669,-3.2669,-3.2669,-3.2669,-3.2669,-3.2669,-3.2669,-3.2669,-3.2669,-3.2545,-3.2504,-3.238,-3.225,-3.2012,-3.1888,-3.164,-3.1288,-3.0922,-3.071,-3.0198,-2.914,-2.7638,-2.7195,-2.7352,-2.7392,-2.6757,-2.6354,-2.6362,-2.6362,-2.6362,-2.6354,-2.6227,-2.5939,-2.5186,-2.3891,-2.3362,-2.2921,-2.2222,-2.1906,-2.1869,-2.1876,-2.1906,-2.1928,-2.1957,-2.195,-2.1832,-2.1606,-2.1584,-2.1576,-2.1635,-2.1876,-2.2015,-2.214,-2.233,-2.2557,-2.2681,-2.2813,-2.2981,-2.3084,-2.3098,-2.3106,-2.3106,-2.3106,-2.3106,-2.3106,-2.3106,-2.3106,-2.3106,-2.3106,-2.3106,-2.3106,-2.3106,-2.3106,-2.3106,-2.3106,-2.3106,-2.3106,-2.3106,-2.3106,-2.3106,-2.3106,-2.3113,-2.3149,-2.3164,-2.3252,-2.3237,-2.3135,-2.3113,-2.3113,-2.3106,-2.3106,-2.3106,-2.3106,-2.3106,-2.3106,-2.3106,-2.3106,-2.3106,-2.3106,-2.3106,-2.3106,-2.3106,-2.3106,-2.3106,-2.3106,-2.3106,-2.3106,-2.3106,-2.3106,-3.2669,-3.2669,-3.2669,-3.2669,-3.2669,-3.2669,-3.2669,-3.2669,-3.2669,-3.2669,-3.2669,-3.2669,-3.2669,-3.2669,-3.2669,-3.2669,-3.2669,-3.2659,-3.2504,-3.2339,-3.2204,-3.2054,-3.1847,-3.1661,-3.1399,-3.1003,-3.0076,-2.8746,-2.7199,-2.7511,-2.7733,-2.691,-2.679,-2.673,-2.6739,-2.6739,-2.6551,-2.6311,-2.6176,-2.5318,-2.4118,-2.3747,-2.316,-2.2572,-2.2191,-2.2206,-2.2184,-2.2184,-2.2184,-2.2176,-2.214,-2.2096,-2.1942,-2.1913,-2.1913,-2.1993,-2.2169,-2.2381,-2.2462,-2.2608,-2.2798,-2.2893,-2.2945,-2.3091,-2.3098,-2.3106,-2.3106,-2.3106,-2.3106,-2.3106,-2.3106,-2.3106,-2.3106,-2.3106,-2.3106,-2.3106,-2.3106,-2.3106,-2.3106,-2.3106,-2.3106,-2.3106,-2.3106,-2.3106,-2.3106,-2.3106,-2.3106,-2.3237,-2.3252,-2.3281,-2.3347,-2.3391,-2.3325,-2.3171,-2.3106,-2.3106,-2.3106,-2.3106,-2.3106,-2.3106,-2.3106,-2.3106,-2.3106,-2.3106,-2.3106,-2.3106,-2.3106,-2.3106,-2.3106,-2.3106,-2.3106,-2.3106,-2.3106,-2.3106,-2.3106,-3.2669,-3.2669,-3.2669,-3.2669,-3.2669,-3.2669,-3.2669,-3.2669,-3.2669,-3.2669,-3.2669,-3.2669,-3.2669,-3.2669,-3.2669,-3.2669,-3.2669,-3.2669,-3.2628,-3.2628,-3.2618,-3.238,-3.2194,-3.2106,-3.1818,-3.1533,-3.095,-2.9239,-2.75,-2.8178,-2.834,-2.7478,-2.7133,-2.7064,-2.7004,-2.6874,-2.6581,-2.6012,-2.5558,-2.4987,-2.4448,-2.4011,-2.3277,-2.2654,-2.2301,-2.2308,-2.2308,-2.2308,-2.2315,-2.2301,-2.233,-2.2271,-2.2257,-2.2235,-2.2235,-2.2308,-2.2513,-2.2652,-2.274,-2.2901,-2.3018,-2.3091,-2.3106,-2.3106,-2.3106,-2.3106,-2.3106,-2.3106,-2.3106,-2.3106,-2.3106,-2.3106,-2.3106,-2.3106,-2.3106,-2.3106,-2.3106,-2.3106,-2.3106,-2.3106,-2.3106,-2.3106,-2.3106,-2.3106,-2.3106,-2.3106,-2.3179,-2.334,-2.3457,-2.3501,-2.3552,-2.3618,-2.3632,-2.3449,-2.3245,-2.3128,-2.3142,-2.3106,-2.3106,-2.3106,-2.3106,-2.3106,-2.3106,-2.3106,-2.3106,-2.3106,-2.3106,-2.3106,-2.3106,-2.3106,-2.3106,-2.3106,-2.3106,-2.3106,-2.3106,-3.2669,-3.2669,-3.2669,-3.2669,-3.2669,-3.2669,-3.2669,-3.2669,-3.2669,-3.2669,-3.2669,-3.2669,-3.2669,-3.2669,-3.2669,-3.2669,-3.2669,-3.2669,-3.2669,-3.2669,-3.2669,-3.2597,-3.2525,-3.2401,-3.1977,-3.1708,-3.1496,-3.0895,-2.8532,-2.8897,-2.9057,-2.8071,-2.7194,-2.6822,-2.6327,-2.6205,-2.6075,-2.5476,-2.517,-2.4709,-2.4201,-2.3757,-2.3397,-2.3052,-2.2937,-2.2937,-2.293,-2.293,-2.2937,-2.2864,-2.2689,-2.2579,-2.2542,-2.255,-2.2542,-2.2593,-2.2813,-2.2901,-2.3003,-2.3047,-2.3106,-2.3106,-2.3106,-2.3106,-2.3106,-2.3106,-2.3106,-2.3106,-2.3106,-2.3106,-2.3106,-2.3106,-2.3106,-2.3106,-2.3106,-2.3106,-2.3106,-2.3106,-2.3106,-2.3106,-2.3106,-2.3106,-2.3106,-2.3106,-2.3106,-2.3106,-2.3106,-2.3274,-2.353,-2.3632,-2.3735,-2.3845,-2.3918,-2.3764,-2.3559,-2.3252,-2.3186,-2.3142,-2.3106,-2.3106,-2.3106,-2.3106,-2.3106,-2.3106,-2.3106,-2.3106,-2.3106,-2.3106,-2.3106,-2.3106,-2.3106,-2.3106,-2.3106,-2.3106,-2.3106]},{"header":{"parameterUnit":"m.s-1","parameterCategory":1,"la1":31.0,"la2":29.5877,"lo1":-88.7671,"lo2":-86.6584,"dy":0.0162,"dx":0.0185,"nx":115,"ny":88,"refTime":"2026-05-15T00:00:00:Z","depth":0,"parameterNumber":3,"parameterNumberName":"V-component_of_WINDS"},"data":[0.0,0.0,0.0,0.0,0.0,0.0,0.0,0.0,0.0,0.0,0.0,0.0,0.0,0.0,0.0,0.0,0.0,0.0,0.0,0.0,0.0,0.0,0.0,0.0,0.0,0.0,0.0,0.0,0.0,0.0,0.0,0.0,0.0,0.0,0.0,0.0,0.0,0.0,0.0,0.0,0.0,0.0,0.0,0.0,0.0,0.0,0.0,0.0,0.0,0.0,0.0,0.0,0.0,0.0,0.0,0.0,0.0,0.0,0.0,0.0,0.0,0.0,0.0,0.0,0.0,0.0,0.0,0.0,0.0,0.0,0.0,0.0,0.0,0.0,0.0,0.0,0.0,0.0,0.0,0.0,0.0,0.0,0.0,0.0,0.0,0.0,0.0,0.0,0.0,0.0,0.0,0.0,0.0,0.0,0.0,0.0,0.0,0.0,0.0,0.0,0.0,0.0,0.0,0.0,0.0,0.0,0.0,0.0,0.0,0.0,0.0,0.0,0.0,0.0,0.0,0.0,0.0,0.0,0.0,0.0,0.0,0.0,0.0,0.0,0.0,0.0,0.0,0.0,0.0,0.0,0.0,0.0,0.0,0.0,0.0,0.0,0.0,0.0,0.0,0.0,0.0,0.0,0.0,0.0,0.0,0.0,0.0,0.0,0.0,0.0,0.0,0.0,0.0,0.0,0.0,0.0,0.0,0.0,0.0,0.0,0.0,0.0,0.0,0.0,0.0,0.0,0.0,0.0,0.0,0.0,0.0,0.0,0.0,0.0,0.0,0.0,0.0,0.0,0.0,0.0,0.0,0.0,0.0,0.0,0.0,0.0,0.0,0.0,0.0,0.0,0.0,0.0,0.0,0.0,0.0,0.0,0.0,0.0,0.0,0.0,0.0,0.0,0.0,0.0,0.0,0.0,0.0,0.0,0.0,0.0,0.0,0.0,0.0,0.0,0.0,0.0,0.0,0.0,0.0,0.0,0.0,0.0,0.0,0.0,0.0,0.0,0.0,0.0,0.0,0.0,0.0,0.0,0.0,0.0,0.0,0.0,0.0,0.0,0.0,0.0,0.0,0.0,0.0,0.0,0.0,0.0,0.0,0.0,0.0,0.0,0.0,0.0,0.0,0.0,0.0,0.0,0.0,0.0,0.0,0.0,0.0,0.0,0.0,0.0,0.0,0.0,0.0,0.0,0.0,0.0,0.0,0.0,0.0,0.0,0.0,0.0,0.0,0.0,0.0,0.0,0.0,0.0,0.0,0.0,0.0,0.0,0.0,0.0,0.0,0.0,0.0,0.0,0.0,0.0,0.0,0.0,0.0,0.0,0.0,0.0,0.0,0.0,0.0,0.0,0.0,0.0,0.0,0.0,0.0,0.0,0.0,0.0,0.0,0.0,0.0,0.0,0.0,0.0,0.0,0.0,0.0,0.0,0.0,0.0,0.0,0.0,0.0,0.0,0.0,0.0,0.0,0.0,0.0,0.0,0.0,0.0,0.0,0.0,0.0,0.0,0.0,0.0,0.0,0.0,0.0,0.0,0.0,0.0,0.0,0.0,0.0,0.0,0.0,0.0,0.0,0.0,0.0,0.0,0.0,0.0,0.0,0.0,0.0,0.0,0.0,0.0,0.0,0.0,0.0,0.0,0.0,0.0,0.0,0.0,0.0,0.0,0.0,0.0,0.0,0.0,0.0,0.0,0.0,0.0,0.0,0.0,0.0,0.0,0.0,0.0,0.0,0.0,0.0,0.0,0.0,0.0,0.0,0.0,0.0,0.0,0.0,0.0,0.0,0.0,0.0,0.0,0.0,0.0,0.0,0.0,0.0,0.0,0.0,0.0,0.0,0.0,0.0,0.0,0.0,0.0,0.0,0.0,0.0,0.0,0.0,0.0,0.0,0.0,0.0,0.0,0.0,0.0,0.0,0.0,0.0,0.0,0.0,0.0,0.0,0.0,0.0,0.0,0.0,0.0,0.0,0.0,0.0,0.0,0.0,0.0,0.0,0.0,0.0,0.0,0.0,0.0,0.0,0.0,0.0,0.0,0.0,0.0,0.0,0.0,0.0,0.0,0.0,0.0,0.0,0.0,0.0,0.0,0.0,0.0,0.0,0.0,0.0,0.0,0.0,0.0,0.0,0.0,0.0,0.0,0.0,0.0,0.0,0.0,0.0,0.0,0.0,0.0,0.0,0.0,0.0,0.0,0.0,0.0,0.0,0.0,0.0,0.0,0.0,0.0,0.0,0.0,0.0,0.0,0.0,0.0,0.0,0.0,0.0,0.0,0.0,0.0,0.0,0.0,0.0,0.0,0.0,0.0,0.0,0.0,0.0,0.0,0.0,0.0,0.0,0.0,0.0,0.0,0.0,0.0,0.0,0.0,0.0,0.0,0.0,0.0,0.0,0.0,0.0,0.0,0.0,0.0,0.0,0.0,0.0,0.0,0.0,0.0,0.0,0.0,0.0,0.0,0.0,0.0,0.0,0.0,0.0,0.0,0.0,0.0,0.0,0.0,0.0,0.0,0.0,0.0,0.0,0.0,0.0,0.0,0.0,0.0,0.0,0.0,0.0,0.0,0.0,0.0,0.0,0.0,0.0,0.0,0.0,0.0,0.0,0.0,0.0,0.0,0.0,0.0,0.0,0.0,0.0,0.0,0.0,0.0,0.0,0.0,0.0,0.0,0.0,0.0,0.0,0.0,0.0,0.0,0.0,0.0,0.0,0.0,0.0,0.0,0.0,0.0,0.0,0.0,0.0,0.0,0.0,0.0,0.0,0.0,0.0,0.0,0.0,0.0,0.0,0.0,0.0,0.0,0.0,0.0,0.0,0.0,0.0,0.0,0.0,0.0,0.0,0.0,0.0,0.0,0.0,0.0,0.0,0.0,0.0,0.0,0.0,0.0,0.0,0.0,0.0,0.0,0.0,0.0,0.0,0.0,0.0,0.0,0.0,0.0,0.0,0.0,0.0,0.0,0.0,0.0,0.0,0.0,0.0,0.0,0.0,0.0,0.0,0.0,0.0,0.0,0.0,0.0,0.0,0.0,0.0,0.0,0.0,0.0,0.0,0.0,0.0,0.0,0.0,0.0,0.0,0.0,0.0,0.0,0.0,0.0,0.0,0.0,0.0,0.0,0.0,0.0,0.0,0.0,0.0,0.0,0.0,0.0,0.0,0.0,0.0,0.0,0.0,0.0,0.0,0.0,0.0,0.0,0.0,0.0,0.0,0.0,0.0,0.0,0.0,0.0,0.0,0.0,0.0,0.0,0.0,0.0,0.0,0.0,0.0,0.0,0.0,0.0,0.0,0.0,0.0,0.0,0.0,0.0,0.0,0.0,0.0,0.0,0.0,0.0,0.0,0.0,0.0,0.0,0.0,0.0,0.0,0.0,0.0,0.0,0.0,0.0,0.0,0.0,0.0,0.0,0.0,0.0,0.0,0.0,0.0,0.0,0.0,0.0,0.0,0.0,0.0,0.0,0.0,0.0,0.0,0.0,0.0,0.0,0.0,0.0,0.0,0.0,0.0,0.0,0.0,0.0,0.0,0.0,0.0,0.0,0.0,0.0,0.0,0.0,0.0,0.0,0.0,0.0,0.0,0.0,0.0,0.0,0.0,0.0,0.0,0.0,0.0,0.0,0.0,0.0,0.0,0.0,0.0,0.0,0.0,0.0,0.0,0.0,0.0,0.0,0.0,0.0,0.0,0.0,0.0,0.0,0.0,0.0,0.0,0.0,0.0,0.0,0.0,0.0,0.0,0.0,0.0,0.0,0.0,0.0,0.0,0.0,0.0,0.0,0.0,0.0,0.0,0.0,0.0,0.0,0.0,0.0,0.0,0.0,0.0,0.0,0.0,0.0,0.0,0.0,0.0,0.0,0.0,0.0,0.0,0.0,0.0,0.0,0.0,0.0,0.0,0.0,0.0,0.0,0.0,0.0,0.0,0.0,0.0,0.0,0.0,0.0,0.0,0.0,0.0,0.0,0.0,0.0,0.0,0.0,0.0,0.0,0.0,0.0,0.0,0.0,0.0,0.0,0.0,0.0,0.0,0.0,0.0,0.0,0.0,0.0,0.0,0.0,0.0,0.0,0.0,0.0,0.0,0.0,0.0,0.0,0.0,0.0,0.0,0.0,0.0,0.0,0.0,0.0,0.0,0.0,0.0,0.0,0.0,0.0,0.0,0.0,0.0,0.0,0.0,0.0,0.0,0.0,0.0,0.0,0.0,0.0,0.0,0.0,0.0,0.0,0.0,0.0,0.0,0.0,0.0,0.0,0.0,0.0,1.7744,0.0,0.0,0.0,0.0,0.0,0.0,0.0,0.0,0.0,0.0,0.0,0.0,0.0,0.0,0.0,0.0,0.0,0.0,0.0,0.0,0.0,0.0,0.0,0.0,0.0,0.0,0.0,0.0,0.0,0.0,0.0,0.0,0.0,0.0,0.0,0.0,0.0,0.0,0.0,0.0,0.0,0.0,0.0,0.0,0.0,0.0,0.0,0.0,0.0,0.0,0.0,0.0,0.0,0.0,0.0,0.0,0.0,0.0,0.0,0.0,0.0,0.0,0.0,0.0,0.0,0.0,0.0,0.0,0.0,0.0,0.0,0.0,0.0,0.0,0.0,0.0,0.0,0.0,0.0,0.0,0.0,0.0,0.0,0.0,0.0,0.0,0.0,0.0,0.0,0.0,0.0,0.0,0.0,0.0,0.0,0.0,0.0,0.0,0.0,0.0,0.0,0.0,0.0,0.0,0.0,0.0,0.0,0.0,0.0,0.0,1.9095,1.9095,1.8751,1.8552,1.8534,0.0,0.0,0.0,0.0,0.0,0.0,0.0,0.0,0.0,0.0,0.0,0.0,0.0,0.0,0.0,0.0,0.0,0.0,0.0,0.0,0.0,0.0,0.0,0.0,0.0,0.0,0.0,0.0,0.0,0.0,0.0,0.0,0.0,0.0,0.0,0.0,0.0,0.0,0.0,0.0,0.0,0.0,0.0,0.0,0.0,0.0,0.0,0.0,0.0,0.0,0.0,0.0,0.0,0.0,0.0,0.0,0.0,0.0,0.0,0.0,0.0,0.0,0.0,0.0,0.0,0.0,0.0,0.0,0.0,0.0,0.0,0.0,0.0,0.0,0.0,0.0,0.0,0.0,0.0,0.0,0.0,0.0,0.0,0.0,0.0,0.0,0.0,0.0,0.0,0.0,0.0,0.0,0.0,0.0,0.0,0.0,0.0,0.0,0.0,0.0,0.0,0.0,0.0,0.0,0.0,0.0,0.0,0.0,0.0,0.0,0.0,0.0,1.963,1.963,1.963,0.0,0.0,0.0,0.0,0.0,0.0,0.0,0.0,0.0,0.0,0.0,0.0,0.0,0.0,0.0,0.0,0.0,0.0,0.0,0.0,0.0,0.0,0.0,0.0,0.0,0.0,0.0,0.0,0.0,0.0,0.0,0.0,0.0,0.0,0.0,0.0,0.0,0.0,0.0,0.0,0.0,0.0,0.0,0.0,0.0,0.0,0.0,0.0,0.0,0.0,0.0,0.0,0.0,0.0,0.0,0.0,0.0,0.0,0.0,0.0,0.0,0.0,0.0,0.0,0.0,0.0,0.0,0.0,0.0,0.0,0.0,0.0,0.0,0.0,0.0,0.0,0.0,0.0,0.0,0.0,0.0,0.0,0.0,0.0,0.0,0.0,0.0,0.0,0.0,0.0,0.0,0.0,0.0,0.0,0.0,0.0,0.0,0.0,0.0,0.0,0.0,0.0,0.0,0.0,0.0,0.0,0.0,0.0,0.0,0.0,1.9793,2.1214,2.1269,0.0,2.1287,0.0,0.0,0.0,0.0,0.0,0.0,0.0,0.0,0.0,0.0,0.0,0.0,0.0,0.0,0.0,0.0,0.0,0.0,0.0,0.0,0.0,0.0,0.0,0.0,0.0,0.0,0.0,0.0,0.0,0.0,0.0,0.0,0.0,0.0,0.0,0.0,0.0,0.0,0.0,0.0,0.0,0.0,0.0,0.0,0.0,0.0,0.0,0.0,0.0,0.0,0.0,0.0,0.0,0.0,0.0,0.0,0.0,0.0,0.0,0.0,0.0,0.0,0.0,0.0,0.0,0.0,0.0,0.0,0.0,0.0,0.0,0.0,0.0,0.0,0.0,0.0,0.0,0.0,0.0,0.0,0.0,0.0,0.0,0.0,0.0,0.0,0.0,0.0,0.0,0.0,0.0,0.0,0.0,0.0,0.0,0.0,0.0,0.0,0.0,0.0,0.0,0.0,0.0,0.0,0.0,0.0,0.0,0.0,0.0,0.0,0.0,2.1468,2.1486,2.1486,0.0,0.0,0.0,0.0,0.0,0.0,0.0,0.0,0.0,0.0,0.0,0.0,0.0,0.0,0.0,0.0,0.0,0.0,0.0,0.0,0.0,0.0,0.0,0.0,0.0,0.0,0.0,0.0,0.0,0.0,0.0,0.0,0.0,0.0,0.0,0.0,0.0,0.0,0.0,0.0,0.0,0.0,0.0,0.0,0.0,0.0,0.0,0.0,0.0,0.0,0.0,0.0,0.0,0.0,0.0,0.0,0.0,0.0,0.0,0.0,0.0,0.0,0.0,0.0,0.0,0.0,0.0,0.0,0.0,0.0,0.0,0.0,0.0,0.0,0.0,0.0,0.0,0.0,0.0,0.0,0.0,0.0,0.0,0.0,0.0,0.0,0.0,0.0,0.0,0.0,0.0,0.0,0.0,0.0,0.0,0.0,0.0,0.0,0.0,0.0,0.0,0.0,0.0,0.0,0.0,0.0,0.0,0.0,0.0,0.0,2.1133,0.0,2.2111,2.2147,2.1839,2.1178,0.0,0.0,0.0,0.0,0.0,0.0,0.0,0.0,0.0,0.0,0.0,0.0,0.0,0.0,0.0,0.0,0.0,0.0,0.0,0.0,0.0,0.0,0.0,0.0,0.0,0.0,0.0,0.0,0.0,0.0,0.0,0.0,0.0,0.0,0.0,0.0,0.0,0.0,0.0,0.0,0.0,0.0,0.0,0.0,0.0,0.0,0.0,0.0,0.0,0.0,0.0,0.0,0.0,0.0,0.0,0.0,0.0,0.0,0.0,0.0,0.0,0.0,0.0,0.0,0.0,0.0,0.0,0.0,0.0,0.0,0.0,0.0,0.0,0.0,0.0,0.0,0.0,0.0,0.0,0.0,0.0,0.0,0.0,0.0,0.0,0.0,0.0,0.0,0.0,0.0,0.0,0.0,0.0,0.0,0.0,0.0,0.0,0.0,0.0,0.0,0.0,0.0,0.0,0.0,0.0,0.0,0.0,0.0,0.0,2.2202,2.222,2.3643,2.3697,2.2636,0.0,0.0,0.0,0.0,0.0,0.0,0.0,0.0,0.0,0.0,0.0,0.0,0.0,0.0,0.0,0.0,0.0,0.0,0.0,0.0,0.0,0.0,0.0,0.0,0.0,0.0,0.0,0.0,0.0,0.0,0.0,0.0,0.0,0.0,0.0,0.0,0.0,0.0,0.0,0.0,0.0,0.0,0.0,0.0,0.0,0.0,0.0,0.0,0.0,0.0,0.0,0.0,0.0,0.0,0.0,0.0,0.0,0.0,0.0,0.0,0.0,0.0,0.0,0.0,0.0,0.0,0.0,0.0,0.0,0.0,0.0,0.0,0.0,0.0,0.0,0.0,0.0,0.0,0.0,0.0,0.0,0.0,0.0,0.0,0.0,0.0,0.0,0.0,0.0,0.0,0.0,0.0,0.0,0.0,0.0,0.0,0.0,0.0,0.0,0.0,0.0,0.0,0.0,0.0,0.0,0.0,0.0,0.0,0.0,2.0566,2.1176,2.2745,2.5117,2.2908,2.164,0.0,0.0,0.0,0.0,0.0,0.0,0.0,0.0,0.0,0.0,0.0,0.0,0.0,0.0,0.0,0.0,0.0,0.0,0.0,0.0,0.0,0.0,0.0,0.0,0.0,0.0,0.0,0.0,0.0,0.0,0.0,0.0,0.0,0.0,0.0,0.0,0.0,0.0,0.0,0.0,0.0,0.0,0.0,0.0,0.0,0.0,0.0,0.0,0.0,0.0,0.0,0.0,0.0,0.0,0.0,0.0,0.0,0.0,0.0,0.0,0.0,0.0,0.0,0.0,0.0,0.0,0.0,0.0,0.0,0.0,0.0,0.0,0.0,0.0,0.0,0.0,0.0,0.0,0.0,0.0,0.0,0.0,0.0,0.0,0.0,0.0,0.0,0.0,0.0,0.0,0.0,0.0,0.0,0.0,0.0,0.0,0.0,0.0,0.0,0.0,0.0,0.0,0.0,0.0,0.0,0.0,0.0,0.0,0.0,1.9929,0.0,2.3569,0.0,2.2468,2.0886,0.0,0.0,0.0,0.0,0.0,0.0,0.0,0.0,0.0,0.0,0.0,0.0,0.0,0.0,0.0,0.0,0.0,0.0,0.0,0.0,0.0,0.0,0.0,0.0,0.0,0.0,0.0,0.0,0.0,0.0,0.0,0.0,0.0,0.0,0.0,0.0,0.0,0.0,0.0,0.0,0.0,0.0,0.0,0.0,0.0,0.0,0.0,0.0,0.0,0.0,0.0,0.0,0.0,0.0,0.0,0.0,0.0,0.0,0.0,0.0,0.0,0.0,0.0,0.0,0.0,0.0,0.0,0.0,0.0,0.0,0.0,0.0,0.0,0.0,0.0,0.0,0.0,0.0,0.0,0.0,0.0,0.0,0.0,0.0,0.0,0.0,0.0,0.0,0.0,0.0,0.0,0.0,0.0,0.0,0.0,0.0,0.0,0.0,0.0,0.0,0.0,0.0,0.0,0.0,0.0,0.0,0.0,0.0,1.9345,2.2056,2.4073,2.4569,2.3501,2.2551,2.0479,0.0,0.0,0.0,0.0,0.0,0.0,0.0,0.0,0.0,0.0,0.0,0.0,0.0,0.0,0.0,0.0,0.0,0.0,0.0,0.0,0.0,0.0,0.0,0.0,0.0,0.0,0.0,0.0,0.0,0.0,0.0,0.0,0.0,0.0,0.0,0.0,0.0,0.0,0.0,0.0,0.0,0.0,0.0,0.0,0.0,0.0,0.0,0.0,0.0,0.0,0.0,0.0,0.0,0.0,0.0,0.0,0.0,0.0,0.0,0.0,0.0,0.0,0.0,0.0,0.0,0.0,0.0,0.0,0.0,0.0,0.0,0.0,0.0,0.0,0.0,0.0,0.0,0.0,0.0,0.0,0.0,0.0,0.0,0.0,0.0,0.0,0.0,0.0,0.0,0.0,0.0,0.0,0.0,0.0,0.0,0.0,0.0,0.0,0.0,0.0,0.0,0.0,0.0,0.0,0.0,0.0,0.0,0.0,0.0,2.0449,2.2442,2.3985,2.4903,2.1811,2.0543,0.0,0.0,0.0,0.0,0.0,0.0,0.0,0.0,0.0,0.0,0.0,0.0,0.0,0.0,0.0,0.0,0.0,0.0,0.0,0.0,0.0,0.0,0.0,0.0,0.0,0.0,0.0,0.0,0.0,0.0,0.0,0.0,0.0,0.0,0.0,0.0,0.0,0.0,0.0,0.0,0.0,0.0,0.0,0.0,0.0,0.0,0.0,0.0,0.0,0.0,0.0,0.0,0.0,0.0,0.0,0.0,0.0,0.0,0.0,0.0,0.0,0.0,0.0,0.0,0.0,0.0,0.0,0.0,0.0,0.0,0.0,0.0,0.0,0.0,0.0,0.0,0.0,0.0,0.0,0.0,0.0,0.0,0.0,0.0,0.0,0.0,0.0,0.0,0.0,0.0,0.0,0.0,0.0,0.0,0.0,0.0,0.0,0.0,0.0,0.0,0.0,0.0,0.0,0.0,0.0,0.0,0.0,0.0,0.0,2.1952,2.3774,2.5052,2.5574,2.2418,2.1129,2.193,0.0,0.0,0.0,0.0,0.0,0.0,0.0,0.0,0.0,0.0,0.0,0.0,0.0,0.0,0.0,0.0,0.0,0.0,0.0,0.0,0.0,0.0,0.0,0.0,0.0,0.0,0.0,0.0,0.0,0.0,0.0,0.0,0.0,0.0,0.0,0.0,0.0,0.0,0.0,0.0,0.0,0.0,0.0,0.0,0.0,0.0,0.0,0.0,0.0,0.0,0.0,0.0,0.0,0.0,0.0,0.0,0.0,0.0,0.0,0.0,0.0,0.0,0.0,0.0,0.0,0.0,0.0,0.0,0.0,0.0,0.0,0.0,0.0,0.0,0.0,0.0,0.0,0.0,0.0,0.0,0.0,0.0,0.0,0.0,0.0,0.0,0.0,0.0,0.0,0.0,0.0,0.0,0.0,0.0,0.0,0.0,0.0,0.0,0.0,0.0,0.0,0.0,0.0,0.0,0.0,0.0,0.0,0.0,2.5794,2.7701,2.766,2.5582,2.4166,2.2203,0.0,0.0,0.0,0.0,0.0,0.0,0.0,0.0,0.0,0.0,0.0,0.0,0.0,0.0,0.0,0.0,0.0,0.0,0.0,0.0,0.0,0.0,0.0,0.0,0.0,0.0,0.0,0.0,0.0,0.0,0.0,0.0,0.0,0.0,0.0,0.0,0.0,0.0,0.0,0.0,0.0,0.0,0.0,0.0,0.0,0.0,0.0,0.0,0.0,0.0,0.0,0.0,0.0,0.0,0.0,0.0,0.0,0.0,0.0,0.0,0.0,0.0,0.0,0.0,0.0,0.0,0.0,0.0,0.0,0.0,0.0,0.0,0.0,0.0,0.0,0.0,0.0,0.0,0.0,0.0,0.0,0.0,0.0,0.0,0.0,0.0,0.0,0.0,0.0,0.0,0.0,0.0,0.0,0.0,0.0,0.0,0.0,0.0,0.0,0.0,0.0,0.0,0.0,0.0,0.0,0.0,0.0,0.0,0.0,2.8339,3.0855,3.1058,2.8776,2.5818,2.3991,0.0,0.0,0.0,0.0,0.0,0.0,0.0,0.0,0.0,0.0,0.0,0.0,0.0,0.0,0.0,0.0,0.0,0.0,0.0,0.0,0.0,0.0,0.0,0.0,0.0,0.0,0.0,0.0,0.0,0.0,0.0,0.0,0.0,0.0,0.0,0.0,0.0,0.0,0.0,0.0,0.0,0.0,0.0,0.0,0.0,0.0,0.0,0.0,0.0,0.0,0.0,0.0,0.0,0.0,0.0,0.0,0.0,0.0,0.0,0.0,0.0,0.0,0.0,0.0,0.0,0.0,0.0,0.0,0.0,0.0,0.0,0.0,0.0,0.0,0.0,0.0,0.0,0.0,0.0,0.0,0.0,0.0,0.0,0.0,0.0,0.0,0.0,0.0,0.0,0.0,0.0,0.0,0.0,0.0,0.0,0.0,0.0,0.0,0.0,0.0,0.0,0.0,0.0,0.0,0.0,0.0,0.0,0.0,2.7131,3.0559,3.2639,3.2893,3.122,2.8628,2.6351,0.0,0.0,0.0,0.0,0.0,0.0,0.0,0.0,0.0,0.0,0.0,0.0,0.0,0.0,0.0,0.0,0.0,0.0,0.0,0.0,0.0,0.0,0.0,0.0,0.0,0.0,0.0,0.0,0.0,0.0,0.0,0.0,0.0,0.0,0.0,0.0,0.0,0.0,0.0,0.0,0.0,0.0,0.0,0.0,0.0,0.0,0.0,0.0,0.0,0.0,0.0,0.0,0.0,0.0,0.0,0.0,0.0,0.0,0.0,0.0,0.0,0.0,0.0,0.0,0.0,0.0,0.0,0.0,0.0,0.0,0.0,0.0,0.0,0.0,0.0,0.0,0.0,0.0,0.0,0.0,0.0,0.0,0.0,0.0,0.0,0.0,0.0,0.0,0.0,0.0,0.0,0.0,0.0,0.0,0.0,0.0,0.0,0.0,0.0,0.0,0.0,0.0,0.0,0.0,0.0,0.0,0.0,0.0,2.8704,3.231,3.3622,3.3869,3.3053,3.1689,2.8773,0.0,0.0,0.0,0.0,0.0,0.0,0.0,0.0,0.0,0.0,0.0,0.0,0.0,0.0,0.0,0.0,0.0,0.0,0.0,0.0,0.0,0.0,0.0,0.0,0.0,0.0,0.0,0.0,0.0,0.0,0.0,0.0,0.0,0.0,0.0,0.0,0.0,0.0,0.0,0.0,0.0,0.0,0.0,0.0,0.0,0.0,0.0,0.0,0.0,0.0,0.0,0.0,0.0,0.0,0.0,0.0,0.0,0.0,0.0,0.0,0.0,0.0,0.0,0.0,0.0,0.0,0.0,0.0,0.0,0.0,0.0,0.0,0.0,0.0,0.0,0.0,0.0,0.0,0.0,0.0,0.0,0.0,0.0,0.0,0.0,0.0,0.0,0.0,0.0,0.0,0.0,0.0,0.0,0.0,0.0,0.0,0.0,0.0,0.0,0.0,0.0,0.0,0.0,0.0,0.0,0.0,0.0,0.0,3.0025,3.3068,3.4884,3.5435,3.4619,3.2012,2.8929,0.0,0.0,0.0,0.0,0.0,0.0,0.0,0.0,0.0,0.0,0.0,0.0,0.0,0.0,0.0,0.0,0.0,0.0,0.0,0.0,0.0,0.0,0.0,0.0,0.0,0.0,0.0,0.0,0.0,0.0,0.0,0.0,0.0,0.0,0.0,0.0,0.0,0.0,0.0,0.0,0.0,0.0,0.0,0.0,0.0,0.0,0.0,0.0,1.8096,0.0,0.0,0.0,0.0,0.0,0.0,0.0,0.0,0.0,0.0,0.0,0.0,0.0,0.0,0.0,0.0,0.0,0.0,0.0,0.0,0.0,0.0,0.0,0.0,0.0,0.0,0.0,0.0,0.0,0.0,0.0,0.0,0.0,0.0,0.0,0.0,0.0,0.0,0.0,0.0,0.0,0.0,0.0,0.0,0.0,0.0,0.0,0.0,0.0,0.0,0.0,0.0,0.0,0.0,0.0,0.0,0.0,0.0,0.0,3.1312,3.3867,3.5467,3.5834,3.4805,3.3073,3.0454,0.0,0.0,0.0,0.0,0.0,0.0,0.0,0.0,0.0,0.0,0.0,0.0,0.0,0.0,0.0,0.0,0.0,0.0,0.0,0.0,0.0,0.0,0.0,0.0,0.0,0.0,0.0,0.0,0.0,0.0,0.0,0.0,0.0,0.0,0.0,0.0,0.0,0.0,0.0,0.0,0.0,0.0,0.0,0.0,0.0,0.0,0.0,0.0,0.0,0.0,0.0,0.0,0.0,0.0,0.0,0.0,0.0,0.0,0.0,0.0,0.0,0.0,0.0,0.0,0.0,0.0,0.0,0.0,0.0,0.0,0.0,0.0,0.0,0.0,0.0,0.0,0.0,0.0,0.0,0.0,0.0,0.0,0.0,0.0,0.0,0.0,0.0,0.0,0.0,0.0,0.0,0.0,0.0,0.0,0.0,0.0,0.0,0.0,0.0,0.0,0.0,0.0,0.0,0.0,0.0,0.0,0.0,2.96,3.2324,3.4612,3.5797,3.5835,3.4701,3.4399,3.2369,2.8431,0.0,0.0,0.0,0.0,0.0,0.0,0.0,0.0,0.0,0.0,0.0,0.0,0.0,0.0,0.0,0.0,0.0,0.0,0.0,0.0,0.0,0.0,0.0,0.0,0.0,0.0,0.0,0.0,0.0,0.0,0.0,0.0,0.0,0.0,0.0,0.0,0.0,0.0,1.8858,2.0518,0.0,0.0,0.0,0.0,0.0,0.0,0.0,0.0,1.9664,0.0,0.0,0.0,0.0,0.0,0.0,0.0,0.0,0.0,0.0,0.0,0.0,0.0,0.0,0.0,0.0,0.0,0.0,0.0,0.0,0.0,0.0,0.0,0.0,0.0,0.0,0.0,0.0,0.0,0.0,0.0,0.0,0.0,0.0,0.0,0.0,0.0,0.0,0.0,0.0,0.0,0.0,0.0,0.0,0.0,0.0,0.0,0.0,0.0,0.0,0.0,0.0,0.0,0.0,0.0,0.0,3.0176,3.0886,3.256,3.5368,3.6288,3.6305,3.5475,3.5416,3.3529,2.9575,0.0,0.0,0.0,0.0,0.0,0.0,0.0,0.0,0.0,0.0,0.0,0.0,0.0,0.0,0.0,0.0,0.0,0.0,0.0,0.0,0.0,0.0,0.0,0.0,0.0,0.0,0.0,0.0,0.0,0.0,0.0,0.0,0.0,0.0,0.0,0.0,0.0,0.0,0.0,2.3427,2.4794,0.0,0.0,0.0,0.0,0.0,0.0,0.0,0.0,1.955,0.0,0.0,0.0,0.0,0.0,0.0,0.0,0.0,0.0,0.0,0.0,0.0,0.0,0.0,0.0,0.0,0.0,0.0,0.0,0.0,0.0,0.0,0.0,0.0,0.0,0.0,0.0,0.0,0.0,0.0,0.0,0.0,0.0,0.0,0.0,0.0,0.0,0.0,0.0,0.0,0.0,0.0,0.0,0.0,0.0,0.0,0.0,0.0,0.0,0.0,0.0,0.0,0.0,0.0,0.0,2.9905,3.2307,3.4573,3.6681,3.6772,3.6626,3.6203,3.4533,3.2403,0.0,0.0,0.0,0.0,0.0,0.0,0.0,0.0,0.0,0.0,0.0,0.0,0.0,0.0,0.0,0.0,0.0,0.0,0.0,0.0,0.0,0.0,0.0,0.0,0.0,0.0,0.0,0.0,0.0,0.0,0.0,0.0,0.0,0.0,0.0,0.0,0.0,0.0,0.0,0.0,2.4792,2.5607,2.5644,0.0,0.0,0.0,0.0,0.0,0.0,2.1619,2.0817,0.0,0.0,0.0,0.0,0.0,0.0,0.0,0.0,0.0,0.0,0.0,0.0,0.0,0.0,0.0,0.0,0.0,0.0,0.0,0.0,0.0,0.0,0.0,0.0,0.0,0.0,0.0,0.0,0.0,0.0,0.0,0.0,0.0,0.0,0.0,0.0,0.0,0.0,0.0,0.0,0.0,0.0,0.0,0.0,0.0,0.0,0.0,0.0,0.0,0.0,0.0,0.0,0.0,0.0,0.0,2.9191,3.3246,3.6128,3.7739,3.7418,3.7094,3.6761,3.4093,3.17,0.0,0.0,0.0,0.0,0.0,0.0,0.0,0.0,0.0,0.0,0.0,0.0,0.0,0.0,0.0,0.0,0.0,0.0,0.0,0.0,0.0,0.0,0.0,0.0,0.0,0.0,0.0,0.0,0.0,0.0,0.0,0.0,0.0,0.0,0.0,0.0,0.0,0.0,0.0,0.0,0.0,2.6872,2.6875,2.6556,0.0,0.0,0.0,0.0,2.4772,2.4305,0.0,0.0,0.0,0.0,0.0,0.0,0.0,0.0,0.0,0.0,0.0,0.0,0.0,0.0,0.0,0.0,0.0,0.0,0.0,0.0,0.0,0.0,0.0,0.0,0.0,0.0,0.0,0.0,0.0,0.0,0.0,0.0,0.0,0.0,0.0,0.0,0.0,0.0,0.0,0.0,0.0,0.0,0.0,0.0,0.0,0.0,0.0,0.0,0.0,0.0,0.0,0.0,0.0,0.0,0.0,0.0,2.9717,3.2862,3.5525,3.7619,3.8268,3.8005,3.6846,3.6135,3.3844,0.0,0.0,0.0,0.0,0.0,0.0,0.0,0.0,0.0,0.0,0.0,0.0,0.0,0.0,0.0,0.0,0.0,0.0,0.0,0.0,0.0,0.0,0.0,0.0,0.0,0.0,0.0,0.0,0.0,0.0,0.0,0.0,0.0,0.0,0.0,0.0,0.0,0.0,0.0,0.0,0.0,3.0821,2.8215,2.8392,2.8489,0.0,0.0,2.771,2.8444,2.9074,0.0,0.0,0.0,0.0,0.0,0.0,0.0,0.0,0.0,0.0,0.0,0.0,0.0,0.0,0.0,0.0,0.0,0.0,0.0,0.0,0.0,0.0,0.0,0.0,0.0,0.0,0.0,0.0,0.0,0.0,0.0,0.0,0.0,0.0,0.0,0.0,0.0,0.0,0.0,0.0,0.0,0.0,0.0,0.0,0.0,0.0,0.0,0.0,0.0,0.0,0.0,0.0,0.0,0.0,0.0,2.6943,3.0521,3.4374,3.7172,3.8857,3.8932,3.8449,3.7449,3.5227,3.2458,0.0,0.0,0.0,0.0,0.0,0.0,0.0,0.0,0.0,0.0,0.0,0.0,0.0,0.0,0.0,0.0,0.0,0.0,0.0,0.0,0.0,0.0,0.0,0.0,0.0,0.0,0.0,0.0,0.0,0.0,0.0,0.0,0.0,0.0,0.0,0.0,0.0,0.0,0.0,0.0,0.0,0.0,3.0607,3.0864,0.0,0.0,0.0,3.0065,3.0546,0.0,0.0,0.0,0.0,0.0,0.0,0.0,0.0,0.0,0.0,0.0,0.0,0.0,0.0,0.0,0.0,0.0,0.0,0.0,0.0,0.0,0.0,0.0,0.0,0.0,0.0,0.0,0.0,0.0,0.0,0.0,0.0,0.0,0.0,0.0,0.0,0.0,0.0,0.0,0.0,0.0,0.0,0.0,0.0,0.0,0.0,0.0,0.0,0.0,0.0,0.0,0.0,0.0,0.0,0.0,0.0,0.0,3.0945,3.5418,3.8444,3.9765,3.9396,3.8762,3.7865,3.4776,0.0,0.0,0.0,0.0,0.0,0.0,0.0,0.0,0.0,0.0,0.0,0.0,0.0,0.0,0.0,0.0,0.0,0.0,0.0,0.0,0.0,0.0,0.0,0.0,0.0,0.0,0.0,1.3602,0.0,0.0,0.0,0.0,0.0,0.0,0.0,0.0,0.0,0.0,0.0,0.0,0.0,0.0,3.1349,3.2359,3.2985,3.3383,0.0,0.0,3.2541,3.2741,3.2539,3.1241,0.0,0.0,0.0,0.0,0.0,0.0,0.0,0.0,0.0,0.0,0.0,0.0,0.0,0.0,0.0,0.0,0.0,0.0,0.0,0.0,0.0,0.0,0.0,0.0,0.0,0.0,0.0,0.0,0.0,0.0,0.0,0.0,0.0,0.0,0.0,0.0,0.0,0.0,0.0,0.0,0.0,0.0,0.0,0.0,0.0,0.0,0.0,0.0,0.0,0.0,0.0,0.0,0.0,0.0,0.0,3.0738,3.5071,3.812,3.9636,3.9679,3.9093,3.7915,3.6282,3.3107,0.0,0.0,0.0,0.0,0.0,0.0,0.0,0.0,0.0,0.0,0.0,0.0,0.0,0.0,0.0,0.0,0.0,0.0,0.0,0.0,0.0,0.0,0.0,0.0,0.0,0.0,0.0,0.0,0.0,0.0,0.0,0.0,0.0,0.0,0.0,0.0,0.0,0.0,0.0,0.0,0.0,3.3186,3.2511,3.4338,3.5778,0.0,0.0,3.5687,3.5717,3.6943,3.5897,2.9934,0.0,0.0,0.0,0.0,0.0,0.0,0.0,0.0,0.0,0.0,0.0,0.0,0.0,0.0,0.0,0.0,0.0,0.0,0.0,0.0,0.0,0.0,0.0,0.0,0.0,0.0,0.0,0.0,0.0,0.0,0.0,0.0,0.0,0.0,0.0,0.0,0.0,0.0,0.0,0.0,0.0,0.0,0.0,0.0,0.0,0.0,0.0,0.0,0.0,0.0,0.0,0.0,0.0,2.8479,3.1311,3.5769,3.8622,3.9653,3.9781,3.9413,3.8599,3.6631,3.3494,0.0,0.0,0.0,0.0,0.0,0.0,0.0,0.0,0.0,0.0,0.0,0.0,0.0,0.0,0.0,0.0,0.0,0.0,0.0,0.0,0.0,0.0,0.0,0.0,0.0,0.0,0.0,0.0,1.8229,1.8927,1.9373,0.0,0.0,0.0,0.0,0.0,0.0,0.0,0.0,0.0,0.0,3.4717,3.5866,3.7267,0.0,0.0,3.774,3.7444,3.7473,3.6337,3.4516,3.1646,2.9669,0.0,0.0,0.0,0.0,0.0,0.0,0.0,0.0,0.0,0.0,0.0,0.0,0.0,0.0,0.0,0.0,0.0,0.0,0.0,0.0,0.0,0.0,0.0,0.0,0.0,0.0,0.0,0.0,0.0,0.0,0.0,0.0,0.0,0.0,0.0,0.0,0.0,0.0,0.0,0.0,0.0,0.0,0.0,0.0,0.0,0.0,0.0,0.0,0.0,0.0,0.0,0.0,2.884,3.1651,3.6154,3.8881,3.9687,3.9781,3.9573,3.8971,3.7026,3.3927,0.0,0.0,0.0,0.0,0.0,0.0,0.0,0.0,0.0,0.0,0.0,0.0,0.0,0.0,0.0,0.0,0.0,0.0,0.0,0.0,0.0,0.0,0.0,0.0,0.0,0.0,0.0,0.0,2.0534,2.0826,2.0037,0.0,0.0,0.0,0.0,0.0,0.0,0.0,0.0,0.0,0.0,3.5932,3.8276,3.9092,3.9455,3.9455,3.8601,3.7927,3.799,3.6097,3.4146,3.2689,0.0,0.0,0.0,0.0,0.0,0.0,0.0,0.0,0.0,0.0,0.0,0.0,0.0,0.0,0.0,0.0,0.0,0.0,0.0,0.0,0.0,0.0,0.0,0.0,0.0,0.0,0.0,2.2841,0.0,0.0,2.1731,0.0,0.0,0.0,0.0,0.0,0.0,0.0,0.0,0.0,0.0,0.0,0.0,0.0,0.0,0.0,0.0,0.0,0.0,0.0,0.0,0.0,0.0,2.8757,3.1615,3.6009,3.869,3.9661,3.9703,3.9496,3.9022,3.7533,3.4663,3.0178,0.0,0.0,0.0,0.0,0.0,0.0,0.0,0.0,0.0,0.0,0.0,0.0,0.0,0.0,0.0,0.0,0.0,0.0,0.0,0.0,0.0,0.0,0.0,0.0,0.0,0.0,2.0237,2.03,2.0047,0.0,0.0,0.0,0.0,0.0,0.0,0.0,0.0,0.0,0.0,3.4304,3.6751,3.9042,3.9423,3.9513,3.9459,3.8118,3.7085,3.712,3.7005,3.5963,0.0,0.0,0.0,0.0,0.0,0.0,0.0,0.0,0.0,0.0,0.0,0.0,0.0,0.0,0.0,0.0,0.0,0.0,0.0,0.0,0.0,0.0,0.0,0.0,0.0,0.0,0.0,2.6287,2.5774,0.0,0.0,0.0,0.0,0.0,0.0,0.0,0.0,0.0,0.0,0.0,3.131,3.2287,0.0,0.0,0.0,0.0,0.0,0.0,0.0,0.0,0.0,0.0,0.0,0.0,2.9897,3.2415,3.6688,3.9129,3.9547,3.9563,3.9577,3.9564,3.7643,3.4163,2.8987,0.0,0.0,0.0,0.0,0.0,0.0,0.0,0.0,0.0,0.0,0.0,0.0,0.0,0.0,0.0,0.0,0.0,0.0,0.0,0.0,0.0,0.0,0.0,0.0,0.0,2.0997,0.0,0.0,0.0,0.0,0.0,0.0,0.0,0.0,0.0,0.0,0.0,3.1705,3.3556,3.6796,3.9241,4.0021,4.1035,4.1524,0.0,0.0,0.0,0.0,0.0,0.0,0.0,0.0,0.0,0.0,0.0,0.0,0.0,0.0,3.6302,3.0203,2.8294,2.7848,2.8402,0.0,0.0,0.0,0.0,0.0,0.0,0.0,0.0,0.0,0.0,0.0,0.0,0.0,0.0,2.9768,0.0,2.8241,0.0,0.0,0.0,0.0,0.0,0.0,0.0,0.0,3.3143,3.4535,3.5022,3.5711,3.5164,0.0,3.3021,3.0559,0.0,0.0,0.0,0.0,0.0,0.0,0.0,0.0,3.0874,3.3166,3.7177,3.9352,3.9501,3.9484,3.9633,3.9867,3.7485,3.4011,2.9396,2.655,2.3969,0.0,0.0,0.0,0.0,0.0,0.0,0.0,0.0,0.0,0.0,0.0,0.0,0.0,0.0,0.0,0.0,0.0,0.0,0.0,0.0,0.0,0.0,0.0,2.2528,0.0,0.0,0.0,0.0,0.0,0.0,0.0,0.0,0.0,2.8323,3.1745,3.4842,3.6453,3.9116,4.1035,4.1307,0.0,0.0,0.0,0.0,0.0,0.0,0.0,3.659,3.7352,3.6708,3.6194,3.6556,3.8335,3.9293,3.7942,0.0,0.0,3.4357,3.2803,3.2508,3.2795,3.3272,3.3845,3.4705,3.6003,3.6978,0.0,0.0,0.0,0.0,0.0,0.0,0.0,0.0,3.3326,3.3365,0.0,3.1669,0.0,0.0,0.0,0.0,2.874,3.1392,0.0,0.0,3.7857,3.9315,3.9265,3.8609,3.7888,3.7235,3.7119,3.5595,3.2652,2.8588,0.0,0.0,0.0,0.0,0.0,0.0,3.1669,3.3839,3.7442,3.9352,3.9501,3.9484,3.9582,3.9707,3.7118,3.4286,3.136,2.9076,2.6605,2.3844,2.1644,0.0,0.0,0.0,0.0,0.0,0.0,0.0,0.0,0.0,0.0,0.0,0.0,0.0,0.0,0.0,0.0,0.0,0.0,0.0,0.0,2.3361,0.0,0.0,0.0,0.0,0.0,0.0,0.0,0.0,0.0,0.0,3.2542,3.4516,3.7071,4.0039,0.0,0.0,0.0,0.0,4.1741,4.1741,4.0456,3.9496,3.9478,3.9387,3.9115,3.8462,0.0,0.0,3.7788,3.9266,4.0103,3.7861,3.9737,4.156,4.2038,4.0114,3.9079,3.9823,3.8686,3.8171,3.8973,3.9728,4.0358,3.9537,0.0,0.0,0.0,0.0,3.6754,3.8228,4.068,3.8924,3.8022,3.7591,3.5396,0.0,0.0,0.0,0.0,0.0,0.0,3.5346,3.7284,3.8685,3.9829,4.0779,4.0597,4.0133,3.9437,3.8934,3.7698,3.581,3.4054,3.051,2.5374,0.0,0.0,0.0,0.0,3.3425,3.4684,3.7707,3.9325,3.9352,3.9448,3.9131,3.8353,3.7091,3.5284,3.2848,3.114,2.9111,2.669,2.459,0.0,0.0,0.0,0.0,0.0,0.0,0.0,0.0,0.0,0.0,0.0,0.0,0.0,0.0,0.0,0.0,0.0,0.0,0.0,2.1749,2.3071,2.4096,0.0,0.0,0.0,0.0,0.0,0.0,0.0,0.0,0.0,3.7142,3.8391,3.9478,0.0,0.0,4.2429,4.2085,4.2339,4.2556,4.2556,4.1705,0.0,4.1017,4.0111,3.9695,4.0564,4.1597,4.2032,4.1379,4.1887,4.2196,4.1469,4.2268,4.3085,4.3137,4.1801,4.0758,4.0988,4.0731,4.0903,4.224,4.2784,4.3109,4.4903,4.2291,3.9824,3.9487,4.0531,4.0415,4.1744,4.3976,4.2651,4.2033,4.1752,3.9537,3.7301,3.5015,3.3408,0.0,0.0,0.0,3.7814,3.9924,4.0365,4.1177,4.2208,4.1976,4.164,4.1193,4.0227,3.9282,3.8394,3.7367,3.4601,3.0228,0.0,0.0,2.935,3.2845,3.5048,3.5843,3.8105,3.9315,3.9315,3.9484,3.894,3.7666,3.7371,3.6163,3.3931,3.2983,3.1461,2.9245,2.7386,2.4948,0.0,0.0,0.0,0.0,0.0,0.0,0.0,0.0,0.0,0.0,0.0,1.8171,0.0,0.0,0.0,0.0,2.164,2.3234,2.4664,2.5654,0.0,0.0,0.0,0.0,0.0,0.0,0.0,3.495,3.6944,3.8664,4.013,4.1252,4.1814,4.1506,4.2285,4.2828,4.2665,0.0,4.348,4.3825,4.3444,4.3008,4.2701,4.1868,4.1488,4.2067,4.2538,4.2901,4.2919,4.2975,4.303,4.3068,4.3268,4.3494,4.3609,4.2787,4.229,4.2685,4.2914,4.3367,4.436,4.4503,4.4685,4.9243,4.8779,4.4075,4.2473,4.3098,4.3747,4.4456,4.5102,4.5033,4.5365,4.5798,4.3661,4.1939,4.0481,3.7814,0.0,3.973,3.973,4.0812,4.2721,4.2688,4.3019,4.3631,4.292,4.2555,4.2456,4.1177,4.0558,4.0409,3.904,3.7698,3.6357,3.4932,3.4104,3.3955,3.5413,3.6522,3.7201,3.8586,3.9299,3.9325,3.9573,3.9017,3.7568,3.7761,3.684,3.4624,3.4421,3.344,3.1396,2.989,2.7504,2.4137,0.0,0.0,0.0,0.0,0.0,0.0,0.0,0.0,0.0,0.0,0.0,0.0,0.0,0.0,0.0,2.4726,0.0,2.9585,2.9857,0.0,0.0,0.0,3.0509,3.156,3.4244,3.6616,3.8192,0.0,0.0,4.1868,4.319,4.3861,4.3191,4.3081,4.3372,4.4095,4.4168,4.4458,4.511,4.5254,4.5019,4.4222,4.3951,4.3552,4.2955,4.2919,4.2919,4.2919,4.2919,4.2919,4.2919,4.2994,4.316,4.3404,4.3498,4.3881,4.4342,4.4804,4.5107,4.5148,4.5148,4.5178,5.0452,4.9856,4.8597,4.7901,4.757,4.7736,4.8216,4.8796,4.7719,4.7305,4.7322,4.5135,4.3678,4.2816,4.2092,4.2386,4.3426,4.3396,4.3976,4.4937,4.444,4.4274,4.439,4.3664,4.3035,4.2489,4.2158,4.1707,4.1143,4.0282,3.9713,3.9305,3.8453,3.6879,3.48,3.6655,3.7781,3.7921,3.8851,3.9405,3.9599,3.9677,3.9093,3.7843,3.7858,3.684,3.459,3.3947,3.3152,3.209,3.0632,2.889,2.6894,2.3721,0.0,0.0,0.0,0.0,0.0,0.0,0.0,0.0,0.0,2.3107,1.9113,0.0,2.5287,0.0,2.7978,2.9857,2.9802,3.0346,0.0,0.0,3.3284,3.3828,3.7031,3.754,3.8228,3.9786,4.0981,4.2175,4.3371,4.386,4.4258,4.4639,4.4729,4.4802,4.5001,4.5001,4.5073,4.5273,4.5363,4.5236,4.5037,4.4494,4.3842,4.3028,4.2937,4.2919,4.2919,4.2919,4.2919,4.2919,4.2919,4.2994,4.305,4.33,4.3572,4.3781,4.4117,4.4468,4.4763,4.485,4.4934,5.1529,5.1181,5.1181,5.0932,5.0502,4.9889,4.9839,5.0137,4.9342,4.8796,4.8382,4.6493,4.5268,4.4605,4.4589,4.4787,4.5168,4.5168,4.54,4.5748,4.5019,4.4718,4.4655,4.3959,4.3383,4.2986,4.2986,4.2605,4.1877,4.1177,4.0696,4.0393,3.9663,3.8486,3.6995,3.8079,3.8676,3.8692,3.91,3.9362,3.952,3.9324,3.8564,3.7259,3.731,3.6332,3.41,3.3931,3.3254,3.1904,3.1021,2.9753,2.7874,2.5621,2.3779,0.0,0.0,0.0,0.0,0.0,0.0,0.0,0.0,0.0,0.0,0.0,2.7731,2.8775,3.1129,3.285,3.348,3.4259,3.5457,3.7214,3.6906,3.7468,3.9659,3.9804,4.022,4.1433,4.2266,4.3118,4.3987,4.4729,4.5327,4.578,4.6142,4.625,4.5906,4.5834,4.5961,4.6305,4.6377,4.6232,4.5906,4.5164,4.4494,4.4061,4.368,4.3425,4.3407,4.3118,4.2919,4.2919,4.2919,4.2919,4.2919,4.3069,4.3231,4.3284,4.3403,4.3794,4.446,4.4714,4.4888,5.2409,5.2409,5.2409,5.2409,5.2326,5.1032,5.0502,5.0485,5.0386,4.9872,4.9028,4.7736,4.6775,4.6079,4.6079,4.6063,4.6079,4.6063,4.6079,4.603,4.5218,4.4837,4.4787,4.4009,4.3615,4.3615,4.3615,4.3251,4.2651,4.1823,4.111,4.0525,3.9696,3.9315,3.9315,3.9315,3.9315,3.9315,3.9315,3.9299,3.9325,3.892,3.7995,3.658,3.6649,3.5723,3.352,3.4015,3.3423,3.1498,3.1326,3.0429,2.8483,2.7384,2.63,0.0,2.4189,0.0,0.0,0.0,0.0,0.0,0.0,0.0,0.0,2.9052,3.0663,3.2665,3.4371,3.6182,3.8191,3.9061,3.9586,3.9695,4.0274,4.0691,4.08,4.1524,4.2285,4.2973,4.3751,4.4296,4.4512,4.5671,4.6504,4.6667,4.7174,4.7319,4.6812,4.6667,4.6884,4.7627,4.7699,4.7265,4.6558,4.5888,4.5417,4.5254,4.4693,4.4204,4.4077,4.3534,4.3046,4.2955,4.2919,4.2919,4.2919,4.2919,4.2919,4.2939,4.2976,4.3336,4.4102,4.4525,4.4789,5.2409,5.2409,5.2409,5.2409,5.2393,5.2075,5.1976,5.1926,5.1382,5.032,4.911,4.8812,4.8266,4.7603,4.7587,4.757,4.7587,4.757,4.757,4.7537,4.6212,4.5582,4.55,4.4224,4.3615,4.3615,4.3615,4.3532,4.335,4.2042,4.1331,4.1193,3.9918,3.9315,3.9315,0.0,0.0,0.0,3.9315,3.9369,3.9475,3.9394,3.8714,3.748,3.6865,0.0,3.3537,3.352,3.3136,3.2158,3.209,0.0,0.0,0.0,0.0,0.0,0.0,0.0,0.0,0.0,0.0,0.0,3.2098,3.1238,3.0496,3.4027,3.6306,3.618,3.8101,3.9315,3.9188,3.9858,4.0582,4.118,4.1397,4.1723,4.2357,4.3154,4.3715,4.386,4.4584,4.5327,4.5906,4.6341,4.6757,4.7337,4.7609,4.7645,4.75,4.7428,4.7518,4.7681,4.7699,4.7409,4.6631,4.6395,4.6069,4.549,4.52,4.482,4.4277,4.4005,4.3608,4.3082,4.2919,4.2919,4.2919,4.2919,4.2919,4.2919,4.3069,4.332,4.3619,4.3909,4.4213,5.2409,5.2409,5.2409,5.2409,0.0,5.2409,5.2409,5.2376,5.2011,5.0999,4.9624,4.9276,4.8696,4.8001,4.8001,4.8001,4.8001,4.8001,4.8001,4.7918,4.6477,4.5798,4.5732,4.4277,4.3615,4.3615,4.3615,4.3615,4.3515,4.2109,4.1397,4.1392,3.9984,3.9315,3.9315,3.9315,3.9315,3.9315,3.9315,3.9325,3.9388,3.9161,3.8405,3.7055,3.6794,0.0,0.0,0.0,0.0,0.0,0.0,0.0,0.0,0.0,0.0,3.0138,2.969,2.9823,3.0699,3.1498,3.2966,3.5225,3.5918,3.5736,3.463,3.7176,3.8952,3.9315,4.0437,4.1107,4.1162,4.1488,4.2013,4.2774,4.2882,4.3208,4.3951,4.444,4.4693,4.4765,4.5399,4.6069,4.645,4.6884,4.7228,4.7627,4.7699,4.7699,4.7699,4.7699,4.7699,4.7699,4.7699,4.7569,4.7192,4.7083,4.6993,4.6558,4.616,4.5599,4.4838,4.4349,4.3824,4.31,4.2919,4.2919,4.2919,4.2919,4.2919,4.2919,4.3013,4.3124,4.3213,4.3525,4.3849,5.2409,5.2409,5.2409,5.2409,5.2409,5.2409,5.2409,5.2409,5.2409,0.0,0.0,4.9574,4.8829,4.8017,4.8001,4.8001,4.8001,4.8001,4.8001,4.7934,4.6477,4.5798,4.5732,4.4277,4.3615,4.3615,4.3615,4.3615,4.3549,4.2253,4.1513,4.1309,4.01,3.9431,3.9315,3.9315,3.9315,3.9315,3.9315,3.9315,3.9282,3.8928,3.8062,3.6709,3.6703,3.578,3.3854,3.4235,3.366,3.1938,3.2361,3.2459,3.2019,3.2446,3.3021,3.3744,3.4353,3.4938,3.5459,3.6069,3.6724,3.7404,3.8816,3.935,3.8636,3.9391,4.042,4.1665,4.1867,4.2248,4.3009,4.3099,4.3445,4.4222,4.4313,4.4566,4.5182,4.5454,4.5526,4.5599,4.6214,4.6721,4.6776,4.7283,4.7699,4.7699,4.7699,4.7699,4.7699,4.7699,4.7699,4.7699,4.7699,4.7699,4.7699,4.7663,4.7699,4.7572,4.7102,4.6413,4.549,4.4747,4.3987,4.3064,4.2919,4.2919,4.2919,4.2919,4.2919,4.2919,4.2919,4.2919,4.2957,4.3249,4.356,5.2409,5.2409,5.2409,5.2409,5.2409,5.2409,5.2409,5.2409,5.2409,5.1562,5.0204,5.0104,4.9293,4.8001,4.8001,4.8001,4.8001,4.8001,4.8001,4.7934,4.6477,4.5798,4.5715,4.426,4.3615,4.3615,4.3615,4.3615,4.3499,4.2754,4.2026,4.1392,4.0613,3.9928,3.9365,3.9315,3.9315,3.9315,3.9315,3.9315,3.9315,3.9226,3.8857,3.8094,3.6967,3.5981,3.5172,3.4727,3.4353,3.4049,3.4117,3.4421,3.4923,3.4472,3.4523,3.5233,3.538,3.5924,3.6978,3.7159,3.815,4.0215,4.1238,4.128,4.0176,4.1111,4.1886,4.2139,4.2492,4.3045,4.3806,4.3914,4.424,4.5001,4.5128,4.52,4.5381,4.5961,4.6341,4.6359,4.7047,4.7518,4.7482,4.7609,4.7699,4.7699,4.7699,4.7699,4.7699,4.7699,4.7699,4.7699,4.7699,4.7699,4.7699,4.7699,4.7699,4.7699,4.7609,4.6957,4.5526,4.5164,4.4512,4.3155,4.2919,4.2919,4.2919,4.2919,4.2919,4.2919,4.2919,4.2919,4.2919,4.3013,4.316,5.2409,5.2409,5.2409,5.2409,5.2409,5.2409,5.2409,5.2409,5.2409,5.1562,5.0286,5.022,4.9392,4.805,4.8001,4.8001,4.8001,4.8001,4.8001,4.7918,4.6891,4.6179,4.5715,4.4721,4.3992,4.3631,4.3615,4.3615,4.3532,4.2853,4.2324,4.1926,4.0928,4.0028,3.9348,3.9315,3.9315,3.9315,3.9315,3.9325,3.9405,3.9484,3.9239,3.8623,3.7952,3.7379,3.678,3.6426,3.6095,3.5763,3.6129,3.6332,3.6248,3.6315,3.6502,3.6834,3.7229,3.7695,3.8235,3.8628,3.9352,4.0406,4.0856,4.1024,4.081,4.1881,4.2575,4.2595,4.3166,4.3697,4.4077,4.4476,4.5073,4.5852,4.5943,4.6142,4.654,4.6902,4.7156,4.7192,4.7464,4.7699,4.7699,4.7699,4.7699,4.7699,4.7699,4.7699,4.7699,4.7699,4.7699,4.7699,4.7699,4.7699,4.7699,4.7699,4.7699,4.7699,4.7699,4.7029,4.5671,4.5291,4.4603,4.3281,4.2919,4.2919,4.2919,4.2919,4.2919,4.2919,4.2919,4.2919,4.2919,4.2919,4.2976,5.2409,5.2409,5.2409,5.2409,5.2409,5.2409,5.2409,5.2409,5.2409,5.1645,5.0518,5.0286,4.9475,4.8315,4.8084,4.8001,4.8001,4.8001,4.8001,4.7934,4.7239,4.651,4.5765,4.5036,4.4324,4.3681,4.3615,4.3615,4.3532,4.3002,4.2555,4.2158,4.0994,4.0028,3.9332,3.9315,3.9315,3.9315,3.9315,3.9352,3.9458,3.959,3.9426,3.9,3.8841,3.8562,3.8104,3.787,3.7523,3.711,3.7601,3.7719,3.7371,3.7821,3.8227,3.8413,3.892,3.9266,3.9283,3.9791,4.0146,4.0271,4.0407,4.0797,4.15,4.2472,4.3097,4.317,4.3868,4.444,4.4729,4.5182,4.5906,4.6649,4.6776,4.6993,4.7572,4.7699,4.7699,4.7699,4.7699,4.7699,4.7699,4.7699,4.7699,4.7699,4.7699,4.7699,4.7699,4.7699,4.7699,4.7699,4.7699,4.7699,4.7699,4.7699,4.7699,4.7699,4.7699,4.6975,4.5816,4.5291,4.4657,4.3335,4.2919,4.2919,4.2919,4.2919,4.2919,4.2919,4.2919,4.2955,4.3227,4.3245,4.31,5.2409,5.2409,5.2409,5.2409,5.2409,5.2409,5.2409,5.2409,5.2409,5.1978,5.1164,5.0502,4.9773,4.8978,4.8299,4.8001,4.8001,4.8001,4.8001,4.7934,4.7239,4.651,4.5814,4.5036,4.4307,4.3698,4.3615,4.3615,4.3598,4.3515,4.282,4.1591,4.0763,4.0061,3.9415,3.9315,3.9315,3.9315,3.9315,3.9299,3.9325,3.9448,3.9478,3.9428,3.9008,3.8782,3.8731,3.8181,3.7865,3.7821,3.7905,3.8193,3.87,3.8853,3.9174,3.9783,3.9943,3.9994,3.9994,4.0062,4.0271,4.071,4.1343,4.1909,4.2422,4.3191,4.3663,4.3898,4.4641,4.5411,4.6178,4.6323,4.6703,4.7355,4.7518,4.7627,4.7681,4.7699,4.7699,4.7699,4.7699,4.7699,4.7699,4.7699,4.7699,4.7699,4.7699,4.7699,4.7699,4.7699,4.7699,4.7699,4.7699,4.7699,4.7699,4.7699,4.7699,4.7699,4.7699,4.7029,4.5961,4.5291,4.4784,4.3552,4.2919,4.2919,4.2919,4.2919,4.2973,4.3099,4.3155,4.3209,4.3751,4.3987,4.3769,5.2409,5.2409,5.2409,5.2409,5.2409,5.2409,5.2409,5.2409,5.2409,5.2208,5.1794,5.0717,4.9806,4.9061,4.8332,4.8001,4.8001,4.8001,4.8001,4.7984,4.7686,4.7173,4.6427,4.5682,4.497,4.4241,4.3797,4.3615,4.3615,4.3615,4.3052,4.2059,4.1359,4.063,3.9978,3.9514,3.9315,3.9315,3.9315,3.9315,3.9325,3.9511,3.9668,3.9713,3.9547,3.9472,3.9531,3.9244,3.9117,3.9191,3.9216,3.9326,3.9639,3.9656,3.9774,4.0079,4.0113,4.0113,4.0113,4.0113,4.0375,4.0983,4.1621,4.226,4.3056,4.4213,4.5009,4.5164,4.5405,4.5813,4.6424,4.692,4.7373,4.7645,4.7699,4.7699,4.7699,4.7699,4.7699,4.7699,4.7699,4.7699,4.7699,4.7699,4.7699,4.7699,4.7699,4.7699,4.7699,4.7699,4.7699,4.7699,4.7699,4.7699,4.7699,4.7699,4.7699,4.7699,4.7699,4.721,4.6341,4.5544,4.4892,4.3789,4.3245,4.2937,4.2919,4.3353,4.3607,4.3661,4.4114,4.444,4.4765,4.482,4.4621,5.2409,5.2409,5.2409,5.2409,5.2409,5.2409,5.2409,5.2409,5.2409,5.2409,5.226,5.085,4.9922,4.9326,4.8431,4.8001,4.8001,4.8001,4.8001,4.8001,4.8001,4.7504,4.6609,4.6063,4.5301,4.444,4.383,4.3615,4.3615,4.3615,4.3218,4.2489,4.1744,4.1077,4.0409,3.968,3.9315,3.9315,3.9315,3.9315,3.9325,3.952,3.972,3.9833,3.9875,3.9977,4.0113,4.0011,3.9986,4.0096,4.0113,4.0113,4.0113,4.0113,4.0113,4.0113,4.0113,4.0113,4.0113,4.0113,4.0434,4.1128,4.1732,4.2543,4.3588,4.4865,4.5811,4.6236,4.615,4.6269,4.6801,4.7334,4.7681,4.7699,4.7699,4.7699,4.7699,4.7699,4.7699,4.7699,4.7699,4.7699,4.7699,4.7699,4.7699,4.7699,4.7699,4.7699,4.7699,4.7699,4.7699,4.7699,4.7699,4.7699,4.7699,4.7699,4.7699,4.7699,4.7699,4.7428,4.6685,4.5924,4.511,4.4132,4.3445,4.3173,4.3353,4.3824,4.4313,4.453,4.5019,4.558,4.5635,4.5635,4.5635,5.2409,5.2409,5.2409,5.2409,5.2409,5.2409,5.2409,5.2409,5.2409,5.2409,5.2227,5.0883,5.0204,4.9987,4.868,4.8001,4.8001,4.8001,4.8001,4.8001,4.8001,4.7239,4.5897,4.5781,4.5069,4.3896,4.3681,4.3615,4.3615,4.3598,4.3218,4.2506,4.1811,4.111,4.0481,3.9763,3.9332,3.9381,3.9332,3.9315,3.9315,3.9448,3.9563,3.9703,3.9833,3.9961,4.0087,4.0113,4.0096,4.0113,4.0113,4.0113,4.0113,4.0113,4.0113,4.0113,4.0113,4.0113,4.0146,4.018,4.0493,4.1221,4.2029,4.2849,4.4105,4.5009,4.5877,4.6753,4.6796,4.7048,4.747,4.7627,4.7699,4.7699,4.7699,4.7699,4.7699,4.7699,4.7699,4.7699,4.7699,4.7699,4.7699,4.7699,4.7699,4.7699,4.7699,4.7699,4.7699,4.7699,4.7699,4.7699,4.7699,4.7699,4.7699,4.7699,4.7699,4.7699,4.7627,4.7482,4.683,4.6124,4.5291,4.4494,4.3661,4.3425,4.386,4.4295,4.4729,4.52,4.5924,4.6377,4.645,4.645,4.645,5.2409,5.2409,5.2409,5.2409,5.2409,5.2409,5.2409,5.2409,5.2409,5.2409,5.2243,5.133,5.0651,5.0171,4.916,4.8448,4.8034,4.8001,4.8001,4.8001,4.8001,4.7471,4.6543,4.603,4.5301,4.439,4.3813,4.3615,4.3615,4.3615,4.3466,4.3135,4.2456,4.1988,4.1574,4.0564,4.0011,3.9962,3.9564,3.9315,3.9315,3.9352,3.9484,3.9677,3.9807,3.9961,4.0113,4.0113,4.0113,4.0113,4.0113,4.0113,4.0113,4.0113,4.0113,4.0113,4.0113,4.0316,4.0713,4.0781,4.1356,4.2499,4.3157,4.382,4.4828,4.576,4.6501,4.6863,4.7236,4.7511,4.7636,4.7699,4.7699,4.7699,4.7699,4.7699,4.7699,4.7699,4.7699,4.7699,4.7699,4.7699,4.7699,4.7699,4.7699,4.7699,4.7699,4.7699,4.7699,4.7699,4.7699,4.7699,4.7699,4.7699,4.7699,4.7699,4.7699,4.7699,4.7663,4.7627,4.721,4.625,4.5399,4.5128,4.424,4.3932,4.4458,4.5273,4.5635,4.6377,4.7083,4.7029,4.7244,4.7102,4.7138,5.2409,5.2409,5.2409,5.2409,5.2409,5.2409,5.2409,5.2409,5.2409,5.2409,5.2277,5.1647,5.0866,5.0171,4.9442,4.8696,4.805,4.8001,4.8001,4.8001,4.8001,4.7487,4.6576,4.603,4.5284,4.4406,4.3847,4.3615,4.3615,4.3615,4.3615,4.3549,4.2853,4.2506,4.2291,4.1309,4.063,4.0359,3.9895,3.958,3.9365,3.9315,3.9405,3.9616,3.9772,3.991,4.007,4.0113,4.0113,4.0113,4.0113,4.0113,4.0113,4.0113,4.0113,4.0113,4.0509,4.0832,4.1188,4.1588,4.2277,4.3267,4.371,4.4292,4.5225,4.6123,4.6637,4.6931,4.7385,4.7699,4.7699,4.7699,4.7699,4.7699,4.7699,4.7699,4.7699,4.7699,4.7699,4.7699,4.7699,4.7699,4.7699,4.7699,4.7699,4.7699,4.7699,4.7699,4.7699,4.7699,4.7699,4.7699,4.7699,4.7699,4.7699,4.7699,4.7699,4.7699,4.7699,4.7699,4.75,4.6504,4.5852,4.5617,4.5327,4.4983,4.5254,4.6124,4.6848,4.7554,4.7591,4.7446,4.7572,4.7645,4.7572,5.2409,5.2409,5.2409,5.2409,5.2409,5.2409,5.2409,5.2409,5.2409,5.2409,5.2274,5.1663,5.0966,5.0187,4.9525,4.8763,4.81,4.8001,4.8001,4.8001,4.8001,4.7222,4.593,4.5831,4.5052,4.3764,4.3615,4.3615,4.3615,4.3615,4.3615,4.3466,4.2936,4.2655,4.2539,4.1794,4.111,4.0663,4.0492,4.0061,3.9415,3.9398,3.9462,3.9544,3.9692,3.9908,4.0138,4.013,4.0113,4.0113,4.0113,4.0113,4.0113,4.0163,4.0163,4.0375,4.1268,4.1644,4.1486,4.2398,4.3039,4.3495,4.3498,4.4136,4.5269,4.5875,4.6406,4.6976,4.7407,4.7699,4.7699,4.7699,4.7699,4.7699,4.7699,4.7699,4.7699,4.7699,4.7699,4.7699,4.7699,4.7699,4.7699,4.7699,4.7699,4.7699,4.7699,4.7699,4.7699,4.7699,4.7699,4.7699,4.7699,4.7699,4.7699,4.7699,4.7699,4.7699,4.7699,4.7699,4.7627,4.6957,4.6486,4.6214,4.5979,4.5671,4.6142,4.692,4.7192,4.7699,4.7699,4.7699,4.7699,4.7699,4.7699,5.2409,5.2409,5.2409,5.2409,5.2409,5.2409,5.2409,5.2409,5.2409,5.2409,5.2359,5.2161,5.138,5.0386,4.9939,4.9177,4.8067,4.8001,4.8001,4.8001,4.8001,4.7222,4.6046,4.5798,4.5036,4.3813,4.3615,4.3615,4.3615,4.3615,4.3615,4.3549,4.3367,4.3251,4.3168,4.2522,4.2021,4.1839,4.1342,4.0746,4.0144,4.0078,3.9883,3.9618,4.0037,4.0447,4.066,4.0333,4.013,4.0146,4.0113,4.0113,4.0197,4.0578,4.0849,4.0959,4.1681,4.2413,4.2712,4.309,4.3639,4.4067,4.4198,4.4768,4.5664,4.5975,4.6478,4.7258,4.7615,4.7699,4.7699,4.7699,4.7699,4.7699,4.7699,4.7699,4.7699,4.7699,4.7699,4.7699,4.7699,4.7699,4.7699,4.7699,4.7699,4.7699,4.7699,4.7699,4.7699,4.7699,4.7699,4.7699,4.7699,4.7699,4.7699,4.7699,4.7699,4.7699,4.7699,4.7699,4.7627,4.7464,4.7029,4.6794,4.6558,4.6631,4.7138,4.7428,4.7627,4.7699,4.7699,4.7699,4.7699,4.7699,4.7699,5.2409,5.2409,5.2409,5.2409,5.2409,5.2409,5.2409,5.2409,5.2409,5.2409,5.2409,5.2409,5.1578,5.0452,5.022,4.9375,4.81,4.8001,4.8001,4.8001,4.8001,4.7322,4.6195,4.5582,4.497,4.4141,4.3731,4.3615,4.3615,4.3615,4.3615,4.3615,4.3615,4.3598,4.3565,4.3151,4.2804,4.2473,4.2009,4.1475,4.0912,4.0763,4.0602,4.0325,4.0729,4.1065,4.1221,4.0918,4.0796,4.0899,4.0925,4.0925,4.0959,4.1382,4.1697,4.2048,4.2757,4.346,4.3712,4.418,4.437,4.4608,4.4598,4.4917,4.564,4.5925,4.6501,4.7214,4.7593,4.7699,4.7699,4.7699,4.7699,4.7699,4.7699,4.7699,4.7699,4.7699,4.7699,4.7699,4.7699,4.7699,4.7699,4.7699,4.7699,4.7699,4.7699,4.7699,4.7699,4.7699,4.7699,4.7699,4.7699,4.7699,4.7699,4.7699,4.7699,4.7699,4.7699,4.7699,4.7663,4.7518,4.721,4.7228,4.7083,4.712,4.7518,4.7572,4.7699,4.7699,4.7699,4.7699,4.7699,4.7699,4.7699,5.2409,5.2409,5.2409,5.2409,5.2409,5.2409,5.2409,5.2409,5.2409,5.2409,5.2409,5.2409,5.1595,5.0452,5.022,4.9409,4.8216,4.8001,4.8001,4.8001,4.7968,4.7537,4.6709,4.5566,4.4887,4.4539,4.4026,4.3681,4.3615,4.3615,4.3615,4.3615,4.3615,4.3615,4.3582,4.3582,4.3218,4.2721,4.2572,4.2175,4.1524,4.1475,4.1392,4.1309,4.1554,4.1738,4.1805,4.1933,4.2074,4.2233,4.21,4.2066,4.2219,4.2303,4.2601,4.3089,4.4317,4.4568,4.4653,4.512,4.5442,4.4797,4.4665,4.4841,4.5407,4.59,4.6382,4.7062,4.7468,4.7699,4.7699,4.7699,4.7699,4.7699,4.7699,4.7699,4.7699,4.7699,4.7699,4.7699,4.7699,4.7699,4.7699,4.7699,4.7699,4.7699,4.7699,4.7699,4.7699,4.7699,4.7699,4.7699,4.7699,4.7699,4.7699,4.7699,4.7699,4.7699,4.7717,4.7735,4.7717,4.7572,4.7482,4.7518,4.7515,4.7627,4.7681,4.7699,4.7699,4.7699,4.7699,4.7699,4.7717,4.7717,4.779,5.2409,5.2409,5.2409,5.2409,5.2409,5.2409,5.2409,5.2409,5.2409,5.2409,5.2409,5.2409,5.1578,5.0303,5.0204,4.9409,4.8299,4.8001,4.8001,4.8001,4.8001,4.7587,4.6858,4.5963,4.5235,4.4787,4.4489,4.4141,4.3648,4.3615,4.3615,4.3615,4.3615,4.3615,4.3615,4.3615,4.3515,4.3333,4.33,4.292,4.2324,4.2191,4.1955,4.1491,4.2,4.2351,4.2582,4.3158,4.3026,4.22,4.225,4.2303,4.2422,4.2871,4.342,4.4009,4.4706,4.5386,4.5546,4.5552,4.5381,4.5152,4.4759,4.4988,4.5817,4.6017,4.6566,4.7236,4.7657,4.7717,4.7717,4.7772,4.7772,4.7699,4.7862,4.7808,4.7717,4.7699,4.7699,4.7699,4.7717,4.7772,4.7717,4.7772,4.7753,4.7717,4.7699,4.7699,4.7699,4.7699,4.7699,4.7699,4.7699,4.7699,4.7699,4.7699,4.7699,4.7699,4.7735,4.7808,4.7753,4.7663,4.7645,4.7663,4.7627,4.7681,4.7699,4.7699,4.7699,4.7699,4.7844,4.7898,4.779,4.7772,4.7898,5.2409,5.2409,5.2409,5.2409,5.2409,5.2409,5.2409,5.2409,5.2409,5.2409,5.2409,5.2409,5.1562,5.0303,5.0204,4.9392,4.8133,4.8001,4.8001,4.8001,4.8001,4.7769,4.7255,4.6609,4.603,4.5582,4.497,4.4489,4.4092,4.3764,4.3615,4.3615,4.3615,4.3615,4.3615,4.3615,4.3615,4.3598,4.3598,4.335,4.2986,4.2953,4.2771,4.244,4.2771,4.3028,4.3228,4.3723,4.3645,4.3144,4.3114,4.3179,4.3295,4.3861,4.4446,4.4989,4.5616,4.6147,4.6262,4.5925,4.552,4.525,4.4852,4.5169,4.5843,4.614,4.6566,4.7511,4.7678,4.788,4.8206,4.8496,4.8677,4.8786,4.8713,4.8442,4.7826,4.8043,4.8007,4.7916,4.7989,4.8061,4.7805,4.7986,4.7986,4.7826,4.7699,4.7699,4.7699,4.7717,4.7808,4.7916,4.7898,4.7898,4.7916,4.7916,4.8242,4.8206,4.8442,4.8387,4.8007,4.7898,4.7735,4.7735,4.7717,4.7699,4.7699,4.7699,4.7699,4.7772,4.7953,4.8206,4.8206,4.8351,4.8405,5.2409,5.2409,5.2409,5.2409,5.2409,5.2409,5.2409,5.2409,5.2409,5.2409,5.2409,5.2409,5.1545,5.0237,5.0187,4.9392,4.8034,4.8001,4.8001,4.8001,4.8001,4.7934,4.7819,4.7305,4.6891,4.656,4.545,4.492,4.4556,4.4009,4.3698,4.3631,4.3615,4.3615,4.3615,4.3615,4.3615,4.3615,4.3615,4.3582,4.3482,4.3466,4.3383,4.3383,4.3383,4.3482,4.3575,4.3793,4.3898,4.4248,4.4293,4.4243,4.4507,4.4957,4.5433,4.588,4.6305,4.6683,4.6886,4.6478,4.6,4.5614,4.5062,4.5133,4.5985,4.6319,4.6814,4.7886,4.7895,4.8442,4.8949,4.9637,4.9836,4.9858,5.0021,4.9474,4.8532,4.8583,4.8749,4.8116,4.8656,4.8586,4.8424,4.8442,4.8749,4.8242,4.8098,4.8116,4.8116,4.8152,4.8279,4.8424,4.8315,4.8152,4.8152,4.8152,4.8605,4.8931,4.9365,4.9329,4.8605,4.8315,4.7953,4.7769,4.7735,4.7717,4.7696,4.7696,4.788,4.817,4.8568,4.884,4.9057,4.9275,4.9401,5.2409,5.2409,5.2409,5.2409,5.2409,5.2409,5.2409,5.2409,5.2409,5.2409,5.2409,5.2409,5.1545,5.022,5.0154,4.9409,4.8117,4.8001,4.8001,4.8001,4.8001,4.8001,4.7984,4.7752,4.7438,4.6957,4.6626,4.5814,4.492,4.4506,4.4141,4.3648,4.3615,4.3615,4.3615,4.3615,4.3615,4.3615,4.3615,4.3645,4.3628,4.3615,4.3615,4.3615,4.3598,4.3598,4.3598,4.3628,4.3805,4.4068,4.4281,4.4435,4.4581,4.4776,4.5275,4.5943,4.6244,4.6683,4.7232,4.7053,4.6701,4.6495,4.589,4.5606,4.6619,4.6994,4.7554,4.8492,4.9202,4.951,4.9836,4.9985,5.0257,5.042,5.0728,5.0687,4.9894,4.9727,4.9691,4.9601,4.9655,4.9764,4.9564,4.9582,4.9474,4.884,4.8659,4.8637,4.8637,4.8659,4.8822,4.9021,4.9094,4.9003,4.9039,4.9112,4.9456,4.9854,5.0253,5.0307,4.9582,4.9057,4.8822,4.8297,4.7717,4.7808,4.8206,4.8405,4.8713,4.8967,4.9238,4.9582,4.9908,5.0184,5.0438,5.2409,5.2409,5.2409,5.2409,5.2409,5.2409,5.2409,5.2409,5.2409,5.2409,5.2409,5.2409,5.1562,5.027,5.0154,4.9409,4.8282,4.8001,4.8001,4.8001,4.8001,4.8001,4.8001,4.8001,4.7752,4.7371,4.7007,4.6228,4.5417,4.4851,4.4274,4.3664,4.3615,4.3615,4.3615,4.3615,4.3615,4.3615,4.3598,4.3687,4.3877,4.3717,4.3615,4.3628,4.3658,4.3717,4.3734,4.3805,4.3964,4.4196,4.4474,4.4614,4.4731,4.5025,4.558,4.5992,4.666,4.6999,4.7486,4.7577,4.7474,4.7479,4.7008,4.735,4.782,4.8187,4.8568,4.9293,4.9818,5.0202,5.0637,5.1126,5.118,5.1285,5.1574,5.1629,5.1289,5.0909,5.0474,5.0347,5.0379,5.0325,5.0325,5.0506,5.0234,4.9619,4.9474,4.9456,4.9456,4.9474,4.9564,4.9727,4.9912,4.9985,5.0017,5.018,5.0488,5.085,5.1194,5.1086,5.0633,5.0198,4.9836,4.9202,4.8605,4.8876,4.922,4.9401,4.9492,4.9673,4.9963,5.0379,5.0796,5.1122,5.1375,5.2409,5.2409,5.2409,5.2409,5.2409,5.2409,5.2409,5.2409,5.2409,5.2409,5.2409,5.2409,5.1578,5.0452,5.022,4.9359,4.8332,4.8001,4.8001,4.8001,4.8001,4.8001,4.8001,4.8001,4.7984,4.7918,4.7438,4.6692,4.5963,4.5235,4.4622,4.3913,4.3615,4.3615,4.3615,4.3598,4.3687,4.3776,4.3658,4.3818,4.4109,4.3818,4.3645,4.3628,4.3763,4.3852,4.3881,4.3998,4.4196,4.4418,4.4855,4.4954,4.5115,4.5546,4.6189,4.6238,4.6994,4.7551,4.7933,4.8115,4.823,4.834,4.8451,4.8806,4.9204,4.94,4.9703,5.0105,5.0565,5.0909,5.1448,5.1882,5.2281,5.2389,5.2444,5.2498,5.2371,5.1864,5.1249,5.0868,5.114,5.1249,5.114,5.1158,5.0796,5.0506,5.0383,5.0293,5.0293,5.0347,5.0434,5.0723,5.0977,5.1072,5.1104,5.1067,5.1393,5.1538,5.1937,5.1756,5.152,5.1321,5.0868,5.0162,4.9822,4.9949,4.9999,5.0108,5.0216,5.0383,5.08,5.1321,5.1719,5.2082,5.2154,5.2409,5.2409,5.2409,5.2409,5.2409,5.2409,5.2409,5.2409,5.2409,5.2409,5.2409,5.2376,5.1578,5.0518,5.022,4.9359,4.8282,4.8001,4.8001,4.8001,4.8001,4.8001,4.8001,4.8001,4.8001,4.7984,4.7752,4.7338,4.6626,4.5963,4.5235,4.4539,4.3929,4.3681,4.3698,4.3628,4.3789,4.3977,4.3805,4.3848,4.415,4.3964,4.3658,4.3687,4.3852,4.391,4.3939,4.4039,4.435,4.491,4.5037,4.5399,4.5846,4.6172,4.6524,4.6808,4.7209,4.7889,4.8551,4.8772,4.9143,4.9474,4.9525,4.9537,4.995,5.0221,5.0633,5.1058,5.1611,5.2082,5.2263,5.2408,5.2462,5.2498,5.2498,5.2498,5.2444,5.2299,5.2118,5.1828,5.2045,5.2154,5.1919,5.1737,5.1538,5.1303,5.1158,5.1108,5.1108,5.1217,5.1339,5.1737,5.219,5.2208,5.2226,5.2136,5.2172,5.21,5.2281,5.2281,5.2154,5.2281,5.19,5.109,5.0546,5.0379,5.0524,5.0796,5.0977,5.1162,5.1683,5.2245,5.2281,5.2299,5.2353,5.2409,5.2409,5.2409,5.2409,5.2409,5.2409,5.2409,5.2409,5.2409,5.2409,5.2409,5.2343,5.1578,5.0518,5.022,4.9392,4.8315,4.8001,4.8001,4.8001,4.8001,4.8001,4.8001,4.8001,4.8001,4.8001,4.7968,4.7636,4.6941,4.656,4.593,4.5251,4.4539,4.4175,4.4059,4.381,4.3944,4.4126,4.3923,4.3935,4.4485,4.4191,4.4006,4.3935,4.401,4.4097,4.4126,4.427,4.4614,4.5203,4.5849,4.6485,4.7113,4.7701,4.7949,4.7763,4.8119,4.874,4.9521,4.9836,5.0361,5.0647,5.0767,5.1079,5.1284,5.1504,5.1578,5.1881,5.21,5.2498,5.2462,5.2498,5.2498,5.2498,5.2498,5.2498,5.2498,5.2498,5.2498,5.2498,5.2408,5.2353,5.2408,5.2281,5.2245,5.2118,5.1937,5.1864,5.1851,5.1882,5.1973,5.2154,5.2462,5.248,5.248,5.2498,5.2498,5.2498,5.2498,5.2498,5.2498,5.248,5.2299,5.1792,5.1375,5.1049,5.1393,5.1792,5.1864,5.1882,5.2154,5.2389,5.2444,5.248,5.2498,5.2409,5.2409,5.2409,5.2409,5.2409,5.2409,5.2409,5.2409,5.2409,5.2409,5.2409,5.2343,5.1661,5.0618,4.9972,4.9243,4.805,4.8001,4.8001,4.8001,4.8001,4.8001,4.8001,4.8001,4.8001,4.8001,4.8001,4.7703,4.7272,4.6908,4.6527,4.598,4.5284,4.4903,4.4804,4.464,4.4445,4.4385,4.4206,4.4363,4.4536,4.4474,4.4378,4.4293,4.4406,4.4598,4.5024,4.5224,4.5723,4.6412,4.7151,4.7942,4.8578,4.9654,4.9803,4.9126,4.9658,5.0049,5.0492,5.08,5.1158,5.152,5.2118,5.2371,5.2408,5.2258,5.2402,5.2498,5.2498,5.2498,5.2498,5.2498,5.2498,5.2498,5.2498,5.2498,5.2498,5.2498,5.2498,5.2498,5.2498,5.2498,5.2498,5.248,5.2371,5.2371,5.219,5.2208,5.219,5.2263,5.2317,5.2371,5.248,5.248,5.2498,5.2498,5.2498,5.2498,5.2498,5.2498,5.2498,5.248,5.2299,5.2172,5.219,5.1973,5.2389,5.2498,5.2299,5.2245,5.2426,5.2498,5.2498,5.2498,5.2498,5.2409,5.2409,5.2409,5.2409,5.2409,5.2409,5.2409,5.2409,5.2409,5.2409,5.2409,5.2376,5.1893,5.0932,4.9723,4.8829,4.8216,4.8001,4.8001,4.8001,4.8001,4.8001,4.8001,4.8001,4.8001,4.8001,4.8001,4.7984,4.7686,4.7206,4.6924,4.6626,4.6142,4.5696,4.577,4.5771,4.6022,4.5784,4.5421,4.4908,4.4373,4.426,4.4558,4.4854,4.5162,4.5644,4.6473,4.676,4.7312,4.8433,4.8816,4.9328,4.9897,5.066,5.1049,5.0787,5.0574,5.0416,5.1031,5.1339,5.1647,5.2082,5.2426,5.248,5.2498,5.2498,5.2498,5.2498,5.2498,5.2498,5.2498,5.2498,5.2498,5.2498,5.2498,5.2498,5.2498,5.2498,5.2498,5.2498,5.2498,5.2498,5.2498,5.2498,5.248,5.2498,5.2498,5.2516,5.2534,5.257,5.2498,5.2498,5.2498,5.2498,5.2498,5.2498,5.2661,5.2607,5.2516,5.2552,5.2697,5.2715,5.2498,5.2426,5.2498,5.2498,5.2498,5.2498,5.2498,5.2498,5.2498,5.2498,5.2498,5.2498,5.2498,5.2409,5.2409,5.2409,5.2409,5.2409,5.2409,5.2409,5.2409,5.2409,5.2409,5.2409,5.2409,5.1777,5.0651,4.9525,4.8713,4.8133,4.8001,4.8001,4.8001,4.8001,4.8001,4.8001,4.8001,4.8001,4.8001,4.8001,4.8001,4.7868,4.7768,4.752,4.7436,4.706,4.6845,4.6795,4.6857,4.6954,4.6979,4.6865,4.6476,4.6039,4.6005,4.6361,4.6855,4.6943,4.7334,4.7768,4.7967,4.8392,4.9269,4.9651,5.0228,5.081,5.1484,5.1973,5.1937,5.1683,5.1665,5.1919,5.1937,5.2154,5.2335,5.2498,5.2498,5.2498,5.2498,5.2498,5.2498,5.2498,5.2498,5.2498,5.2498,5.2498,5.2498,5.2498,5.2498,5.2498,5.2498,5.2498,5.2498,5.2498,5.2498,5.2498,5.2498,5.2625,5.286,5.2806,5.2733,5.2752,5.2752,5.2643,5.2498,5.2498,5.2498,5.2498,5.2516,5.2933,5.2933,5.2625,5.2715,5.3023,5.3023,5.2679,5.2498,5.2498,5.2498,5.2498,5.2498,5.2498,5.2498,5.2498,5.2498,5.2498,5.2498,5.2498,5.2409,5.2409,5.2409,5.2409,5.2409,5.2409,5.2409,5.2409,5.2409,5.2409,5.2409,5.2359,5.1578,5.0386,4.9641,4.8961,4.8034,4.8001,4.8001,4.8001,4.8001,4.8001,4.8001,4.8001,4.8001,4.8001,4.8212,4.8244,4.826,4.8274,4.8304,4.8178,4.8099,4.8048,4.803,4.7933,4.7906,4.7812,4.7765,4.7527,4.7348,4.7558,4.8015,4.844,4.8731,4.8869,4.9146,4.9238,4.9543,5.0235,5.0731,5.1261,5.1656,5.2045,5.2353,5.2371,5.2245,5.2281,5.2353,5.2389,5.248,5.2498,5.2498,5.2498,5.2498,5.2498,5.2498,5.2498,5.2498,5.2498,5.2498,5.2498,5.2498,5.2498,5.2498,5.2498,5.2498,5.2498,5.2498,5.2498,5.2498,5.2498,5.2498,5.2498,5.2715,5.3114,5.315,5.2987,5.2951,5.2933,5.2951,5.2824,5.2878,5.2788,5.257,5.2679,5.3078,5.3222,5.2915,5.2806,5.3041,5.2933,5.2589,5.2498,5.2625,5.2498,5.2498,5.2498,5.2498,5.2498,5.2498,5.2498,5.2498,5.2516,5.257,5.2409,5.2409,5.2409,5.2409,5.2409,5.2409,5.2409,5.2409,5.2409,5.2409,5.2409,5.2343,5.1595,5.0518,5.0038,4.9309,4.805,4.8017,4.8001,4.8001,4.8001,4.8001,4.8001,4.8001,4.8033,4.8115,4.826,4.8467,4.8733,4.8934,4.8872,4.8728,4.8957,4.9193,4.9214,4.9088,4.8746,4.8552,4.8335,4.828,4.8139,4.8293,4.8644,4.9237,4.9436,4.9799,5.0985,5.0971,5.1146,5.1816,5.1961,5.2051,5.2221,5.2371,5.2498,5.2498,5.2498,5.2498,5.2498,5.2498,5.2498,5.2498,5.2498,5.2498,5.2498,5.2498,5.2498,5.2498,5.2498,5.2498,5.2498,5.2498,5.2498,5.2679,5.2752,5.2824,5.2752,5.2534,5.2516,5.2498,5.2498,5.2498,5.2498,5.2498,5.2788,5.3186,5.3222,5.3078,5.3132,5.315,5.3295,5.3313,5.3385,5.3204,5.2752,5.2915,5.3259,5.3367,5.3204,5.3023,5.2987,5.2788,5.3041,5.2969,5.315,5.2806,5.2643,5.3023,5.3114,5.2679,5.2516,5.257,5.2715,5.2824,5.2842,5.2409,5.2409,5.2409,5.2409,5.2409,5.2409,5.2409,5.2409,5.2409,5.2409,5.2409,5.2359,5.1827,5.0982,5.0303,4.969,4.8696,4.815,4.8067,4.8001,4.8001,4.8001,4.8001,4.8066,4.8164,4.8324,4.842,4.8671,4.9131,4.9342,4.9551,4.958,4.9727,4.9786,4.9873,5.0034,4.9712,4.9366,4.9437,4.972,4.9828,5.0126,5.0553,5.1178,5.1267,5.1463,5.1968,5.2027,5.2226,5.2389,5.248,5.2498,5.2498,5.2498,5.2498,5.2498,5.2498,5.2498,5.2498,5.2498,5.2498,5.2498,5.2498,5.2498,5.2498,5.2498,5.2498,5.2498,5.2534,5.2607,5.2516,5.2534,5.2607,5.2896,5.3114,5.3222,5.3222,5.3078,5.3023,5.3222,5.2806,5.2498,5.2498,5.2498,5.286,5.3222,5.3204,5.3204,5.3259,5.3259,5.3349,5.3385,5.3403,5.3313,5.286,5.3078,5.3458,5.353,5.3585,5.3603,5.3639,5.4019,5.4182,5.4001,5.3838,5.3802,5.3838,5.3947,5.3711,5.315,5.286,5.2733,5.2915,5.3204,5.3367,5.2409,5.2409,5.2409,5.2409,5.2409,5.2409,5.2409,5.2409,5.2409,5.2409,5.2409,5.2393,5.2011,5.1315,5.08,4.9939,4.9177,4.8614,4.8249,4.8084,4.8001,4.8001,4.8049,4.8179,4.842,4.8608,4.8841,4.9101,4.958,4.961,4.989,5.0165,5.0194,5.0148,5.0453,5.061,5.0453,5.0051,5.038,5.1026,5.1087,5.1388,5.1824,5.2255,5.2289,5.2289,5.2371,5.2371,5.2408,5.2462,5.2498,5.2498,5.2498,5.2498,5.2498,5.2498,5.2498,5.2498,5.2498,5.2498,5.2498,5.2498,5.2498,5.2498,5.2498,5.2498,5.2498,5.2534,5.2661,5.286,5.2896,5.3204,5.3512,5.3929,5.382,5.3892,5.4074,5.4037,5.3983,5.3983,5.3585,5.3385,5.3422,5.3458,5.3132,5.3385,5.3349,5.3349,5.3349,5.3331,5.3241,5.3259,5.3222,5.3078,5.2933,5.3784,5.4508,5.4327,5.4399,5.4544,5.4689,5.4979,5.4961,5.4562,5.4526,5.4834,5.478,5.4562,5.4092,5.3548,5.3458,5.3512,5.3748,5.4074,5.4237,5.2409,5.2409,5.2409,5.2409,5.2409,5.2409,5.2409,5.2409,5.2409,5.2409,5.2409,5.2393,5.2061,5.1481,5.1232,5.0402,4.9442,4.9061,4.8647,4.8117,4.8001,4.8001,4.8147,4.8356,4.8593,4.8903,4.9222,4.9639,5.0034,4.9844,5.0222,5.0537,5.0436,5.0335,5.0836,5.0891,5.0592,5.0233,5.0637,5.1097,5.1495,5.1665,5.2005,5.2364,5.2498,5.2498,5.2498,5.2498,5.2498,5.2498,5.2498,5.2498,5.2498,5.2498,5.2498,5.2498,5.2498,5.2498,5.2498,5.2498,5.2498,5.2552,5.2607,5.2715,5.2589,5.2607,5.2824,5.3132,5.3331,5.3621,5.3929,5.4255,5.4526,5.4744,5.4635,5.4762,5.4961,5.4834,5.4725,5.4671,5.478,5.4798,5.478,5.4581,5.382,5.3603,5.3512,5.353,5.3621,5.3675,5.3675,5.3675,5.3693,5.3693,5.3892,5.4943,5.5486,5.5269,5.5142,5.5214,5.5305,5.5414,5.5305,5.5088,5.5287,5.5649,5.5341,5.4979,5.487,5.4852,5.4562,5.4581,5.478,5.4943,5.5106,5.2409,5.2409,5.2409,5.2409,5.2409,5.2409,5.2409,5.2409,5.2409,5.2409,5.2409,5.2409,5.2326,5.1962,5.1464,5.075,4.9906,4.9177,4.8696,4.8067,4.8001,4.8001,4.8147,4.8467,4.8733,4.8872,4.9372,4.993,5.0074,4.9873,5.0222,5.0564,5.0637,5.0537,5.0537,5.0592,5.0637,5.0307,5.062,5.1141,5.1615,5.1733,5.1956,5.2452,5.2498,5.2498,5.2498,5.2498,5.2498,5.2498,5.2498,5.2498,5.2498,5.2498,5.2498,5.2498,5.2498,5.2498,5.2498,5.2498,5.2498,5.2661,5.2951,5.3186,5.3295,5.3838,5.4001,5.4055,5.4237,5.4472,5.4617,5.4689,5.4961,5.5432,5.5558,5.5866,5.5993,5.5577,5.5341,5.5323,5.5359,5.5178,5.5106,5.5377,5.4852,5.4581,5.4581,5.4381,5.4381,5.4454,5.449,5.449,5.4508,5.4508,5.4816,5.5414,5.574,5.5504,5.5558,5.574,5.5812,5.5939,5.6156,5.6192,5.6319,5.641,5.6156,5.6029,5.6337,5.6337,5.5776,5.5468,5.5577,5.5758,5.5939,5.2409,5.2409,5.2409,5.2409,5.2409,5.2409,5.2409,5.2409,5.2409,5.2409,5.2409,5.2409,5.2393,5.2243,5.186,5.1032,5.0237,4.974,4.8796,4.815,4.8001,4.8001,4.8179,4.8593,4.8964,4.9087,4.9568,5.0137,5.0363,4.9698,4.9774,5.0239,5.0737,5.0692,5.062,5.0692,5.0764,5.0564,5.0846,5.1167,5.1538,5.1765,5.1963,5.234,5.2498,5.2498,5.2498,5.2498,5.2498,5.2498,5.2498,5.2498,5.2498,5.2498,5.2498,5.2498,5.2498,5.2498,5.2498,5.2498,5.2625,5.3005,5.3458,5.3802,5.4055,5.449,5.4689,5.4834,5.5142,5.5251,5.5287,5.5323,5.5758,5.6265,5.6373,5.6681,5.6645,5.621,5.612,5.6084,5.6029,5.5758,5.5595,5.5776,5.5848,5.5776,5.5703,5.5432,5.5124,5.5106,5.5124,5.5106,5.5106,5.507,5.5142,5.5432,5.5667,5.5703,5.5957,5.6265,5.6482,5.6627,5.6971,5.7188,5.6971,5.6862,5.7025,5.7098,5.6989,5.6808,5.6464,5.6301,5.6391,5.6464,5.6573,5.2409,5.2409,5.2409,5.2409,5.2409,5.2409,5.2409,5.2409,5.2409,5.2409,5.2409,5.2409,5.2409,5.2409,5.2359,5.1578,5.0568,5.0286,4.9359,4.8498,4.8249,4.8133,4.8293,4.8796,4.8934,4.9509,5.0022,5.0324,5.0665,5.0362,4.9951,4.9958,5.0781,5.0965,5.1047,5.1047,5.0977,5.0862,5.0846,5.122,5.1564,5.1715,5.1987,5.2317,5.2498,5.2498,5.2498,5.2498,5.2498,5.2498,5.2498,5.2498,5.2498,5.2498,5.2498,5.2498,5.2498,5.2498,5.2516,5.2516,5.3114,5.3621,5.3892,5.4291,5.4762,5.5178,5.545,5.5595,5.5794,5.5939,5.6029,5.6464,5.688,5.7007,5.7007,5.7098,5.7098,5.6989,5.6989,5.6953,5.6935,5.679,5.6699,5.679,5.6518,5.6573,5.641,5.6156,5.5866,5.5577,5.5595,5.5558,5.5558,5.5558,5.5685,5.5957,5.6156,5.6373,5.6609,5.688,5.7098,5.7116,5.7152,5.7188,5.7188,5.7188,5.7188,5.7188,5.717,5.6971,5.679,5.6808,5.679,5.688,5.6989,5.2409,5.2409,5.2409,5.2409,5.2409,5.2409,5.2409,5.2409,5.2409,5.2409,5.2409,5.2409,5.2409,5.2409,5.2393,5.1744,5.1264,5.0783,4.9988,4.9293,4.8779,4.8448,4.8411,4.8644,4.8704,4.8995,4.9568,5.0302,5.0224,5.035,5.0934,5.0968,5.1403,5.1625,5.1698,5.1698,5.14,5.1136,5.1066,5.1273,5.1556,5.169,5.2054,5.234,5.2498,5.2498,5.2498,5.2498,5.2498,5.2498,5.2498,5.2498,5.2498,5.2498,5.2498,5.2498,5.2498,5.2498,5.2589,5.3041,5.3693,5.4472,5.4925,5.5323,5.5758,5.6047,5.6337,5.6391,5.6428,5.6554,5.6609,5.6935,5.7188,5.7188,5.7188,5.7188,5.7188,5.7188,5.7188,5.7188,5.7188,5.7188,5.7188,5.7134,5.6917,5.7098,5.7062,5.679,5.6573,5.6265,5.6138,5.612,5.6174,5.6228,5.6482,5.6754,5.6917,5.7098,5.717,5.7188,5.717,5.7152,5.7188,5.7188,5.7188,5.7188,5.7188,5.7188,5.7188,5.7188,5.7062,5.7134,5.7188,5.7188,5.7188,5.2409,5.2409,5.2409,5.2409,5.2409,5.2409,5.2409,5.2409,5.2409,5.2409,5.2409,5.2409,5.2409,5.2409,5.2376,5.2011,5.1332,5.1164,5.0568,4.9839,4.9558,4.9077,4.8828,4.8804,4.883,4.8947,4.9307,5.012,5.0307,5.1222,5.1906,5.1836,5.2245,5.2415,5.247,5.2453,5.226,5.1891,5.164,5.1564,5.1647,5.1769,5.2054,5.2477,5.257,5.257,5.257,5.257,5.2552,5.2516,5.2498,5.2498,5.2498,5.2498,5.2498,5.2552,5.2896,5.2987,5.3168,5.3802,5.4526,5.5196,5.5758,5.6084,5.6446,5.6754,5.6935,5.7025,5.7098,5.7152,5.717,5.7188,5.7188,5.7188,5.7188,5.7188,5.7188,5.7188,5.7188,5.7188,5.7188,5.7188,5.7188,5.7188,5.7188,5.7188,5.7188,5.7098,5.6971,5.6862,5.679,5.6772,5.688,5.6989,5.7188,5.7188,5.717,5.717,5.7188,5.7188,5.7188,5.7188,5.7188,5.7188,5.7188,5.7188,5.7188,5.7188,5.7188,5.7188,5.7188,5.7188,5.7188,5.7188,5.7188,5.2409,5.2409,5.2409,5.2409,5.2409,5.2409,5.2409,5.2409,5.2409,5.2409,5.2409,5.2409,5.2409,5.2409,5.2393,5.2111,5.1696,5.1547,5.1148,5.032,5.0303,4.9889,4.951,4.9557,4.9406,4.9345,4.9795,5.0809,5.1202,5.1993,5.2659,5.2646,5.3043,5.326,5.326,5.326,5.3155,5.3032,5.2642,5.2394,5.2108,5.2015,5.2064,5.2712,5.2842,5.2824,5.2806,5.2752,5.2697,5.2715,5.2752,5.286,5.2715,5.2697,5.2697,5.2933,5.3422,5.3711,5.3983,5.4544,5.516,5.5703,5.6066,5.6482,5.688,5.7062,5.717,5.7188,5.7188,5.7188,5.7188,5.7188,5.7188,5.7188,5.7188,5.7188,5.7188,5.7188,5.7188,5.7188,5.7188,5.7188,5.7188,5.7188,5.7188,5.7188,5.7188,5.7188,5.7224,5.7224,5.7297,5.7279,5.7206,5.7206,5.7188,5.7188,5.7188,5.7188,5.7188,5.7188,5.7188,5.7188,5.7188,5.7188,5.7188,5.7188,5.7188,5.7188,5.7188,5.7188,5.7188,5.7188,5.7188,5.7188,5.7188,5.2409,5.2409,5.2409,5.2409,5.2409,5.2409,5.2409,5.2409,5.2409,5.2409,5.2409,5.2409,5.2409,5.2409,5.2409,5.221,5.2144,5.1945,5.1612,5.1231,5.1032,5.0634,5.0071,5.0091,4.9992,5.0258,5.0856,5.1843,5.2803,5.3249,5.347,5.3813,5.4033,5.405,5.405,5.405,5.4033,5.4073,5.3778,5.3553,5.3502,5.3095,5.3032,5.3815,5.4218,5.4128,5.4146,5.4218,5.4273,5.4345,5.4327,5.4037,5.3476,5.3422,5.3403,5.3548,5.4146,5.449,5.4798,5.5269,5.583,5.6138,5.6464,5.688,5.7134,5.717,5.7188,5.7188,5.7188,5.7188,5.7188,5.7188,5.7188,5.7188,5.7188,5.7188,5.7188,5.7188,5.7188,5.7188,5.7188,5.7188,5.7188,5.7188,5.7188,5.7188,5.7188,5.7206,5.7297,5.7333,5.755,5.7514,5.7261,5.7206,5.7206,5.7188,5.7188,5.7188,5.7188,5.7188,5.7188,5.7188,5.7188,5.7188,5.7188,5.7188,5.7188,5.7188,5.7188,5.7188,5.7188,5.7188,5.7188,5.7188,5.7188,5.2409,5.2409,5.2409,5.2409,5.2409,5.2409,5.2409,5.2409,5.2409,5.2409,5.2409,5.2409,5.2409,5.2409,5.2409,5.2409,5.2409,5.2393,5.2144,5.1879,5.1663,5.1297,5.0966,5.0667,5.037,5.0592,5.1443,5.2532,5.3962,5.4286,5.4283,5.4717,5.4776,5.4805,5.4823,5.4823,5.4892,5.5008,5.4726,5.4762,5.4811,5.4291,5.3907,5.4663,5.4925,5.4961,5.4907,5.4907,5.4907,5.4888,5.4798,5.4689,5.4309,5.4237,5.4237,5.4436,5.487,5.5395,5.5595,5.5957,5.6428,5.6663,5.679,5.7152,5.717,5.7188,5.7188,5.7188,5.7188,5.7188,5.7188,5.7188,5.7188,5.7188,5.7188,5.7188,5.7188,5.7188,5.7188,5.7188,5.7188,5.7188,5.7188,5.7188,5.7188,5.7188,5.7188,5.7514,5.755,5.7623,5.7786,5.7895,5.7732,5.7351,5.7188,5.7188,5.7188,5.7188,5.7188,5.7188,5.7188,5.7188,5.7188,5.7188,5.7188,5.7188,5.7188,5.7188,5.7188,5.7188,5.7188,5.7188,5.7188,5.7188,5.7188,5.2409,5.2409,5.2409,5.2409,5.2409,5.2409,5.2409,5.2409,5.2409,5.2409,5.2409,5.2409,5.2409,5.2409,5.2409,5.2409,5.2409,5.2409,5.2343,5.2343,5.2326,5.1945,5.1647,5.138,5.1168,5.1206,5.1765,5.2885,5.4117,5.4273,5.4585,5.5264,5.5478,5.549,5.5519,5.5561,5.5572,5.5624,5.5598,5.5793,5.5562,5.5221,5.5004,5.5031,5.5196,5.5214,5.5214,5.5214,5.5233,5.5196,5.5269,5.5124,5.5088,5.5033,5.5033,5.5214,5.5721,5.6066,5.6283,5.6681,5.6971,5.7152,5.7188,5.7188,5.7188,5.7188,5.7188,5.7188,5.7188,5.7188,5.7188,5.7188,5.7188,5.7188,5.7188,5.7188,5.7188,5.7188,5.7188,5.7188,5.7188,5.7188,5.7188,5.7188,5.7188,5.7188,5.7369,5.7768,5.8058,5.8166,5.8293,5.8456,5.8492,5.8039,5.7532,5.7243,5.7279,5.7188,5.7188,5.7188,5.7188,5.7188,5.7188,5.7188,5.7188,5.7188,5.7188,5.7188,5.7188,5.7188,5.7188,5.7188,5.7188,5.7188,5.7188,5.2409,5.2409,5.2409,5.2409,5.2409,5.2409,5.2409,5.2409,5.2409,5.2409,5.2409,5.2409,5.2409,5.2409,5.2409,5.2409,5.2409,5.2409,5.2409,5.2409,5.2409,5.2293,5.2177,5.1978,5.2309,5.2381,5.2418,5.2977,5.4088,5.4204,5.4362,5.4944,5.5448,5.5607,5.5822,5.5879,5.5918,5.6065,5.6203,5.6322,5.633,5.6137,5.614,5.6346,5.6772,5.6772,5.6754,5.6754,5.6772,5.6591,5.6156,5.5884,5.5794,5.5812,5.5794,5.5921,5.6464,5.6681,5.6935,5.7043,5.7188,5.7188,5.7188,5.7188,5.7188,5.7188,5.7188,5.7188,5.7188,5.7188,5.7188,5.7188,5.7188,5.7188,5.7188,5.7188,5.7188,5.7188,5.7188,5.7188,5.7188,5.7188,5.7188,5.7188,5.7188,5.7188,5.7188,5.7605,5.8239,5.8492,5.8746,5.9017,5.9198,5.8818,5.8311,5.755,5.7387,5.7279,5.7188,5.7188,5.7188,5.7188,5.7188,5.7188,5.7188,5.7188,5.7188,5.7188,5.7188,5.7188,5.7188,5.7188,5.7188,5.7188,5.7188]}]]